<?xml version="1.0" encoding="UTF-8" standalone="no" ?>
<gpx xmlns="http://www.topografix.com/GPX/1/1" xmlns:xsi="http://www.w3.org/2001/XMLSchema-instance" xsi:schemaLocation="http://www.topografix.com/GPX/1/1 http://www.topografix.com/GPX/1/1/gpx.xsd" version="1.1" creator="VisuGPX - https://www.visugpx.com">
  <metadata>
    <name>Aveyron</name>
    <desc><![CDATA[9 jours de vélo dans l'Aveyron (et un peu du Lot)]]></desc>
  </metadata>
  <trk>
    <name><![CDATA[j4]]></name>
    <desc><![CDATA[comment ...]]></desc>
    <extensions>
      <line xmlns="http://www.topografix.com/GPX/gpx_style/0/2">
        <color>000088</color>
        <width>4</width>
      </line>
    </extensions>
    <trkseg>
      <trkpt lat="44.60417" lon="2.57918">
        <ele>687</ele>
        <time>2021-08-30T07:05:17Z</time>
      </trkpt>
      <trkpt lat="44.60417" lon="2.57918">
        <ele>687</ele>
        <time>2021-08-30T07:05:19Z</time>
      </trkpt>
      <trkpt lat="44.60418" lon="2.57925">
        <ele>687</ele>
        <time>2021-08-30T07:05:20Z</time>
      </trkpt>
      <trkpt lat="44.60414" lon="2.57931">
        <ele>686</ele>
        <time>2021-08-30T07:05:29Z</time>
      </trkpt>
      <trkpt lat="44.60418" lon="2.57945">
        <ele>687</ele>
        <time>2021-08-30T07:06:10Z</time>
      </trkpt>
      <trkpt lat="44.60416" lon="2.57937">
        <ele>683</ele>
        <time>2021-08-30T07:06:51Z</time>
      </trkpt>
      <trkpt lat="44.60414" lon="2.5793">
        <ele>682</ele>
        <time>2021-08-30T07:06:53Z</time>
      </trkpt>
      <trkpt lat="44.60417" lon="2.57909">
        <ele>681</ele>
        <time>2021-08-30T07:07:04Z</time>
      </trkpt>
      <trkpt lat="44.60427" lon="2.579">
        <ele>681</ele>
        <time>2021-08-30T07:07:12Z</time>
      </trkpt>
      <trkpt lat="44.60426" lon="2.57894">
        <ele>680</ele>
        <time>2021-08-30T07:07:16Z</time>
      </trkpt>
      <trkpt lat="44.60421" lon="2.57892">
        <ele>679</ele>
        <time>2021-08-30T07:07:28Z</time>
      </trkpt>
      <trkpt lat="44.60406" lon="2.57883">
        <ele>681</ele>
        <time>2021-08-30T07:07:37Z</time>
      </trkpt>
      <trkpt lat="44.60389" lon="2.57884">
        <ele>680</ele>
        <time>2021-08-30T07:07:44Z</time>
      </trkpt>
      <trkpt lat="44.60389" lon="2.57877">
        <ele>680</ele>
        <time>2021-08-30T07:07:54Z</time>
      </trkpt>
      <trkpt lat="44.60391" lon="2.57872">
        <ele>680</ele>
        <time>2021-08-30T07:07:59Z</time>
      </trkpt>
      <trkpt lat="44.60396" lon="2.57872">
        <ele>680</ele>
        <time>2021-08-30T07:08:08Z</time>
      </trkpt>
      <trkpt lat="44.60395" lon="2.57878">
        <ele>680</ele>
        <time>2021-08-30T07:09:47Z</time>
      </trkpt>
      <trkpt lat="44.60384" lon="2.57886">
        <ele>680</ele>
        <time>2021-08-30T07:09:52Z</time>
      </trkpt>
      <trkpt lat="44.60379" lon="2.5788">
        <ele>680</ele>
        <time>2021-08-30T07:09:55Z</time>
      </trkpt>
      <trkpt lat="44.60379" lon="2.57847">
        <ele>678</ele>
        <time>2021-08-30T07:10:03Z</time>
      </trkpt>
      <trkpt lat="44.6038" lon="2.57841">
        <ele>678</ele>
        <time>2021-08-30T07:10:05Z</time>
      </trkpt>
      <trkpt lat="44.60377" lon="2.57745">
        <ele>674</ele>
        <time>2021-08-30T07:10:27Z</time>
      </trkpt>
      <trkpt lat="44.60375" lon="2.57738">
        <ele>674</ele>
        <time>2021-08-30T07:10:29Z</time>
      </trkpt>
      <trkpt lat="44.60369" lon="2.57737">
        <ele>674</ele>
        <time>2021-08-30T07:10:31Z</time>
      </trkpt>
      <trkpt lat="44.60276" lon="2.57799">
        <ele>668</ele>
        <time>2021-08-30T07:10:52Z</time>
      </trkpt>
      <trkpt lat="44.6027" lon="2.57799">
        <ele>668</ele>
        <time>2021-08-30T07:10:54Z</time>
      </trkpt>
      <trkpt lat="44.6027" lon="2.5779">
        <ele>667</ele>
        <time>2021-08-30T07:10:56Z</time>
      </trkpt>
      <trkpt lat="44.60276" lon="2.57781">
        <ele>667</ele>
        <time>2021-08-30T07:10:58Z</time>
      </trkpt>
      <trkpt lat="44.60291" lon="2.57744">
        <ele>665</ele>
        <time>2021-08-30T07:11:05Z</time>
      </trkpt>
      <trkpt lat="44.60296" lon="2.57722">
        <ele>665</ele>
        <time>2021-08-30T07:11:08Z</time>
      </trkpt>
      <trkpt lat="44.60297" lon="2.57706">
        <ele>664</ele>
        <time>2021-08-30T07:11:10Z</time>
      </trkpt>
      <trkpt lat="44.60292" lon="2.57683">
        <ele>663</ele>
        <time>2021-08-30T07:11:13Z</time>
      </trkpt>
      <trkpt lat="44.60248" lon="2.57563">
        <ele>658</ele>
        <time>2021-08-30T07:11:27Z</time>
      </trkpt>
      <trkpt lat="44.60227" lon="2.57531">
        <ele>656</ele>
        <time>2021-08-30T07:11:31Z</time>
      </trkpt>
      <trkpt lat="44.60205" lon="2.57512">
        <ele>655</ele>
        <time>2021-08-30T07:11:34Z</time>
      </trkpt>
      <trkpt lat="44.6011" lon="2.5746">
        <ele>653</ele>
        <time>2021-08-30T07:11:46Z</time>
      </trkpt>
      <trkpt lat="44.60097" lon="2.57449">
        <ele>652</ele>
        <time>2021-08-30T07:11:48Z</time>
      </trkpt>
      <trkpt lat="44.60078" lon="2.5741">
        <ele>651</ele>
        <time>2021-08-30T07:11:52Z</time>
      </trkpt>
      <trkpt lat="44.60074" lon="2.5739">
        <ele>651</ele>
        <time>2021-08-30T07:11:54Z</time>
      </trkpt>
      <trkpt lat="44.60074" lon="2.57259">
        <ele>641</ele>
        <time>2021-08-30T07:12:05Z</time>
      </trkpt>
      <trkpt lat="44.60077" lon="2.57244">
        <ele>638</ele>
        <time>2021-08-30T07:12:06Z</time>
      </trkpt>
      <trkpt lat="44.60081" lon="2.57231">
        <ele>637</ele>
        <time>2021-08-30T07:12:07Z</time>
      </trkpt>
      <trkpt lat="44.60189" lon="2.57028">
        <ele>635</ele>
        <time>2021-08-30T07:12:35Z</time>
      </trkpt>
      <trkpt lat="44.60242" lon="2.56989">
        <ele>633</ele>
        <time>2021-08-30T07:12:45Z</time>
      </trkpt>
      <trkpt lat="44.60309" lon="2.56957">
        <ele>634</ele>
        <time>2021-08-30T07:13:00Z</time>
      </trkpt>
      <trkpt lat="44.60315" lon="2.56956">
        <ele>634</ele>
        <time>2021-08-30T07:13:02Z</time>
      </trkpt>
      <trkpt lat="44.60339" lon="2.5696">
        <ele>635</ele>
        <time>2021-08-30T07:13:10Z</time>
      </trkpt>
      <trkpt lat="44.60417" lon="2.5698">
        <ele>635</ele>
        <time>2021-08-30T07:13:28Z</time>
      </trkpt>
      <trkpt lat="44.60485" lon="2.56979">
        <ele>633</ele>
        <time>2021-08-30T07:13:38Z</time>
      </trkpt>
      <trkpt lat="44.60499" lon="2.56975">
        <ele>633</ele>
        <time>2021-08-30T07:13:40Z</time>
      </trkpt>
      <trkpt lat="44.60512" lon="2.56965">
        <ele>634</ele>
        <time>2021-08-30T07:13:42Z</time>
      </trkpt>
      <trkpt lat="44.60525" lon="2.56948">
        <ele>635</ele>
        <time>2021-08-30T07:13:45Z</time>
      </trkpt>
      <trkpt lat="44.60533" lon="2.56934">
        <ele>635</ele>
        <time>2021-08-30T07:13:47Z</time>
      </trkpt>
      <trkpt lat="44.60559" lon="2.56905">
        <ele>635</ele>
        <time>2021-08-30T07:13:52Z</time>
      </trkpt>
      <trkpt lat="44.60572" lon="2.56899">
        <ele>634</ele>
        <time>2021-08-30T07:13:54Z</time>
      </trkpt>
      <trkpt lat="44.60592" lon="2.56894">
        <ele>634</ele>
        <time>2021-08-30T07:13:57Z</time>
      </trkpt>
      <trkpt lat="44.60647" lon="2.56897">
        <ele>631</ele>
        <time>2021-08-30T07:14:06Z</time>
      </trkpt>
      <trkpt lat="44.60673" lon="2.56891">
        <ele>629</ele>
        <time>2021-08-30T07:14:10Z</time>
      </trkpt>
      <trkpt lat="44.60697" lon="2.56874">
        <ele>628</ele>
        <time>2021-08-30T07:14:14Z</time>
      </trkpt>
      <trkpt lat="44.60714" lon="2.56856">
        <ele>627</ele>
        <time>2021-08-30T07:14:17Z</time>
      </trkpt>
      <trkpt lat="44.60752" lon="2.56803">
        <ele>626</ele>
        <time>2021-08-30T07:14:25Z</time>
      </trkpt>
      <trkpt lat="44.60768" lon="2.56788">
        <ele>626</ele>
        <time>2021-08-30T07:14:28Z</time>
      </trkpt>
      <trkpt lat="44.60773" lon="2.56784">
        <ele>626</ele>
        <time>2021-08-30T07:14:30Z</time>
      </trkpt>
      <trkpt lat="44.60778" lon="2.56782">
        <ele>625</ele>
        <time>2021-08-30T07:15:48Z</time>
      </trkpt>
      <trkpt lat="44.608" lon="2.56762">
        <ele>623</ele>
        <time>2021-08-30T07:15:57Z</time>
      </trkpt>
      <trkpt lat="44.60813" lon="2.56751">
        <ele>622</ele>
        <time>2021-08-30T07:16:01Z</time>
      </trkpt>
      <trkpt lat="44.60832" lon="2.56737">
        <ele>623</ele>
        <time>2021-08-30T07:16:06Z</time>
      </trkpt>
      <trkpt lat="44.60879" lon="2.56719">
        <ele>620</ele>
        <time>2021-08-30T07:16:16Z</time>
      </trkpt>
      <trkpt lat="44.60889" lon="2.56709">
        <ele>619</ele>
        <time>2021-08-30T07:16:18Z</time>
      </trkpt>
      <trkpt lat="44.60896" lon="2.56699">
        <ele>618</ele>
        <time>2021-08-30T07:16:20Z</time>
      </trkpt>
      <trkpt lat="44.6094" lon="2.56586">
        <ele>617</ele>
        <time>2021-08-30T07:16:34Z</time>
      </trkpt>
      <trkpt lat="44.60957" lon="2.56557">
        <ele>616</ele>
        <time>2021-08-30T07:16:38Z</time>
      </trkpt>
      <trkpt lat="44.60968" lon="2.56546">
        <ele>616</ele>
        <time>2021-08-30T07:16:40Z</time>
      </trkpt>
      <trkpt lat="44.6098" lon="2.56539">
        <ele>616</ele>
        <time>2021-08-30T07:16:42Z</time>
      </trkpt>
      <trkpt lat="44.60997" lon="2.56533">
        <ele>616</ele>
        <time>2021-08-30T07:16:45Z</time>
      </trkpt>
      <trkpt lat="44.61033" lon="2.56537">
        <ele>617</ele>
        <time>2021-08-30T07:16:52Z</time>
      </trkpt>
      <trkpt lat="44.6104" lon="2.56542">
        <ele>617</ele>
        <time>2021-08-30T07:16:54Z</time>
      </trkpt>
      <trkpt lat="44.61069" lon="2.56576">
        <ele>615</ele>
        <time>2021-08-30T07:17:00Z</time>
      </trkpt>
      <trkpt lat="44.61076" lon="2.56583">
        <ele>615</ele>
        <time>2021-08-30T07:17:01Z</time>
      </trkpt>
      <trkpt lat="44.61084" lon="2.56585">
        <ele>615</ele>
        <time>2021-08-30T07:17:02Z</time>
      </trkpt>
      <trkpt lat="44.61101" lon="2.56582">
        <ele>615</ele>
        <time>2021-08-30T07:17:04Z</time>
      </trkpt>
      <trkpt lat="44.6111" lon="2.56577">
        <ele>615</ele>
        <time>2021-08-30T07:17:05Z</time>
      </trkpt>
      <trkpt lat="44.61133" lon="2.56548">
        <ele>617</ele>
        <time>2021-08-30T07:17:09Z</time>
      </trkpt>
      <trkpt lat="44.61181" lon="2.565">
        <ele>616</ele>
        <time>2021-08-30T07:17:17Z</time>
      </trkpt>
      <trkpt lat="44.61195" lon="2.56494">
        <ele>616</ele>
        <time>2021-08-30T07:17:19Z</time>
      </trkpt>
      <trkpt lat="44.61216" lon="2.56491">
        <ele>616</ele>
        <time>2021-08-30T07:17:22Z</time>
      </trkpt>
      <trkpt lat="44.61222" lon="2.56489">
        <ele>617</ele>
        <time>2021-08-30T07:17:23Z</time>
      </trkpt>
      <trkpt lat="44.61238" lon="2.56475">
        <ele>618</ele>
        <time>2021-08-30T07:17:26Z</time>
      </trkpt>
      <trkpt lat="44.61263" lon="2.5644">
        <ele>615</ele>
        <time>2021-08-30T07:17:31Z</time>
      </trkpt>
      <trkpt lat="44.613" lon="2.5641">
        <ele>610</ele>
        <time>2021-08-30T07:17:37Z</time>
      </trkpt>
      <trkpt lat="44.6136" lon="2.56379">
        <ele>606</ele>
        <time>2021-08-30T07:17:47Z</time>
      </trkpt>
      <trkpt lat="44.61393" lon="2.56347">
        <ele>605</ele>
        <time>2021-08-30T07:17:53Z</time>
      </trkpt>
      <trkpt lat="44.61432" lon="2.5633">
        <ele>604</ele>
        <time>2021-08-30T07:17:59Z</time>
      </trkpt>
      <trkpt lat="44.61445" lon="2.56329">
        <ele>604</ele>
        <time>2021-08-30T07:18:01Z</time>
      </trkpt>
      <trkpt lat="44.61464" lon="2.56333">
        <ele>603</ele>
        <time>2021-08-30T07:18:04Z</time>
      </trkpt>
      <trkpt lat="44.61482" lon="2.56343">
        <ele>603</ele>
        <time>2021-08-30T07:18:07Z</time>
      </trkpt>
      <trkpt lat="44.61488" lon="2.56343">
        <ele>602</ele>
        <time>2021-08-30T07:18:08Z</time>
      </trkpt>
      <trkpt lat="44.61495" lon="2.56342">
        <ele>602</ele>
        <time>2021-08-30T07:18:09Z</time>
      </trkpt>
      <trkpt lat="44.61588" lon="2.56262">
        <ele>598</ele>
        <time>2021-08-30T07:18:25Z</time>
      </trkpt>
      <trkpt lat="44.61623" lon="2.56244">
        <ele>596</ele>
        <time>2021-08-30T07:18:31Z</time>
      </trkpt>
      <trkpt lat="44.61637" lon="2.56224">
        <ele>595</ele>
        <time>2021-08-30T07:18:34Z</time>
      </trkpt>
      <trkpt lat="44.61644" lon="2.56197">
        <ele>596</ele>
        <time>2021-08-30T07:18:37Z</time>
      </trkpt>
      <trkpt lat="44.61657" lon="2.56174">
        <ele>598</ele>
        <time>2021-08-30T07:18:40Z</time>
      </trkpt>
      <trkpt lat="44.61697" lon="2.56141">
        <ele>596</ele>
        <time>2021-08-30T07:18:47Z</time>
      </trkpt>
      <trkpt lat="44.61721" lon="2.56129">
        <ele>595</ele>
        <time>2021-08-30T07:18:51Z</time>
      </trkpt>
      <trkpt lat="44.61836" lon="2.56118">
        <ele>595</ele>
        <time>2021-08-30T07:19:09Z</time>
      </trkpt>
      <trkpt lat="44.61881" lon="2.56121">
        <ele>594</ele>
        <time>2021-08-30T07:19:16Z</time>
      </trkpt>
      <trkpt lat="44.6201" lon="2.561">
        <ele>593</ele>
        <time>2021-08-30T07:19:38Z</time>
      </trkpt>
      <trkpt lat="44.62034" lon="2.56105">
        <ele>593</ele>
        <time>2021-08-30T07:19:42Z</time>
      </trkpt>
      <trkpt lat="44.62112" lon="2.56141">
        <ele>595</ele>
        <time>2021-08-30T07:19:57Z</time>
      </trkpt>
      <trkpt lat="44.62117" lon="2.56142">
        <ele>595</ele>
        <time>2021-08-30T07:19:58Z</time>
      </trkpt>
      <trkpt lat="44.62129" lon="2.5614">
        <ele>594</ele>
        <time>2021-08-30T07:20:00Z</time>
      </trkpt>
      <trkpt lat="44.62142" lon="2.56134">
        <ele>594</ele>
        <time>2021-08-30T07:20:02Z</time>
      </trkpt>
      <trkpt lat="44.62155" lon="2.56117">
        <ele>594</ele>
        <time>2021-08-30T07:20:05Z</time>
      </trkpt>
      <trkpt lat="44.6224" lon="2.56071">
        <ele>592</ele>
        <time>2021-08-30T07:20:22Z</time>
      </trkpt>
      <trkpt lat="44.62263" lon="2.56057">
        <ele>592</ele>
        <time>2021-08-30T07:20:27Z</time>
      </trkpt>
      <trkpt lat="44.62308" lon="2.55994">
        <ele>592</ele>
        <time>2021-08-30T07:20:40Z</time>
      </trkpt>
      <trkpt lat="44.62329" lon="2.55979">
        <ele>591</ele>
        <time>2021-08-30T07:20:45Z</time>
      </trkpt>
      <trkpt lat="44.62336" lon="2.55972">
        <ele>590</ele>
        <time>2021-08-30T07:20:47Z</time>
      </trkpt>
      <trkpt lat="44.62344" lon="2.55947">
        <ele>589</ele>
        <time>2021-08-30T07:20:51Z</time>
      </trkpt>
      <trkpt lat="44.62343" lon="2.55882">
        <ele>587</ele>
        <time>2021-08-30T07:21:00Z</time>
      </trkpt>
      <trkpt lat="44.62363" lon="2.5578">
        <ele>582</ele>
        <time>2021-08-30T07:21:12Z</time>
      </trkpt>
      <trkpt lat="44.62363" lon="2.55762">
        <ele>582</ele>
        <time>2021-08-30T07:21:14Z</time>
      </trkpt>
      <trkpt lat="44.62339" lon="2.55674">
        <ele>578</ele>
        <time>2021-08-30T07:21:24Z</time>
      </trkpt>
      <trkpt lat="44.6233" lon="2.55648">
        <ele>577</ele>
        <time>2021-08-30T07:21:27Z</time>
      </trkpt>
      <trkpt lat="44.62326" lon="2.5563">
        <ele>577</ele>
        <time>2021-08-30T07:21:29Z</time>
      </trkpt>
      <trkpt lat="44.62325" lon="2.55611">
        <ele>575</ele>
        <time>2021-08-30T07:21:31Z</time>
      </trkpt>
      <trkpt lat="44.62332" lon="2.55567">
        <ele>575</ele>
        <time>2021-08-30T07:21:35Z</time>
      </trkpt>
      <trkpt lat="44.62349" lon="2.55527">
        <ele>573</ele>
        <time>2021-08-30T07:21:39Z</time>
      </trkpt>
      <trkpt lat="44.62429" lon="2.55402">
        <ele>566</ele>
        <time>2021-08-30T07:21:56Z</time>
      </trkpt>
      <trkpt lat="44.62433" lon="2.55397">
        <ele>566</ele>
        <time>2021-08-30T07:21:57Z</time>
      </trkpt>
      <trkpt lat="44.62441" lon="2.55394">
        <ele>565</ele>
        <time>2021-08-30T07:21:59Z</time>
      </trkpt>
      <trkpt lat="44.62454" lon="2.55404">
        <ele>563</ele>
        <time>2021-08-30T07:22:02Z</time>
      </trkpt>
      <trkpt lat="44.6246" lon="2.55411">
        <ele>562</ele>
        <time>2021-08-30T07:22:04Z</time>
      </trkpt>
      <trkpt lat="44.62476" lon="2.55422">
        <ele>560</ele>
        <time>2021-08-30T07:22:07Z</time>
      </trkpt>
      <trkpt lat="44.62491" lon="2.55423">
        <ele>559</ele>
        <time>2021-08-30T07:22:09Z</time>
      </trkpt>
      <trkpt lat="44.62528" lon="2.55405">
        <ele>558</ele>
        <time>2021-08-30T07:22:14Z</time>
      </trkpt>
      <trkpt lat="44.62542" lon="2.55403">
        <ele>558</ele>
        <time>2021-08-30T07:22:16Z</time>
      </trkpt>
      <trkpt lat="44.62548" lon="2.55405">
        <ele>558</ele>
        <time>2021-08-30T07:22:17Z</time>
      </trkpt>
      <trkpt lat="44.62565" lon="2.55412">
        <ele>558</ele>
        <time>2021-08-30T07:22:20Z</time>
      </trkpt>
      <trkpt lat="44.62583" lon="2.55413">
        <ele>561</ele>
        <time>2021-08-30T07:22:22Z</time>
      </trkpt>
      <trkpt lat="44.62593" lon="2.55411">
        <ele>562</ele>
        <time>2021-08-30T07:22:23Z</time>
      </trkpt>
      <trkpt lat="44.626" lon="2.55406">
        <ele>561</ele>
        <time>2021-08-30T07:22:24Z</time>
      </trkpt>
      <trkpt lat="44.62648" lon="2.55303">
        <ele>557</ele>
        <time>2021-08-30T07:22:34Z</time>
      </trkpt>
      <trkpt lat="44.62652" lon="2.55282">
        <ele>556</ele>
        <time>2021-08-30T07:22:36Z</time>
      </trkpt>
      <trkpt lat="44.62647" lon="2.55217">
        <ele>549</ele>
        <time>2021-08-30T07:22:43Z</time>
      </trkpt>
      <trkpt lat="44.62658" lon="2.55144">
        <ele>543</ele>
        <time>2021-08-30T07:22:50Z</time>
      </trkpt>
      <trkpt lat="44.62664" lon="2.55117">
        <ele>541</ele>
        <time>2021-08-30T07:22:53Z</time>
      </trkpt>
      <trkpt lat="44.62668" lon="2.55109">
        <ele>540</ele>
        <time>2021-08-30T07:22:54Z</time>
      </trkpt>
      <trkpt lat="44.62673" lon="2.551">
        <ele>540</ele>
        <time>2021-08-30T07:22:55Z</time>
      </trkpt>
      <trkpt lat="44.62681" lon="2.55092">
        <ele>541</ele>
        <time>2021-08-30T07:22:56Z</time>
      </trkpt>
      <trkpt lat="44.62769" lon="2.55078">
        <ele>539</ele>
        <time>2021-08-30T07:23:08Z</time>
      </trkpt>
      <trkpt lat="44.62774" lon="2.55078">
        <ele>538</ele>
        <time>2021-08-30T07:23:09Z</time>
      </trkpt>
      <trkpt lat="44.628" lon="2.55113">
        <ele>537</ele>
        <time>2021-08-30T07:23:15Z</time>
      </trkpt>
      <trkpt lat="44.62811" lon="2.55124">
        <ele>537</ele>
        <time>2021-08-30T07:23:17Z</time>
      </trkpt>
      <trkpt lat="44.62826" lon="2.5513">
        <ele>536</ele>
        <time>2021-08-30T07:23:19Z</time>
      </trkpt>
      <trkpt lat="44.62835" lon="2.55131">
        <ele>536</ele>
        <time>2021-08-30T07:23:20Z</time>
      </trkpt>
      <trkpt lat="44.62854" lon="2.55126">
        <ele>536</ele>
        <time>2021-08-30T07:23:22Z</time>
      </trkpt>
      <trkpt lat="44.62878" lon="2.55109">
        <ele>536</ele>
        <time>2021-08-30T07:23:25Z</time>
      </trkpt>
      <trkpt lat="44.62894" lon="2.55084">
        <ele>535</ele>
        <time>2021-08-30T07:23:28Z</time>
      </trkpt>
      <trkpt lat="44.62907" lon="2.55053">
        <ele>535</ele>
        <time>2021-08-30T07:23:31Z</time>
      </trkpt>
      <trkpt lat="44.6297" lon="2.5499">
        <ele>529</ele>
        <time>2021-08-30T07:23:40Z</time>
      </trkpt>
      <trkpt lat="44.6298" lon="2.54945">
        <ele>526</ele>
        <time>2021-08-30T07:23:44Z</time>
      </trkpt>
      <trkpt lat="44.62997" lon="2.54921">
        <ele>524</ele>
        <time>2021-08-30T07:23:47Z</time>
      </trkpt>
      <trkpt lat="44.63057" lon="2.54888">
        <ele>521</ele>
        <time>2021-08-30T07:23:55Z</time>
      </trkpt>
      <trkpt lat="44.63068" lon="2.54877">
        <ele>520</ele>
        <time>2021-08-30T07:23:57Z</time>
      </trkpt>
      <trkpt lat="44.63102" lon="2.54838">
        <ele>519</ele>
        <time>2021-08-30T07:24:02Z</time>
      </trkpt>
      <trkpt lat="44.63108" lon="2.54828">
        <ele>518</ele>
        <time>2021-08-30T07:24:03Z</time>
      </trkpt>
      <trkpt lat="44.63124" lon="2.54785">
        <ele>515</ele>
        <time>2021-08-30T07:24:07Z</time>
      </trkpt>
      <trkpt lat="44.63133" lon="2.54765">
        <ele>514</ele>
        <time>2021-08-30T07:24:09Z</time>
      </trkpt>
      <trkpt lat="44.63159" lon="2.54733">
        <ele>514</ele>
        <time>2021-08-30T07:24:13Z</time>
      </trkpt>
      <trkpt lat="44.63199" lon="2.54654">
        <ele>508</ele>
        <time>2021-08-30T07:24:21Z</time>
      </trkpt>
      <trkpt lat="44.63267" lon="2.54559">
        <ele>506</ele>
        <time>2021-08-30T07:24:32Z</time>
      </trkpt>
      <trkpt lat="44.63272" lon="2.5455">
        <ele>506</ele>
        <time>2021-08-30T07:24:33Z</time>
      </trkpt>
      <trkpt lat="44.63276" lon="2.5454">
        <ele>506</ele>
        <time>2021-08-30T07:24:34Z</time>
      </trkpt>
      <trkpt lat="44.63284" lon="2.54461">
        <ele>501</ele>
        <time>2021-08-30T07:24:41Z</time>
      </trkpt>
      <trkpt lat="44.63301" lon="2.54421">
        <ele>500</ele>
        <time>2021-08-30T07:24:45Z</time>
      </trkpt>
      <trkpt lat="44.6333" lon="2.54366">
        <ele>497</ele>
        <time>2021-08-30T07:24:51Z</time>
      </trkpt>
      <trkpt lat="44.63337" lon="2.54349">
        <ele>496</ele>
        <time>2021-08-30T07:24:53Z</time>
      </trkpt>
      <trkpt lat="44.63339" lon="2.5434">
        <ele>495</ele>
        <time>2021-08-30T07:24:54Z</time>
      </trkpt>
      <trkpt lat="44.63339" lon="2.5433">
        <ele>495</ele>
        <time>2021-08-30T07:24:55Z</time>
      </trkpt>
      <trkpt lat="44.63327" lon="2.54285">
        <ele>495</ele>
        <time>2021-08-30T07:24:59Z</time>
      </trkpt>
      <trkpt lat="44.63315" lon="2.54254">
        <ele>493</ele>
        <time>2021-08-30T07:25:02Z</time>
      </trkpt>
      <trkpt lat="44.63312" lon="2.54219">
        <ele>492</ele>
        <time>2021-08-30T07:25:05Z</time>
      </trkpt>
      <trkpt lat="44.63312" lon="2.54207">
        <ele>491</ele>
        <time>2021-08-30T07:25:06Z</time>
      </trkpt>
      <trkpt lat="44.63364" lon="2.54069">
        <ele>482</ele>
        <time>2021-08-30T07:25:19Z</time>
      </trkpt>
      <trkpt lat="44.63376" lon="2.54048">
        <ele>483</ele>
        <time>2021-08-30T07:25:21Z</time>
      </trkpt>
      <trkpt lat="44.63471" lon="2.53988">
        <ele>477</ele>
        <time>2021-08-30T07:25:33Z</time>
      </trkpt>
      <trkpt lat="44.63491" lon="2.53981">
        <ele>475</ele>
        <time>2021-08-30T07:25:36Z</time>
      </trkpt>
      <trkpt lat="44.63497" lon="2.53983">
        <ele>474</ele>
        <time>2021-08-30T07:25:37Z</time>
      </trkpt>
      <trkpt lat="44.63509" lon="2.53991">
        <ele>472</ele>
        <time>2021-08-30T07:25:39Z</time>
      </trkpt>
      <trkpt lat="44.63534" lon="2.54027">
        <ele>470</ele>
        <time>2021-08-30T07:25:44Z</time>
      </trkpt>
      <trkpt lat="44.63549" lon="2.54046">
        <ele>468</ele>
        <time>2021-08-30T07:25:47Z</time>
      </trkpt>
      <trkpt lat="44.6356" lon="2.54053">
        <ele>467</ele>
        <time>2021-08-30T07:25:49Z</time>
      </trkpt>
      <trkpt lat="44.63575" lon="2.54056">
        <ele>466</ele>
        <time>2021-08-30T07:25:51Z</time>
      </trkpt>
      <trkpt lat="44.6359" lon="2.54052">
        <ele>463</ele>
        <time>2021-08-30T07:25:53Z</time>
      </trkpt>
      <trkpt lat="44.63635" lon="2.54021">
        <ele>458</ele>
        <time>2021-08-30T07:25:59Z</time>
      </trkpt>
      <trkpt lat="44.63642" lon="2.54017">
        <ele>458</ele>
        <time>2021-08-30T07:26:00Z</time>
      </trkpt>
      <trkpt lat="44.6365" lon="2.54016">
        <ele>457</ele>
        <time>2021-08-30T07:26:01Z</time>
      </trkpt>
      <trkpt lat="44.63661" lon="2.54019">
        <ele>457</ele>
        <time>2021-08-30T07:26:03Z</time>
      </trkpt>
      <trkpt lat="44.63669" lon="2.54032">
        <ele>457</ele>
        <time>2021-08-30T07:26:05Z</time>
      </trkpt>
      <trkpt lat="44.63671" lon="2.54047">
        <ele>457</ele>
        <time>2021-08-30T07:26:06Z</time>
      </trkpt>
      <trkpt lat="44.63672" lon="2.54085">
        <ele>456</ele>
        <time>2021-08-30T07:26:09Z</time>
      </trkpt>
      <trkpt lat="44.63673" lon="2.54093">
        <ele>455</ele>
        <time>2021-08-30T07:26:10Z</time>
      </trkpt>
      <trkpt lat="44.63677" lon="2.54101">
        <ele>455</ele>
        <time>2021-08-30T07:26:12Z</time>
      </trkpt>
      <trkpt lat="44.63683" lon="2.54101">
        <ele>455</ele>
        <time>2021-08-30T07:26:14Z</time>
      </trkpt>
      <trkpt lat="44.63703" lon="2.54091">
        <ele>453</ele>
        <time>2021-08-30T07:26:18Z</time>
      </trkpt>
      <trkpt lat="44.63714" lon="2.54092">
        <ele>449</ele>
        <time>2021-08-30T07:26:20Z</time>
      </trkpt>
      <trkpt lat="44.63734" lon="2.54105">
        <ele>445</ele>
        <time>2021-08-30T07:26:23Z</time>
      </trkpt>
      <trkpt lat="44.63745" lon="2.54117">
        <ele>444</ele>
        <time>2021-08-30T07:26:25Z</time>
      </trkpt>
      <trkpt lat="44.63758" lon="2.54134">
        <ele>443</ele>
        <time>2021-08-30T07:26:28Z</time>
      </trkpt>
      <trkpt lat="44.63774" lon="2.54146">
        <ele>442</ele>
        <time>2021-08-30T07:26:30Z</time>
      </trkpt>
      <trkpt lat="44.63789" lon="2.54153">
        <ele>442</ele>
        <time>2021-08-30T07:26:32Z</time>
      </trkpt>
      <trkpt lat="44.63807" lon="2.54156">
        <ele>440</ele>
        <time>2021-08-30T07:26:35Z</time>
      </trkpt>
      <trkpt lat="44.63813" lon="2.54159">
        <ele>438</ele>
        <time>2021-08-30T07:26:36Z</time>
      </trkpt>
      <trkpt lat="44.63817" lon="2.54163">
        <ele>435</ele>
        <time>2021-08-30T07:26:37Z</time>
      </trkpt>
      <trkpt lat="44.63838" lon="2.54183">
        <ele>426</ele>
        <time>2021-08-30T07:26:42Z</time>
      </trkpt>
      <trkpt lat="44.63861" lon="2.5423">
        <ele>420</ele>
        <time>2021-08-30T07:26:47Z</time>
      </trkpt>
      <trkpt lat="44.63865" lon="2.54236">
        <ele>419</ele>
        <time>2021-08-30T07:26:48Z</time>
      </trkpt>
      <trkpt lat="44.63872" lon="2.54242">
        <ele>420</ele>
        <time>2021-08-30T07:26:49Z</time>
      </trkpt>
      <trkpt lat="44.6388" lon="2.54245">
        <ele>423</ele>
        <time>2021-08-30T07:26:50Z</time>
      </trkpt>
      <trkpt lat="44.63937" lon="2.54241">
        <ele>426</ele>
        <time>2021-08-30T07:26:57Z</time>
      </trkpt>
      <trkpt lat="44.6395" lon="2.54245">
        <ele>425</ele>
        <time>2021-08-30T07:26:59Z</time>
      </trkpt>
      <trkpt lat="44.63961" lon="2.54254">
        <ele>423</ele>
        <time>2021-08-30T07:27:01Z</time>
      </trkpt>
      <trkpt lat="44.63975" lon="2.54268">
        <ele>421</ele>
        <time>2021-08-30T07:27:04Z</time>
      </trkpt>
      <trkpt lat="44.63979" lon="2.54273">
        <ele>420</ele>
        <time>2021-08-30T07:27:05Z</time>
      </trkpt>
      <trkpt lat="44.64003" lon="2.5434">
        <ele>413</ele>
        <time>2021-08-30T07:27:12Z</time>
      </trkpt>
      <trkpt lat="44.64004" lon="2.5435">
        <ele>411</ele>
        <time>2021-08-30T07:27:13Z</time>
      </trkpt>
      <trkpt lat="44.64002" lon="2.54361">
        <ele>410</ele>
        <time>2021-08-30T07:27:14Z</time>
      </trkpt>
      <trkpt lat="44.63998" lon="2.5437">
        <ele>409</ele>
        <time>2021-08-30T07:27:15Z</time>
      </trkpt>
      <trkpt lat="44.63979" lon="2.54388">
        <ele>406</ele>
        <time>2021-08-30T07:27:18Z</time>
      </trkpt>
      <trkpt lat="44.63966" lon="2.54396">
        <ele>404</ele>
        <time>2021-08-30T07:27:20Z</time>
      </trkpt>
      <trkpt lat="44.63961" lon="2.54401">
        <ele>403</ele>
        <time>2021-08-30T07:27:21Z</time>
      </trkpt>
      <trkpt lat="44.63958" lon="2.54408">
        <ele>403</ele>
        <time>2021-08-30T07:27:22Z</time>
      </trkpt>
      <trkpt lat="44.63957" lon="2.54417">
        <ele>402</ele>
        <time>2021-08-30T07:27:23Z</time>
      </trkpt>
      <trkpt lat="44.63959" lon="2.54427">
        <ele>402</ele>
        <time>2021-08-30T07:27:24Z</time>
      </trkpt>
      <trkpt lat="44.63994" lon="2.54505">
        <ele>399</ele>
        <time>2021-08-30T07:27:33Z</time>
      </trkpt>
      <trkpt lat="44.64005" lon="2.54517">
        <ele>402</ele>
        <time>2021-08-30T07:27:35Z</time>
      </trkpt>
      <trkpt lat="44.64014" lon="2.54524">
        <ele>400</ele>
        <time>2021-08-30T07:27:37Z</time>
      </trkpt>
      <trkpt lat="44.64028" lon="2.54555">
        <ele>389</ele>
        <time>2021-08-30T07:27:41Z</time>
      </trkpt>
      <trkpt lat="44.64031" lon="2.54575">
        <ele>387</ele>
        <time>2021-08-30T07:27:43Z</time>
      </trkpt>
      <trkpt lat="44.64029" lon="2.54597">
        <ele>386</ele>
        <time>2021-08-30T07:27:45Z</time>
      </trkpt>
      <trkpt lat="44.64021" lon="2.54634">
        <ele>386</ele>
        <time>2021-08-30T07:27:49Z</time>
      </trkpt>
      <trkpt lat="44.64013" lon="2.54713">
        <ele>385</ele>
        <time>2021-08-30T07:27:56Z</time>
      </trkpt>
      <trkpt lat="44.64015" lon="2.54732">
        <ele>387</ele>
        <time>2021-08-30T07:27:58Z</time>
      </trkpt>
      <trkpt lat="44.64019" lon="2.54748">
        <ele>387</ele>
        <time>2021-08-30T07:28:00Z</time>
      </trkpt>
      <trkpt lat="44.64021" lon="2.54754">
        <ele>386</ele>
        <time>2021-08-30T07:28:01Z</time>
      </trkpt>
      <trkpt lat="44.64039" lon="2.5477">
        <ele>384</ele>
        <time>2021-08-30T07:28:05Z</time>
      </trkpt>
      <trkpt lat="44.64048" lon="2.54783">
        <ele>383</ele>
        <time>2021-08-30T07:28:07Z</time>
      </trkpt>
      <trkpt lat="44.64073" lon="2.54849">
        <ele>381</ele>
        <time>2021-08-30T07:28:14Z</time>
      </trkpt>
      <trkpt lat="44.64074" lon="2.54859">
        <ele>381</ele>
        <time>2021-08-30T07:28:15Z</time>
      </trkpt>
      <trkpt lat="44.6407" lon="2.54878">
        <ele>382</ele>
        <time>2021-08-30T07:28:17Z</time>
      </trkpt>
      <trkpt lat="44.64046" lon="2.54917">
        <ele>380</ele>
        <time>2021-08-30T07:28:22Z</time>
      </trkpt>
      <trkpt lat="44.63977" lon="2.54984">
        <ele>373</ele>
        <time>2021-08-30T07:28:35Z</time>
      </trkpt>
      <trkpt lat="44.63968" lon="2.54993">
        <ele>372</ele>
        <time>2021-08-30T07:28:37Z</time>
      </trkpt>
      <trkpt lat="44.6396" lon="2.54999">
        <ele>371</ele>
        <time>2021-08-30T07:28:39Z</time>
      </trkpt>
      <trkpt lat="44.63955" lon="2.55006">
        <ele>371</ele>
        <time>2021-08-30T07:28:41Z</time>
      </trkpt>
      <trkpt lat="44.63953" lon="2.55016">
        <ele>372</ele>
        <time>2021-08-30T07:28:43Z</time>
      </trkpt>
      <trkpt lat="44.63952" lon="2.55042">
        <ele>376</ele>
        <time>2021-08-30T07:28:47Z</time>
      </trkpt>
      <trkpt lat="44.63947" lon="2.5506">
        <ele>377</ele>
        <time>2021-08-30T07:28:50Z</time>
      </trkpt>
      <trkpt lat="44.63932" lon="2.55081">
        <ele>376</ele>
        <time>2021-08-30T07:28:54Z</time>
      </trkpt>
      <trkpt lat="44.63922" lon="2.55089">
        <ele>375</ele>
        <time>2021-08-30T07:28:56Z</time>
      </trkpt>
      <trkpt lat="44.63918" lon="2.55093">
        <ele>374</ele>
        <time>2021-08-30T07:28:57Z</time>
      </trkpt>
      <trkpt lat="44.63915" lon="2.55102">
        <ele>374</ele>
        <time>2021-08-30T07:28:59Z</time>
      </trkpt>
      <trkpt lat="44.63915" lon="2.55127">
        <ele>375</ele>
        <time>2021-08-30T07:29:03Z</time>
      </trkpt>
      <trkpt lat="44.63917" lon="2.55145">
        <ele>375</ele>
        <time>2021-08-30T07:29:07Z</time>
      </trkpt>
      <trkpt lat="44.63919" lon="2.55176">
        <ele>373</ele>
        <time>2021-08-30T07:29:13Z</time>
      </trkpt>
      <trkpt lat="44.63916" lon="2.55195">
        <ele>372</ele>
        <time>2021-08-30T07:29:17Z</time>
      </trkpt>
      <trkpt lat="44.63892" lon="2.55232">
        <ele>367</ele>
        <time>2021-08-30T07:29:27Z</time>
      </trkpt>
      <trkpt lat="44.63888" lon="2.55239">
        <ele>365</ele>
        <time>2021-08-30T07:29:29Z</time>
      </trkpt>
      <trkpt lat="44.63882" lon="2.55244">
        <ele>363</ele>
        <time>2021-08-30T07:29:31Z</time>
      </trkpt>
      <trkpt lat="44.63878" lon="2.55251">
        <ele>362</ele>
        <time>2021-08-30T07:29:33Z</time>
      </trkpt>
      <trkpt lat="44.63867" lon="2.55264">
        <ele>360</ele>
        <time>2021-08-30T07:29:36Z</time>
      </trkpt>
      <trkpt lat="44.63849" lon="2.55288">
        <ele>358</ele>
        <time>2021-08-30T07:29:41Z</time>
      </trkpt>
      <trkpt lat="44.63843" lon="2.55304">
        <ele>357</ele>
        <time>2021-08-30T07:29:43Z</time>
      </trkpt>
      <trkpt lat="44.63841" lon="2.55331">
        <ele>356</ele>
        <time>2021-08-30T07:29:46Z</time>
      </trkpt>
      <trkpt lat="44.63815" lon="2.55381">
        <ele>352</ele>
        <time>2021-08-30T07:29:53Z</time>
      </trkpt>
      <trkpt lat="44.63806" lon="2.55392">
        <ele>351</ele>
        <time>2021-08-30T07:29:55Z</time>
      </trkpt>
      <trkpt lat="44.63769" lon="2.55421">
        <ele>345</ele>
        <time>2021-08-30T07:30:01Z</time>
      </trkpt>
      <trkpt lat="44.63746" lon="2.55441">
        <ele>342</ele>
        <time>2021-08-30T07:30:04Z</time>
      </trkpt>
      <trkpt lat="44.63735" lon="2.55459">
        <ele>340</ele>
        <time>2021-08-30T07:30:06Z</time>
      </trkpt>
      <trkpt lat="44.63731" lon="2.55467">
        <ele>339</ele>
        <time>2021-08-30T07:30:07Z</time>
      </trkpt>
      <trkpt lat="44.63723" lon="2.55509">
        <ele>336</ele>
        <time>2021-08-30T07:30:12Z</time>
      </trkpt>
      <trkpt lat="44.63703" lon="2.55565">
        <ele>334</ele>
        <time>2021-08-30T07:30:18Z</time>
      </trkpt>
      <trkpt lat="44.63699" lon="2.5559">
        <ele>335</ele>
        <time>2021-08-30T07:30:20Z</time>
      </trkpt>
      <trkpt lat="44.63699" lon="2.55606">
        <ele>335</ele>
        <time>2021-08-30T07:30:21Z</time>
      </trkpt>
      <trkpt lat="44.63701" lon="2.55617">
        <ele>335</ele>
        <time>2021-08-30T07:30:22Z</time>
      </trkpt>
      <trkpt lat="44.63709" lon="2.55638">
        <ele>334</ele>
        <time>2021-08-30T07:30:24Z</time>
      </trkpt>
      <trkpt lat="44.63728" lon="2.55654">
        <ele>334</ele>
        <time>2021-08-30T07:30:27Z</time>
      </trkpt>
      <trkpt lat="44.63738" lon="2.55666">
        <ele>334</ele>
        <time>2021-08-30T07:30:29Z</time>
      </trkpt>
      <trkpt lat="44.63739" lon="2.55674">
        <ele>334</ele>
        <time>2021-08-30T07:30:30Z</time>
      </trkpt>
      <trkpt lat="44.63738" lon="2.55695">
        <ele>330</ele>
        <time>2021-08-30T07:30:32Z</time>
      </trkpt>
      <trkpt lat="44.63732" lon="2.55705">
        <ele>326</ele>
        <time>2021-08-30T07:30:33Z</time>
      </trkpt>
      <trkpt lat="44.63698" lon="2.55758">
        <ele>320</ele>
        <time>2021-08-30T07:30:39Z</time>
      </trkpt>
      <trkpt lat="44.63694" lon="2.55766">
        <ele>319</ele>
        <time>2021-08-30T07:30:40Z</time>
      </trkpt>
      <trkpt lat="44.6369" lon="2.55804">
        <ele>321</ele>
        <time>2021-08-30T07:30:44Z</time>
      </trkpt>
      <trkpt lat="44.63691" lon="2.55814">
        <ele>322</ele>
        <time>2021-08-30T07:30:45Z</time>
      </trkpt>
      <trkpt lat="44.63693" lon="2.55823">
        <ele>321</ele>
        <time>2021-08-30T07:30:46Z</time>
      </trkpt>
      <trkpt lat="44.63714" lon="2.55854">
        <ele>318</ele>
        <time>2021-08-30T07:30:51Z</time>
      </trkpt>
      <trkpt lat="44.63728" lon="2.55888">
        <ele>315</ele>
        <time>2021-08-30T07:30:57Z</time>
      </trkpt>
      <trkpt lat="44.63734" lon="2.55895">
        <ele>314</ele>
        <time>2021-08-30T07:30:59Z</time>
      </trkpt>
      <trkpt lat="44.63742" lon="2.55911">
        <ele>311</ele>
        <time>2021-08-30T07:31:03Z</time>
      </trkpt>
      <trkpt lat="44.63745" lon="2.55919">
        <ele>310</ele>
        <time>2021-08-30T07:31:05Z</time>
      </trkpt>
      <trkpt lat="44.63747" lon="2.55925">
        <ele>309</ele>
        <time>2021-08-30T07:31:07Z</time>
      </trkpt>
      <trkpt lat="44.6375" lon="2.55932">
        <ele>308</ele>
        <time>2021-08-30T07:31:10Z</time>
      </trkpt>
      <trkpt lat="44.63747" lon="2.55937">
        <ele>310</ele>
        <time>2021-08-30T07:33:31Z</time>
      </trkpt>
      <trkpt lat="44.63743" lon="2.5594">
        <ele>311</ele>
        <time>2021-08-30T07:33:33Z</time>
      </trkpt>
      <trkpt lat="44.63738" lon="2.55944">
        <ele>312</ele>
        <time>2021-08-30T07:33:36Z</time>
      </trkpt>
      <trkpt lat="44.63722" lon="2.55945">
        <ele>313</ele>
        <time>2021-08-30T07:33:45Z</time>
      </trkpt>
      <trkpt lat="44.63718" lon="2.55948">
        <ele>313</ele>
        <time>2021-08-30T07:33:47Z</time>
      </trkpt>
      <trkpt lat="44.63714" lon="2.55954">
        <ele>313</ele>
        <time>2021-08-30T07:33:49Z</time>
      </trkpt>
      <trkpt lat="44.63704" lon="2.56007">
        <ele>312</ele>
        <time>2021-08-30T07:34:01Z</time>
      </trkpt>
      <trkpt lat="44.63704" lon="2.56026">
        <ele>313</ele>
        <time>2021-08-30T07:34:04Z</time>
      </trkpt>
      <trkpt lat="44.63708" lon="2.56052">
        <ele>312</ele>
        <time>2021-08-30T07:34:08Z</time>
      </trkpt>
      <trkpt lat="44.63728" lon="2.56106">
        <ele>309</ele>
        <time>2021-08-30T07:34:15Z</time>
      </trkpt>
      <trkpt lat="44.63729" lon="2.56114">
        <ele>309</ele>
        <time>2021-08-30T07:34:16Z</time>
      </trkpt>
      <trkpt lat="44.63727" lon="2.56122">
        <ele>307</ele>
        <time>2021-08-30T07:34:17Z</time>
      </trkpt>
      <trkpt lat="44.63723" lon="2.56131">
        <ele>306</ele>
        <time>2021-08-30T07:34:18Z</time>
      </trkpt>
      <trkpt lat="44.63703" lon="2.56145">
        <ele>302</ele>
        <time>2021-08-30T07:34:21Z</time>
      </trkpt>
      <trkpt lat="44.63693" lon="2.56158">
        <ele>300</ele>
        <time>2021-08-30T07:34:23Z</time>
      </trkpt>
      <trkpt lat="44.63688" lon="2.56167">
        <ele>300</ele>
        <time>2021-08-30T07:34:24Z</time>
      </trkpt>
      <trkpt lat="44.63686" lon="2.56177">
        <ele>301</ele>
        <time>2021-08-30T07:34:25Z</time>
      </trkpt>
      <trkpt lat="44.63688" lon="2.56188">
        <ele>301</ele>
        <time>2021-08-30T07:34:26Z</time>
      </trkpt>
      <trkpt lat="44.63709" lon="2.56231">
        <ele>300</ele>
        <time>2021-08-30T07:34:31Z</time>
      </trkpt>
      <trkpt lat="44.63713" lon="2.56252">
        <ele>299</ele>
        <time>2021-08-30T07:34:33Z</time>
      </trkpt>
      <trkpt lat="44.63709" lon="2.56306">
        <ele>297</ele>
        <time>2021-08-30T07:34:38Z</time>
      </trkpt>
      <trkpt lat="44.6371" lon="2.56316">
        <ele>297</ele>
        <time>2021-08-30T07:34:39Z</time>
      </trkpt>
      <trkpt lat="44.63723" lon="2.56341">
        <ele>296</ele>
        <time>2021-08-30T07:34:42Z</time>
      </trkpt>
      <trkpt lat="44.63738" lon="2.56361">
        <ele>294</ele>
        <time>2021-08-30T07:34:45Z</time>
      </trkpt>
      <trkpt lat="44.63745" lon="2.56382">
        <ele>291</ele>
        <time>2021-08-30T07:34:47Z</time>
      </trkpt>
      <trkpt lat="44.63744" lon="2.56475">
        <ele>286</ele>
        <time>2021-08-30T07:34:55Z</time>
      </trkpt>
      <trkpt lat="44.63748" lon="2.56524">
        <ele>284</ele>
        <time>2021-08-30T07:34:59Z</time>
      </trkpt>
      <trkpt lat="44.6378" lon="2.56611">
        <ele>281</ele>
        <time>2021-08-30T07:35:07Z</time>
      </trkpt>
      <trkpt lat="44.63799" lon="2.56703">
        <ele>281</ele>
        <time>2021-08-30T07:35:16Z</time>
      </trkpt>
      <trkpt lat="44.63831" lon="2.56783">
        <ele>279</ele>
        <time>2021-08-30T07:35:24Z</time>
      </trkpt>
      <trkpt lat="44.6384" lon="2.56832">
        <ele>279</ele>
        <time>2021-08-30T07:35:29Z</time>
      </trkpt>
      <trkpt lat="44.63844" lon="2.56839">
        <ele>279</ele>
        <time>2021-08-30T07:35:30Z</time>
      </trkpt>
      <trkpt lat="44.6385" lon="2.56844">
        <ele>277</ele>
        <time>2021-08-30T07:35:31Z</time>
      </trkpt>
      <trkpt lat="44.63882" lon="2.56856">
        <ele>275</ele>
        <time>2021-08-30T07:35:35Z</time>
      </trkpt>
      <trkpt lat="44.63964" lon="2.56863">
        <ele>268</ele>
        <time>2021-08-30T07:35:45Z</time>
      </trkpt>
      <trkpt lat="44.63991" lon="2.56857">
        <ele>270</ele>
        <time>2021-08-30T07:35:49Z</time>
      </trkpt>
      <trkpt lat="44.63997" lon="2.56854">
        <ele>270</ele>
        <time>2021-08-30T07:35:50Z</time>
      </trkpt>
      <trkpt lat="44.64004" lon="2.56844">
        <ele>269</ele>
        <time>2021-08-30T07:35:52Z</time>
      </trkpt>
      <trkpt lat="44.64008" lon="2.56834">
        <ele>265</ele>
        <time>2021-08-30T07:35:54Z</time>
      </trkpt>
      <trkpt lat="44.64041" lon="2.56796">
        <ele>262</ele>
        <time>2021-08-30T07:36:02Z</time>
      </trkpt>
      <trkpt lat="44.64086" lon="2.56728">
        <ele>259</ele>
        <time>2021-08-30T07:36:14Z</time>
      </trkpt>
      <trkpt lat="44.64095" lon="2.5672">
        <ele>259</ele>
        <time>2021-08-30T07:36:16Z</time>
      </trkpt>
      <trkpt lat="44.64099" lon="2.56717">
        <ele>259</ele>
        <time>2021-08-30T07:36:17Z</time>
      </trkpt>
      <trkpt lat="44.64115" lon="2.56717">
        <ele>259</ele>
        <time>2021-08-30T07:36:21Z</time>
      </trkpt>
      <trkpt lat="44.64123" lon="2.56721">
        <ele>258</ele>
        <time>2021-08-30T07:36:23Z</time>
      </trkpt>
      <trkpt lat="44.64129" lon="2.56725">
        <ele>256</ele>
        <time>2021-08-30T07:36:25Z</time>
      </trkpt>
      <trkpt lat="44.64141" lon="2.5674">
        <ele>254</ele>
        <time>2021-08-30T07:36:28Z</time>
      </trkpt>
      <trkpt lat="44.64147" lon="2.56754">
        <ele>253</ele>
        <time>2021-08-30T07:36:30Z</time>
      </trkpt>
      <trkpt lat="44.64149" lon="2.5677">
        <ele>252</ele>
        <time>2021-08-30T07:36:32Z</time>
      </trkpt>
      <trkpt lat="44.64147" lon="2.56787">
        <ele>252</ele>
        <time>2021-08-30T07:36:34Z</time>
      </trkpt>
      <trkpt lat="44.64142" lon="2.56802">
        <ele>252</ele>
        <time>2021-08-30T07:36:36Z</time>
      </trkpt>
      <trkpt lat="44.64138" lon="2.56808">
        <ele>251</ele>
        <time>2021-08-30T07:36:37Z</time>
      </trkpt>
      <trkpt lat="44.64092" lon="2.56833">
        <ele>246</ele>
        <time>2021-08-30T07:36:44Z</time>
      </trkpt>
      <trkpt lat="44.64073" lon="2.56853">
        <ele>244</ele>
        <time>2021-08-30T07:36:47Z</time>
      </trkpt>
      <trkpt lat="44.64023" lon="2.56925">
        <ele>241</ele>
        <time>2021-08-30T07:36:57Z</time>
      </trkpt>
      <trkpt lat="44.64004" lon="2.5694">
        <ele>239</ele>
        <time>2021-08-30T07:37:01Z</time>
      </trkpt>
      <trkpt lat="44.64001" lon="2.56945">
        <ele>239</ele>
        <time>2021-08-30T07:37:02Z</time>
      </trkpt>
      <trkpt lat="44.63999" lon="2.56951">
        <ele>238</ele>
        <time>2021-08-30T07:37:03Z</time>
      </trkpt>
      <trkpt lat="44.63999" lon="2.56965">
        <ele>237</ele>
        <time>2021-08-30T07:37:05Z</time>
      </trkpt>
      <trkpt lat="44.64" lon="2.56972">
        <ele>237</ele>
        <time>2021-08-30T07:37:06Z</time>
      </trkpt>
      <trkpt lat="44.64004" lon="2.56982">
        <ele>238</ele>
        <time>2021-08-30T07:37:08Z</time>
      </trkpt>
      <trkpt lat="44.64029" lon="2.57069">
        <ele>238</ele>
        <time>2021-08-30T07:37:25Z</time>
      </trkpt>
      <trkpt lat="44.64033" lon="2.57073">
        <ele>236</ele>
        <time>2021-08-30T07:37:29Z</time>
      </trkpt>
      <trkpt lat="44.64038" lon="2.57074">
        <ele>231</ele>
        <time>2021-08-30T07:37:31Z</time>
      </trkpt>
      <trkpt lat="44.64061" lon="2.57072">
        <ele>221</ele>
        <time>2021-08-30T07:37:53Z</time>
      </trkpt>
      <trkpt lat="44.64198" lon="2.56921">
        <ele>223</ele>
        <time>2021-08-30T07:38:23Z</time>
      </trkpt>
      <trkpt lat="44.64307" lon="2.56752">
        <ele>224</ele>
        <time>2021-08-30T07:38:53Z</time>
      </trkpt>
      <trkpt lat="44.64355" lon="2.56678">
        <ele>222</ele>
        <time>2021-08-30T07:39:08Z</time>
      </trkpt>
      <trkpt lat="44.64396" lon="2.56574">
        <ele>220</ele>
        <time>2021-08-30T07:39:28Z</time>
      </trkpt>
      <trkpt lat="44.64399" lon="2.56568">
        <ele>220</ele>
        <time>2021-08-30T07:39:30Z</time>
      </trkpt>
      <trkpt lat="44.64409" lon="2.5656">
        <ele>220</ele>
        <time>2021-08-30T07:39:50Z</time>
      </trkpt>
      <trkpt lat="44.6441" lon="2.56551">
        <ele>220</ele>
        <time>2021-08-30T07:39:53Z</time>
      </trkpt>
      <trkpt lat="44.6441" lon="2.56544">
        <ele>222</ele>
        <time>2021-08-30T07:39:56Z</time>
      </trkpt>
      <trkpt lat="44.64419" lon="2.56531">
        <ele>224</ele>
        <time>2021-08-30T07:40:03Z</time>
      </trkpt>
      <trkpt lat="44.64424" lon="2.56527">
        <ele>224</ele>
        <time>2021-08-30T07:40:05Z</time>
      </trkpt>
      <trkpt lat="44.64427" lon="2.56521">
        <ele>225</ele>
        <time>2021-08-30T07:40:08Z</time>
      </trkpt>
      <trkpt lat="44.64431" lon="2.56516">
        <ele>224</ele>
        <time>2021-08-30T07:40:13Z</time>
      </trkpt>
      <trkpt lat="44.64447" lon="2.56513">
        <ele>218</ele>
        <time>2021-08-30T07:40:23Z</time>
      </trkpt>
      <trkpt lat="44.64446" lon="2.56507">
        <ele>215</ele>
        <time>2021-08-30T07:40:27Z</time>
      </trkpt>
      <trkpt lat="44.64441" lon="2.56505">
        <ele>209</ele>
        <time>2021-08-30T07:40:53Z</time>
      </trkpt>
      <trkpt lat="44.64437" lon="2.56492">
        <ele>209</ele>
        <time>2021-08-30T07:41:03Z</time>
      </trkpt>
      <trkpt lat="44.64445" lon="2.56478">
        <ele>210</ele>
        <time>2021-08-30T07:41:09Z</time>
      </trkpt>
      <trkpt lat="44.64458" lon="2.5644">
        <ele>208</ele>
        <time>2021-08-30T07:41:22Z</time>
      </trkpt>
      <trkpt lat="44.64468" lon="2.56434">
        <ele>211</ele>
        <time>2021-08-30T07:41:27Z</time>
      </trkpt>
      <trkpt lat="44.64499" lon="2.56442">
        <ele>214</ele>
        <time>2021-08-30T07:41:54Z</time>
      </trkpt>
      <trkpt lat="44.64505" lon="2.56439">
        <ele>214</ele>
        <time>2021-08-30T07:41:56Z</time>
      </trkpt>
      <trkpt lat="44.64568" lon="2.56473">
        <ele>219</ele>
        <time>2021-08-30T07:42:22Z</time>
      </trkpt>
      <trkpt lat="44.64574" lon="2.56488">
        <ele>221</ele>
        <time>2021-08-30T07:42:31Z</time>
      </trkpt>
      <trkpt lat="44.64596" lon="2.56495">
        <ele>223</ele>
        <time>2021-08-30T07:42:45Z</time>
      </trkpt>
      <trkpt lat="44.64599" lon="2.56501">
        <ele>225</ele>
        <time>2021-08-30T07:42:48Z</time>
      </trkpt>
      <trkpt lat="44.64597" lon="2.56516">
        <ele>227</ele>
        <time>2021-08-30T07:42:54Z</time>
      </trkpt>
      <trkpt lat="44.64593" lon="2.56531">
        <ele>223</ele>
        <time>2021-08-30T07:43:01Z</time>
      </trkpt>
      <trkpt lat="44.64597" lon="2.56533">
        <ele>229</ele>
        <time>2021-08-30T07:49:16Z</time>
      </trkpt>
      <trkpt lat="44.64594" lon="2.56541">
        <ele>226</ele>
        <time>2021-08-30T07:53:42Z</time>
      </trkpt>
      <trkpt lat="44.64592" lon="2.56547">
        <ele>225</ele>
        <time>2021-08-30T07:53:44Z</time>
      </trkpt>
      <trkpt lat="44.64586" lon="2.56552">
        <ele>225</ele>
        <time>2021-08-30T07:53:47Z</time>
      </trkpt>
      <trkpt lat="44.64514" lon="2.56567">
        <ele>223</ele>
        <time>2021-08-30T07:54:09Z</time>
      </trkpt>
      <trkpt lat="44.64509" lon="2.56569">
        <ele>222</ele>
        <time>2021-08-30T07:54:11Z</time>
      </trkpt>
      <trkpt lat="44.64504" lon="2.56568">
        <ele>222</ele>
        <time>2021-08-30T07:54:13Z</time>
      </trkpt>
      <trkpt lat="44.64488" lon="2.5657">
        <ele>220</ele>
        <time>2021-08-30T07:54:19Z</time>
      </trkpt>
      <trkpt lat="44.64483" lon="2.56573">
        <ele>220</ele>
        <time>2021-08-30T07:54:21Z</time>
      </trkpt>
      <trkpt lat="44.64478" lon="2.56575">
        <ele>219</ele>
        <time>2021-08-30T07:54:23Z</time>
      </trkpt>
      <trkpt lat="44.64466" lon="2.56575">
        <ele>217</ele>
        <time>2021-08-30T07:54:28Z</time>
      </trkpt>
      <trkpt lat="44.64449" lon="2.56576">
        <ele>213</ele>
        <time>2021-08-30T07:54:43Z</time>
      </trkpt>
      <trkpt lat="44.64447" lon="2.56571">
        <ele>218</ele>
        <time>2021-08-30T07:56:12Z</time>
      </trkpt>
      <trkpt lat="44.64442" lon="2.56571">
        <ele>219</ele>
        <time>2021-08-30T07:57:13Z</time>
      </trkpt>
      <trkpt lat="44.64438" lon="2.56574">
        <ele>222</ele>
        <time>2021-08-30T07:59:42Z</time>
      </trkpt>
      <trkpt lat="44.64435" lon="2.56581">
        <ele>222</ele>
        <time>2021-08-30T07:59:50Z</time>
      </trkpt>
      <trkpt lat="44.64422" lon="2.56583">
        <ele>225</ele>
        <time>2021-08-30T07:59:54Z</time>
      </trkpt>
      <trkpt lat="44.64418" lon="2.56582">
        <ele>225</ele>
        <time>2021-08-30T07:59:55Z</time>
      </trkpt>
      <trkpt lat="44.64407" lon="2.56565">
        <ele>224</ele>
        <time>2021-08-30T08:00:02Z</time>
      </trkpt>
      <trkpt lat="44.64406" lon="2.56557">
        <ele>224</ele>
        <time>2021-08-30T08:00:05Z</time>
      </trkpt>
      <trkpt lat="44.64405" lon="2.5655">
        <ele>223</ele>
        <time>2021-08-30T08:00:07Z</time>
      </trkpt>
      <trkpt lat="44.64399" lon="2.56527">
        <ele>222</ele>
        <time>2021-08-30T08:00:13Z</time>
      </trkpt>
      <trkpt lat="44.64396" lon="2.56521">
        <ele>222</ele>
        <time>2021-08-30T08:00:15Z</time>
      </trkpt>
      <trkpt lat="44.64392" lon="2.56516">
        <ele>222</ele>
        <time>2021-08-30T08:00:18Z</time>
      </trkpt>
      <trkpt lat="44.64391" lon="2.56509">
        <ele>222</ele>
        <time>2021-08-30T08:00:21Z</time>
      </trkpt>
      <trkpt lat="44.64392" lon="2.56503">
        <ele>222</ele>
        <time>2021-08-30T08:00:25Z</time>
      </trkpt>
      <trkpt lat="44.64388" lon="2.56505">
        <ele>224</ele>
        <time>2021-08-30T08:01:05Z</time>
      </trkpt>
      <trkpt lat="44.64392" lon="2.56512">
        <ele>224</ele>
        <time>2021-08-30T08:01:08Z</time>
      </trkpt>
      <trkpt lat="44.64393" lon="2.56535">
        <ele>226</ele>
        <time>2021-08-30T08:01:14Z</time>
      </trkpt>
      <trkpt lat="44.64427" lon="2.56572">
        <ele>225</ele>
        <time>2021-08-30T08:01:34Z</time>
      </trkpt>
      <trkpt lat="44.6451" lon="2.56549">
        <ele>231</ele>
        <time>2021-08-30T08:02:05Z</time>
      </trkpt>
      <trkpt lat="44.64516" lon="2.56546">
        <ele>232</ele>
        <time>2021-08-30T08:02:08Z</time>
      </trkpt>
      <trkpt lat="44.64525" lon="2.56548">
        <ele>235</ele>
        <time>2021-08-30T08:02:10Z</time>
      </trkpt>
      <trkpt lat="44.64617" lon="2.56566">
        <ele>243</ele>
        <time>2021-08-30T08:02:40Z</time>
      </trkpt>
      <trkpt lat="44.64622" lon="2.56567">
        <ele>244</ele>
        <time>2021-08-30T08:02:46Z</time>
      </trkpt>
      <trkpt lat="44.64624" lon="2.56559">
        <ele>245</ele>
        <time>2021-08-30T08:02:56Z</time>
      </trkpt>
      <trkpt lat="44.64625" lon="2.56552">
        <ele>242</ele>
        <time>2021-08-30T08:02:59Z</time>
      </trkpt>
      <trkpt lat="44.64628" lon="2.56544">
        <ele>241</ele>
        <time>2021-08-30T08:03:02Z</time>
      </trkpt>
      <trkpt lat="44.64632" lon="2.56538">
        <ele>240</ele>
        <time>2021-08-30T08:03:04Z</time>
      </trkpt>
      <trkpt lat="44.64638" lon="2.56528">
        <ele>237</ele>
        <time>2021-08-30T08:03:08Z</time>
      </trkpt>
      <trkpt lat="44.64642" lon="2.56521">
        <ele>237</ele>
        <time>2021-08-30T08:03:10Z</time>
      </trkpt>
      <trkpt lat="44.64652" lon="2.56514">
        <ele>237</ele>
        <time>2021-08-30T08:03:15Z</time>
      </trkpt>
      <trkpt lat="44.64716" lon="2.56558">
        <ele>236</ele>
        <time>2021-08-30T08:03:39Z</time>
      </trkpt>
      <trkpt lat="44.64833" lon="2.56639">
        <ele>208</ele>
        <time>2021-08-30T08:04:09Z</time>
      </trkpt>
      <trkpt lat="44.64881" lon="2.56674">
        <ele>204</ele>
        <time>2021-08-30T08:04:22Z</time>
      </trkpt>
      <trkpt lat="44.64901" lon="2.56689">
        <ele>201</ele>
        <time>2021-08-30T08:04:28Z</time>
      </trkpt>
      <trkpt lat="44.64918" lon="2.56704">
        <ele>200</ele>
        <time>2021-08-30T08:04:34Z</time>
      </trkpt>
      <trkpt lat="44.64915" lon="2.56727">
        <ele>200</ele>
        <time>2021-08-30T08:04:40Z</time>
      </trkpt>
      <trkpt lat="44.64911" lon="2.56732">
        <ele>201</ele>
        <time>2021-08-30T08:04:46Z</time>
      </trkpt>
      <trkpt lat="44.64912" lon="2.5674">
        <ele>203</ele>
        <time>2021-08-30T08:04:51Z</time>
      </trkpt>
      <trkpt lat="44.6491" lon="2.56747">
        <ele>204</ele>
        <time>2021-08-30T08:04:54Z</time>
      </trkpt>
      <trkpt lat="44.64908" lon="2.56755">
        <ele>208</ele>
        <time>2021-08-30T08:05:04Z</time>
      </trkpt>
      <trkpt lat="44.64923" lon="2.56749">
        <ele>210</ele>
        <time>2021-08-30T08:05:24Z</time>
      </trkpt>
      <trkpt lat="44.64982" lon="2.56694">
        <ele>216</ele>
        <time>2021-08-30T08:05:55Z</time>
      </trkpt>
      <trkpt lat="44.65001" lon="2.56664">
        <ele>216</ele>
        <time>2021-08-30T08:06:08Z</time>
      </trkpt>
      <trkpt lat="44.64994" lon="2.56628">
        <ele>216</ele>
        <time>2021-08-30T08:06:18Z</time>
      </trkpt>
      <trkpt lat="44.64922" lon="2.56555">
        <ele>223</ele>
        <time>2021-08-30T08:06:50Z</time>
      </trkpt>
      <trkpt lat="44.64887" lon="2.56522">
        <ele>224</ele>
        <time>2021-08-30T08:07:04Z</time>
      </trkpt>
      <trkpt lat="44.6486" lon="2.56504">
        <ele>225</ele>
        <time>2021-08-30T08:07:12Z</time>
      </trkpt>
      <trkpt lat="44.64792" lon="2.56427">
        <ele>229</ele>
        <time>2021-08-30T08:07:32Z</time>
      </trkpt>
      <trkpt lat="44.6478" lon="2.5642">
        <ele>230</ele>
        <time>2021-08-30T08:07:35Z</time>
      </trkpt>
      <trkpt lat="44.64776" lon="2.56416">
        <ele>230</ele>
        <time>2021-08-30T08:07:36Z</time>
      </trkpt>
      <trkpt lat="44.64661" lon="2.56329">
        <ele>242</ele>
        <time>2021-08-30T08:08:04Z</time>
      </trkpt>
      <trkpt lat="44.64622" lon="2.56294">
        <ele>251</ele>
        <time>2021-08-30T08:08:14Z</time>
      </trkpt>
      <trkpt lat="44.64531" lon="2.56225">
        <ele>256</ele>
        <time>2021-08-30T08:08:37Z</time>
      </trkpt>
      <trkpt lat="44.64446" lon="2.56207">
        <ele>251</ele>
        <time>2021-08-30T08:08:55Z</time>
      </trkpt>
      <trkpt lat="44.64421" lon="2.56196">
        <ele>246</ele>
        <time>2021-08-30T08:09:00Z</time>
      </trkpt>
      <trkpt lat="44.64367" lon="2.56191">
        <ele>243</ele>
        <time>2021-08-30T08:09:12Z</time>
      </trkpt>
      <trkpt lat="44.6431" lon="2.56204">
        <ele>242</ele>
        <time>2021-08-30T08:09:24Z</time>
      </trkpt>
      <trkpt lat="44.64244" lon="2.56203">
        <ele>242</ele>
        <time>2021-08-30T08:09:37Z</time>
      </trkpt>
      <trkpt lat="44.64193" lon="2.56183">
        <ele>239</ele>
        <time>2021-08-30T08:09:47Z</time>
      </trkpt>
      <trkpt lat="44.64118" lon="2.56155">
        <ele>237</ele>
        <time>2021-08-30T08:10:02Z</time>
      </trkpt>
      <trkpt lat="44.64091" lon="2.56138">
        <ele>239</ele>
        <time>2021-08-30T08:10:08Z</time>
      </trkpt>
      <trkpt lat="44.64055" lon="2.56122">
        <ele>241</ele>
        <time>2021-08-30T08:10:16Z</time>
      </trkpt>
      <trkpt lat="44.64037" lon="2.56107">
        <ele>241</ele>
        <time>2021-08-30T08:10:20Z</time>
      </trkpt>
      <trkpt lat="44.64023" lon="2.561">
        <ele>243</ele>
        <time>2021-08-30T08:10:23Z</time>
      </trkpt>
      <trkpt lat="44.64003" lon="2.561">
        <ele>245</ele>
        <time>2021-08-30T08:10:27Z</time>
      </trkpt>
      <trkpt lat="44.63988" lon="2.56104">
        <ele>248</ele>
        <time>2021-08-30T08:10:30Z</time>
      </trkpt>
      <trkpt lat="44.63979" lon="2.56104">
        <ele>249</ele>
        <time>2021-08-30T08:10:32Z</time>
      </trkpt>
      <trkpt lat="44.63974" lon="2.56103">
        <ele>249</ele>
        <time>2021-08-30T08:10:33Z</time>
      </trkpt>
      <trkpt lat="44.6397" lon="2.561">
        <ele>249</ele>
        <time>2021-08-30T08:10:34Z</time>
      </trkpt>
      <trkpt lat="44.63966" lon="2.56095">
        <ele>249</ele>
        <time>2021-08-30T08:10:35Z</time>
      </trkpt>
      <trkpt lat="44.63963" lon="2.56089">
        <ele>248</ele>
        <time>2021-08-30T08:10:36Z</time>
      </trkpt>
      <trkpt lat="44.63962" lon="2.56075">
        <ele>247</ele>
        <time>2021-08-30T08:10:38Z</time>
      </trkpt>
      <trkpt lat="44.63962" lon="2.55983">
        <ele>242</ele>
        <time>2021-08-30T08:10:51Z</time>
      </trkpt>
      <trkpt lat="44.63964" lon="2.55967">
        <ele>240</ele>
        <time>2021-08-30T08:10:53Z</time>
      </trkpt>
      <trkpt lat="44.63986" lon="2.55927">
        <ele>240</ele>
        <time>2021-08-30T08:11:01Z</time>
      </trkpt>
      <trkpt lat="44.64067" lon="2.55803">
        <ele>230</ele>
        <time>2021-08-30T08:11:25Z</time>
      </trkpt>
      <trkpt lat="44.64089" lon="2.55753">
        <ele>231</ele>
        <time>2021-08-30T08:11:34Z</time>
      </trkpt>
      <trkpt lat="44.64111" lon="2.55712">
        <ele>229</ele>
        <time>2021-08-30T08:11:43Z</time>
      </trkpt>
      <trkpt lat="44.64124" lon="2.55682">
        <ele>228</ele>
        <time>2021-08-30T08:11:54Z</time>
      </trkpt>
      <trkpt lat="44.6412" lon="2.55679">
        <ele>228</ele>
        <time>2021-08-30T08:13:12Z</time>
      </trkpt>
      <trkpt lat="44.64181" lon="2.55534">
        <ele>229</ele>
        <time>2021-08-30T08:13:43Z</time>
      </trkpt>
      <trkpt lat="44.64251" lon="2.55375">
        <ele>216</ele>
        <time>2021-08-30T08:14:14Z</time>
      </trkpt>
      <trkpt lat="44.64307" lon="2.55251">
        <ele>212</ele>
        <time>2021-08-30T08:14:36Z</time>
      </trkpt>
      <trkpt lat="44.64416" lon="2.55111">
        <ele>218</ele>
        <time>2021-08-30T08:15:07Z</time>
      </trkpt>
      <trkpt lat="44.64534" lon="2.54986">
        <ele>228</ele>
        <time>2021-08-30T08:15:37Z</time>
      </trkpt>
      <trkpt lat="44.64578" lon="2.54917">
        <ele>229</ele>
        <time>2021-08-30T08:15:51Z</time>
      </trkpt>
      <trkpt lat="44.64625" lon="2.54795">
        <ele>229</ele>
        <time>2021-08-30T08:16:12Z</time>
      </trkpt>
      <trkpt lat="44.64628" lon="2.54769">
        <ele>229</ele>
        <time>2021-08-30T08:16:16Z</time>
      </trkpt>
      <trkpt lat="44.64629" lon="2.54703">
        <ele>229</ele>
        <time>2021-08-30T08:16:25Z</time>
      </trkpt>
      <trkpt lat="44.64628" lon="2.54688">
        <ele>230</ele>
        <time>2021-08-30T08:16:27Z</time>
      </trkpt>
      <trkpt lat="44.64631" lon="2.54629">
        <ele>232</ele>
        <time>2021-08-30T08:16:36Z</time>
      </trkpt>
      <trkpt lat="44.6464" lon="2.54564">
        <ele>233</ele>
        <time>2021-08-30T08:16:46Z</time>
      </trkpt>
      <trkpt lat="44.64645" lon="2.54489">
        <ele>236</ele>
        <time>2021-08-30T08:16:57Z</time>
      </trkpt>
      <trkpt lat="44.64648" lon="2.54478">
        <ele>236</ele>
        <time>2021-08-30T08:16:59Z</time>
      </trkpt>
      <trkpt lat="44.64654" lon="2.54455">
        <ele>237</ele>
        <time>2021-08-30T08:17:03Z</time>
      </trkpt>
      <trkpt lat="44.64655" lon="2.5442">
        <ele>236</ele>
        <time>2021-08-30T08:17:09Z</time>
      </trkpt>
      <trkpt lat="44.64651" lon="2.5435">
        <ele>241</ele>
        <time>2021-08-30T08:17:20Z</time>
      </trkpt>
      <trkpt lat="44.64659" lon="2.54305">
        <ele>233</ele>
        <time>2021-08-30T08:17:27Z</time>
      </trkpt>
      <trkpt lat="44.64668" lon="2.54271">
        <ele>232</ele>
        <time>2021-08-30T08:17:33Z</time>
      </trkpt>
      <trkpt lat="44.64694" lon="2.5412">
        <ele>229</ele>
        <time>2021-08-30T08:17:57Z</time>
      </trkpt>
      <trkpt lat="44.647" lon="2.54093">
        <ele>228</ele>
        <time>2021-08-30T08:18:01Z</time>
      </trkpt>
      <trkpt lat="44.64717" lon="2.53875">
        <ele>222</ele>
        <time>2021-08-30T08:18:33Z</time>
      </trkpt>
      <trkpt lat="44.64708" lon="2.53815">
        <ele>226</ele>
        <time>2021-08-30T08:18:43Z</time>
      </trkpt>
      <trkpt lat="44.64696" lon="2.53799">
        <ele>227</ele>
        <time>2021-08-30T08:18:47Z</time>
      </trkpt>
      <trkpt lat="44.64692" lon="2.5378">
        <ele>226</ele>
        <time>2021-08-30T08:18:50Z</time>
      </trkpt>
      <trkpt lat="44.6469" lon="2.53756">
        <ele>225</ele>
        <time>2021-08-30T08:18:53Z</time>
      </trkpt>
      <trkpt lat="44.6469" lon="2.53684">
        <ele>220</ele>
        <time>2021-08-30T08:19:02Z</time>
      </trkpt>
      <trkpt lat="44.6469" lon="2.53677">
        <ele>220</ele>
        <time>2021-08-30T08:19:03Z</time>
      </trkpt>
      <trkpt lat="44.64691" lon="2.53594">
        <ele>219</ele>
        <time>2021-08-30T08:19:16Z</time>
      </trkpt>
      <trkpt lat="44.64699" lon="2.53551">
        <ele>217</ele>
        <time>2021-08-30T08:19:23Z</time>
      </trkpt>
      <trkpt lat="44.64705" lon="2.53522">
        <ele>216</ele>
        <time>2021-08-30T08:19:27Z</time>
      </trkpt>
      <trkpt lat="44.64731" lon="2.5335">
        <ele>208</ele>
        <time>2021-08-30T08:19:52Z</time>
      </trkpt>
      <trkpt lat="44.64734" lon="2.53324">
        <ele>206</ele>
        <time>2021-08-30T08:19:55Z</time>
      </trkpt>
      <trkpt lat="44.64735" lon="2.5329">
        <ele>204</ele>
        <time>2021-08-30T08:19:59Z</time>
      </trkpt>
      <trkpt lat="44.64768" lon="2.53067">
        <ele>203</ele>
        <time>2021-08-30T08:20:29Z</time>
      </trkpt>
      <trkpt lat="44.64784" lon="2.52963">
        <ele>204</ele>
        <time>2021-08-30T08:20:43Z</time>
      </trkpt>
      <trkpt lat="44.64785" lon="2.52937">
        <ele>206</ele>
        <time>2021-08-30T08:20:47Z</time>
      </trkpt>
      <trkpt lat="44.64784" lon="2.52919">
        <ele>208</ele>
        <time>2021-08-30T08:20:50Z</time>
      </trkpt>
      <trkpt lat="44.64774" lon="2.52879">
        <ele>209</ele>
        <time>2021-08-30T08:20:56Z</time>
      </trkpt>
      <trkpt lat="44.64771" lon="2.5286">
        <ele>210</ele>
        <time>2021-08-30T08:20:59Z</time>
      </trkpt>
      <trkpt lat="44.64768" lon="2.52844">
        <ele>212</ele>
        <time>2021-08-30T08:21:01Z</time>
      </trkpt>
      <trkpt lat="44.64767" lon="2.52827">
        <ele>213</ele>
        <time>2021-08-30T08:21:03Z</time>
      </trkpt>
      <trkpt lat="44.64769" lon="2.52794">
        <ele>218</ele>
        <time>2021-08-30T08:21:07Z</time>
      </trkpt>
      <trkpt lat="44.64777" lon="2.52767">
        <ele>220</ele>
        <time>2021-08-30T08:21:11Z</time>
      </trkpt>
      <trkpt lat="44.6479" lon="2.52722">
        <ele>222</ele>
        <time>2021-08-30T08:21:17Z</time>
      </trkpt>
      <trkpt lat="44.64797" lon="2.52678">
        <ele>228</ele>
        <time>2021-08-30T08:21:23Z</time>
      </trkpt>
      <trkpt lat="44.64799" lon="2.52628">
        <ele>231</ele>
        <time>2021-08-30T08:21:30Z</time>
      </trkpt>
      <trkpt lat="44.64772" lon="2.52558">
        <ele>239</ele>
        <time>2021-08-30T08:21:40Z</time>
      </trkpt>
      <trkpt lat="44.64755" lon="2.52526">
        <ele>244</ele>
        <time>2021-08-30T08:21:46Z</time>
      </trkpt>
      <trkpt lat="44.64711" lon="2.52493">
        <ele>242</ele>
        <time>2021-08-30T08:21:57Z</time>
      </trkpt>
      <trkpt lat="44.64701" lon="2.52488">
        <ele>240</ele>
        <time>2021-08-30T08:21:59Z</time>
      </trkpt>
      <trkpt lat="44.64676" lon="2.52465">
        <ele>235</ele>
        <time>2021-08-30T08:22:05Z</time>
      </trkpt>
      <trkpt lat="44.64593" lon="2.52355">
        <ele>230</ele>
        <time>2021-08-30T08:22:26Z</time>
      </trkpt>
      <trkpt lat="44.64589" lon="2.52348">
        <ele>230</ele>
        <time>2021-08-30T08:22:27Z</time>
      </trkpt>
      <trkpt lat="44.64582" lon="2.52308">
        <ele>229</ele>
        <time>2021-08-30T08:22:31Z</time>
      </trkpt>
      <trkpt lat="44.64578" lon="2.5227">
        <ele>229</ele>
        <time>2021-08-30T08:22:35Z</time>
      </trkpt>
      <trkpt lat="44.64579" lon="2.52261">
        <ele>229</ele>
        <time>2021-08-30T08:22:36Z</time>
      </trkpt>
      <trkpt lat="44.64579" lon="2.52254">
        <ele>228</ele>
        <time>2021-08-30T08:22:37Z</time>
      </trkpt>
      <trkpt lat="44.6459" lon="2.52213">
        <ele>230</ele>
        <time>2021-08-30T08:22:42Z</time>
      </trkpt>
      <trkpt lat="44.64602" lon="2.52189">
        <ele>231</ele>
        <time>2021-08-30T08:22:46Z</time>
      </trkpt>
      <trkpt lat="44.64611" lon="2.5218">
        <ele>232</ele>
        <time>2021-08-30T08:22:48Z</time>
      </trkpt>
      <trkpt lat="44.64661" lon="2.52148">
        <ele>232</ele>
        <time>2021-08-30T08:22:58Z</time>
      </trkpt>
      <trkpt lat="44.64718" lon="2.52124">
        <ele>228</ele>
        <time>2021-08-30T08:23:09Z</time>
      </trkpt>
      <trkpt lat="44.64727" lon="2.52117">
        <ele>227</ele>
        <time>2021-08-30T08:23:11Z</time>
      </trkpt>
      <trkpt lat="44.64751" lon="2.5208">
        <ele>228</ele>
        <time>2021-08-30T08:23:18Z</time>
      </trkpt>
      <trkpt lat="44.64845" lon="2.51893">
        <ele>224</ele>
        <time>2021-08-30T08:23:49Z</time>
      </trkpt>
      <trkpt lat="44.64864" lon="2.51784">
        <ele>222</ele>
        <time>2021-08-30T08:24:05Z</time>
      </trkpt>
      <trkpt lat="44.64866" lon="2.51739">
        <ele>222</ele>
        <time>2021-08-30T08:24:11Z</time>
      </trkpt>
      <trkpt lat="44.64864" lon="2.51707">
        <ele>222</ele>
        <time>2021-08-30T08:24:15Z</time>
      </trkpt>
      <trkpt lat="44.6484" lon="2.51602">
        <ele>223</ele>
        <time>2021-08-30T08:24:30Z</time>
      </trkpt>
      <trkpt lat="44.64798" lon="2.51543">
        <ele>226</ele>
        <time>2021-08-30T08:24:42Z</time>
      </trkpt>
      <trkpt lat="44.64785" lon="2.51539">
        <ele>226</ele>
        <time>2021-08-30T08:24:45Z</time>
      </trkpt>
      <trkpt lat="44.64766" lon="2.51517">
        <ele>226</ele>
        <time>2021-08-30T08:24:50Z</time>
      </trkpt>
      <trkpt lat="44.64757" lon="2.51496">
        <ele>226</ele>
        <time>2021-08-30T08:24:53Z</time>
      </trkpt>
      <trkpt lat="44.64748" lon="2.51482">
        <ele>225</ele>
        <time>2021-08-30T08:24:56Z</time>
      </trkpt>
      <trkpt lat="44.64746" lon="2.51476">
        <ele>225</ele>
        <time>2021-08-30T08:24:57Z</time>
      </trkpt>
      <trkpt lat="44.64745" lon="2.51468">
        <ele>225</ele>
        <time>2021-08-30T08:24:58Z</time>
      </trkpt>
      <trkpt lat="44.64737" lon="2.51447">
        <ele>224</ele>
        <time>2021-08-30T08:25:01Z</time>
      </trkpt>
      <trkpt lat="44.64719" lon="2.51395">
        <ele>222</ele>
        <time>2021-08-30T08:25:09Z</time>
      </trkpt>
      <trkpt lat="44.64701" lon="2.51358">
        <ele>220</ele>
        <time>2021-08-30T08:25:16Z</time>
      </trkpt>
      <trkpt lat="44.64697" lon="2.5135">
        <ele>220</ele>
        <time>2021-08-30T08:25:18Z</time>
      </trkpt>
      <trkpt lat="44.6464" lon="2.51233">
        <ele>218</ele>
        <time>2021-08-30T08:25:37Z</time>
      </trkpt>
      <trkpt lat="44.64634" lon="2.51211">
        <ele>218</ele>
        <time>2021-08-30T08:25:40Z</time>
      </trkpt>
      <trkpt lat="44.6459" lon="2.51123">
        <ele>220</ele>
        <time>2021-08-30T08:25:53Z</time>
      </trkpt>
      <trkpt lat="44.64581" lon="2.51073">
        <ele>221</ele>
        <time>2021-08-30T08:26:00Z</time>
      </trkpt>
      <trkpt lat="44.64579" lon="2.51045">
        <ele>222</ele>
        <time>2021-08-30T08:26:04Z</time>
      </trkpt>
      <trkpt lat="44.64585" lon="2.51005">
        <ele>221</ele>
        <time>2021-08-30T08:26:10Z</time>
      </trkpt>
      <trkpt lat="44.64595" lon="2.5096">
        <ele>223</ele>
        <time>2021-08-30T08:26:17Z</time>
      </trkpt>
      <trkpt lat="44.64634" lon="2.50887">
        <ele>220</ele>
        <time>2021-08-30T08:26:31Z</time>
      </trkpt>
      <trkpt lat="44.64721" lon="2.5075">
        <ele>220</ele>
        <time>2021-08-30T08:26:58Z</time>
      </trkpt>
      <trkpt lat="44.64728" lon="2.50733">
        <ele>221</ele>
        <time>2021-08-30T08:27:01Z</time>
      </trkpt>
      <trkpt lat="44.64735" lon="2.50704">
        <ele>220</ele>
        <time>2021-08-30T08:27:05Z</time>
      </trkpt>
      <trkpt lat="44.64737" lon="2.50649">
        <ele>219</ele>
        <time>2021-08-30T08:27:13Z</time>
      </trkpt>
      <trkpt lat="44.6473" lon="2.50618">
        <ele>218</ele>
        <time>2021-08-30T08:27:18Z</time>
      </trkpt>
      <trkpt lat="44.64728" lon="2.50579">
        <ele>218</ele>
        <time>2021-08-30T08:27:24Z</time>
      </trkpt>
      <trkpt lat="44.64736" lon="2.50536">
        <ele>215</ele>
        <time>2021-08-30T08:27:31Z</time>
      </trkpt>
      <trkpt lat="44.64734" lon="2.5051">
        <ele>214</ele>
        <time>2021-08-30T08:27:35Z</time>
      </trkpt>
      <trkpt lat="44.64713" lon="2.50449">
        <ele>214</ele>
        <time>2021-08-30T08:27:45Z</time>
      </trkpt>
      <trkpt lat="44.64707" lon="2.50414">
        <ele>214</ele>
        <time>2021-08-30T08:27:50Z</time>
      </trkpt>
      <trkpt lat="44.64695" lon="2.50384">
        <ele>215</ele>
        <time>2021-08-30T08:27:55Z</time>
      </trkpt>
      <trkpt lat="44.64666" lon="2.50341">
        <ele>215</ele>
        <time>2021-08-30T08:28:04Z</time>
      </trkpt>
      <trkpt lat="44.64649" lon="2.50325">
        <ele>217</ele>
        <time>2021-08-30T08:28:08Z</time>
      </trkpt>
      <trkpt lat="44.64611" lon="2.50318">
        <ele>218</ele>
        <time>2021-08-30T08:28:17Z</time>
      </trkpt>
      <trkpt lat="44.64549" lon="2.50322">
        <ele>217</ele>
        <time>2021-08-30T08:28:30Z</time>
      </trkpt>
      <trkpt lat="44.64519" lon="2.50315">
        <ele>217</ele>
        <time>2021-08-30T08:28:35Z</time>
      </trkpt>
      <trkpt lat="44.64469" lon="2.50274">
        <ele>216</ele>
        <time>2021-08-30T08:28:46Z</time>
      </trkpt>
      <trkpt lat="44.64464" lon="2.50271">
        <ele>215</ele>
        <time>2021-08-30T08:28:47Z</time>
      </trkpt>
      <trkpt lat="44.64455" lon="2.50266">
        <ele>215</ele>
        <time>2021-08-30T08:28:49Z</time>
      </trkpt>
      <trkpt lat="44.64409" lon="2.50248">
        <ele>214</ele>
        <time>2021-08-30T08:28:58Z</time>
      </trkpt>
      <trkpt lat="44.64389" lon="2.50218">
        <ele>213</ele>
        <time>2021-08-30T08:29:03Z</time>
      </trkpt>
      <trkpt lat="44.64378" lon="2.50192">
        <ele>213</ele>
        <time>2021-08-30T08:29:06Z</time>
      </trkpt>
      <trkpt lat="44.64373" lon="2.50173">
        <ele>213</ele>
        <time>2021-08-30T08:29:08Z</time>
      </trkpt>
      <trkpt lat="44.6437" lon="2.50141">
        <ele>215</ele>
        <time>2021-08-30T08:29:11Z</time>
      </trkpt>
      <trkpt lat="44.64376" lon="2.50069">
        <ele>215</ele>
        <time>2021-08-30T08:29:19Z</time>
      </trkpt>
      <trkpt lat="44.6439" lon="2.50024">
        <ele>216</ele>
        <time>2021-08-30T08:29:24Z</time>
      </trkpt>
      <trkpt lat="44.64427" lon="2.49957">
        <ele>219</ele>
        <time>2021-08-30T08:29:34Z</time>
      </trkpt>
      <trkpt lat="44.64467" lon="2.49884">
        <ele>217</ele>
        <time>2021-08-30T08:29:46Z</time>
      </trkpt>
      <trkpt lat="44.64469" lon="2.49878">
        <ele>217</ele>
        <time>2021-08-30T08:29:47Z</time>
      </trkpt>
      <trkpt lat="44.64475" lon="2.49864">
        <ele>215</ele>
        <time>2021-08-30T08:29:49Z</time>
      </trkpt>
      <trkpt lat="44.64479" lon="2.49853">
        <ele>214</ele>
        <time>2021-08-30T08:29:51Z</time>
      </trkpt>
      <trkpt lat="44.64504" lon="2.49803">
        <ele>212</ele>
        <time>2021-08-30T08:29:59Z</time>
      </trkpt>
      <trkpt lat="44.64508" lon="2.49792">
        <ele>213</ele>
        <time>2021-08-30T08:30:01Z</time>
      </trkpt>
      <trkpt lat="44.64549" lon="2.49698">
        <ele>212</ele>
        <time>2021-08-30T08:30:15Z</time>
      </trkpt>
      <trkpt lat="44.64558" lon="2.49645">
        <ele>213</ele>
        <time>2021-08-30T08:30:22Z</time>
      </trkpt>
      <trkpt lat="44.64556" lon="2.4946">
        <ele>212</ele>
        <time>2021-08-30T08:30:47Z</time>
      </trkpt>
      <trkpt lat="44.64551" lon="2.49435">
        <ele>212</ele>
        <time>2021-08-30T08:30:51Z</time>
      </trkpt>
      <trkpt lat="44.6455" lon="2.49428">
        <ele>212</ele>
        <time>2021-08-30T08:30:52Z</time>
      </trkpt>
      <trkpt lat="44.64544" lon="2.49416">
        <ele>211</ele>
        <time>2021-08-30T08:30:54Z</time>
      </trkpt>
      <trkpt lat="44.6454" lon="2.49404">
        <ele>212</ele>
        <time>2021-08-30T08:30:56Z</time>
      </trkpt>
      <trkpt lat="44.64534" lon="2.49328">
        <ele>216</ele>
        <time>2021-08-30T08:31:08Z</time>
      </trkpt>
      <trkpt lat="44.64533" lon="2.49319">
        <ele>215</ele>
        <time>2021-08-30T08:31:10Z</time>
      </trkpt>
      <trkpt lat="44.64529" lon="2.49309">
        <ele>215</ele>
        <time>2021-08-30T08:31:12Z</time>
      </trkpt>
      <trkpt lat="44.64525" lon="2.49297">
        <ele>215</ele>
        <time>2021-08-30T08:31:14Z</time>
      </trkpt>
      <trkpt lat="44.64516" lon="2.49239">
        <ele>216</ele>
        <time>2021-08-30T08:31:23Z</time>
      </trkpt>
      <trkpt lat="44.64513" lon="2.49224">
        <ele>216</ele>
        <time>2021-08-30T08:31:25Z</time>
      </trkpt>
      <trkpt lat="44.64512" lon="2.49194">
        <ele>216</ele>
        <time>2021-08-30T08:31:29Z</time>
      </trkpt>
      <trkpt lat="44.64503" lon="2.49135">
        <ele>218</ele>
        <time>2021-08-30T08:31:38Z</time>
      </trkpt>
      <trkpt lat="44.64493" lon="2.4911">
        <ele>219</ele>
        <time>2021-08-30T08:31:42Z</time>
      </trkpt>
      <trkpt lat="44.64478" lon="2.49078">
        <ele>223</ele>
        <time>2021-08-30T08:31:47Z</time>
      </trkpt>
      <trkpt lat="44.64456" lon="2.48951">
        <ele>233</ele>
        <time>2021-08-30T08:32:06Z</time>
      </trkpt>
      <trkpt lat="44.64432" lon="2.48898">
        <ele>238</ele>
        <time>2021-08-30T08:32:14Z</time>
      </trkpt>
      <trkpt lat="44.6442" lon="2.48886">
        <ele>241</ele>
        <time>2021-08-30T08:32:18Z</time>
      </trkpt>
      <trkpt lat="44.64412" lon="2.48883">
        <ele>242</ele>
        <time>2021-08-30T08:32:20Z</time>
      </trkpt>
      <trkpt lat="44.64392" lon="2.48863">
        <ele>244</ele>
        <time>2021-08-30T08:32:25Z</time>
      </trkpt>
      <trkpt lat="44.64384" lon="2.48854">
        <ele>247</ele>
        <time>2021-08-30T08:32:27Z</time>
      </trkpt>
      <trkpt lat="44.64352" lon="2.4882">
        <ele>255</ele>
        <time>2021-08-30T08:32:35Z</time>
      </trkpt>
      <trkpt lat="44.64336" lon="2.4881">
        <ele>252</ele>
        <time>2021-08-30T08:32:39Z</time>
      </trkpt>
      <trkpt lat="44.64323" lon="2.488">
        <ele>250</ele>
        <time>2021-08-30T08:32:42Z</time>
      </trkpt>
      <trkpt lat="44.64306" lon="2.4877">
        <ele>251</ele>
        <time>2021-08-30T08:32:47Z</time>
      </trkpt>
      <trkpt lat="44.64261" lon="2.48711">
        <ele>256</ele>
        <time>2021-08-30T08:33:00Z</time>
      </trkpt>
      <trkpt lat="44.64251" lon="2.48683">
        <ele>257</ele>
        <time>2021-08-30T08:33:04Z</time>
      </trkpt>
      <trkpt lat="44.64249" lon="2.48677">
        <ele>257</ele>
        <time>2021-08-30T08:33:05Z</time>
      </trkpt>
      <trkpt lat="44.64245" lon="2.48673">
        <ele>257</ele>
        <time>2021-08-30T08:33:06Z</time>
      </trkpt>
      <trkpt lat="44.64228" lon="2.48645">
        <ele>256</ele>
        <time>2021-08-30T08:33:11Z</time>
      </trkpt>
      <trkpt lat="44.64217" lon="2.48628">
        <ele>257</ele>
        <time>2021-08-30T08:33:14Z</time>
      </trkpt>
      <trkpt lat="44.642" lon="2.4857">
        <ele>255</ele>
        <time>2021-08-30T08:33:22Z</time>
      </trkpt>
      <trkpt lat="44.64197" lon="2.4856">
        <ele>252</ele>
        <time>2021-08-30T08:33:24Z</time>
      </trkpt>
      <trkpt lat="44.64187" lon="2.48541">
        <ele>250</ele>
        <time>2021-08-30T08:33:28Z</time>
      </trkpt>
      <trkpt lat="44.64185" lon="2.48533">
        <ele>249</ele>
        <time>2021-08-30T08:33:29Z</time>
      </trkpt>
      <trkpt lat="44.64183" lon="2.48476">
        <ele>241</ele>
        <time>2021-08-30T08:33:37Z</time>
      </trkpt>
      <trkpt lat="44.64182" lon="2.48464">
        <ele>240</ele>
        <time>2021-08-30T08:33:39Z</time>
      </trkpt>
      <trkpt lat="44.64202" lon="2.48272">
        <ele>220</ele>
        <time>2021-08-30T08:34:08Z</time>
      </trkpt>
      <trkpt lat="44.64204" lon="2.48251">
        <ele>219</ele>
        <time>2021-08-30T08:34:11Z</time>
      </trkpt>
      <trkpt lat="44.64203" lon="2.48244">
        <ele>219</ele>
        <time>2021-08-30T08:34:12Z</time>
      </trkpt>
      <trkpt lat="44.64203" lon="2.48238">
        <ele>218</ele>
        <time>2021-08-30T08:34:13Z</time>
      </trkpt>
      <trkpt lat="44.64203" lon="2.48221">
        <ele>216</ele>
        <time>2021-08-30T08:34:16Z</time>
      </trkpt>
      <trkpt lat="44.64197" lon="2.48185">
        <ele>212</ele>
        <time>2021-08-30T08:34:21Z</time>
      </trkpt>
      <trkpt lat="44.64188" lon="2.48156">
        <ele>213</ele>
        <time>2021-08-30T08:34:25Z</time>
      </trkpt>
      <trkpt lat="44.64186" lon="2.48116">
        <ele>210</ele>
        <time>2021-08-30T08:34:30Z</time>
      </trkpt>
      <trkpt lat="44.64187" lon="2.48099">
        <ele>212</ele>
        <time>2021-08-30T08:34:32Z</time>
      </trkpt>
      <trkpt lat="44.64187" lon="2.48092">
        <ele>212</ele>
        <time>2021-08-30T08:34:33Z</time>
      </trkpt>
      <trkpt lat="44.64183" lon="2.47873">
        <ele>212</ele>
        <time>2021-08-30T08:35:03Z</time>
      </trkpt>
      <trkpt lat="44.64184" lon="2.47801">
        <ele>209</ele>
        <time>2021-08-30T08:35:13Z</time>
      </trkpt>
      <trkpt lat="44.64152" lon="2.4763">
        <ele>209</ele>
        <time>2021-08-30T08:35:37Z</time>
      </trkpt>
      <trkpt lat="44.64149" lon="2.4753">
        <ele>211</ele>
        <time>2021-08-30T08:35:50Z</time>
      </trkpt>
      <trkpt lat="44.64164" lon="2.47456">
        <ele>213</ele>
        <time>2021-08-30T08:36:00Z</time>
      </trkpt>
      <trkpt lat="44.64224" lon="2.4729">
        <ele>208</ele>
        <time>2021-08-30T08:36:24Z</time>
      </trkpt>
      <trkpt lat="44.64225" lon="2.47255">
        <ele>208</ele>
        <time>2021-08-30T08:36:29Z</time>
      </trkpt>
      <trkpt lat="44.64235" lon="2.47073">
        <ele>203</ele>
        <time>2021-08-30T08:36:54Z</time>
      </trkpt>
      <trkpt lat="44.6424" lon="2.47052">
        <ele>203</ele>
        <time>2021-08-30T08:36:57Z</time>
      </trkpt>
      <trkpt lat="44.64241" lon="2.47037">
        <ele>203</ele>
        <time>2021-08-30T08:36:59Z</time>
      </trkpt>
      <trkpt lat="44.64246" lon="2.47005">
        <ele>202</ele>
        <time>2021-08-30T08:37:04Z</time>
      </trkpt>
      <trkpt lat="44.64261" lon="2.4697">
        <ele>200</ele>
        <time>2021-08-30T08:37:10Z</time>
      </trkpt>
      <trkpt lat="44.64345" lon="2.46777">
        <ele>207</ele>
        <time>2021-08-30T08:37:41Z</time>
      </trkpt>
      <trkpt lat="44.64365" lon="2.4673">
        <ele>206</ele>
        <time>2021-08-30T08:37:51Z</time>
      </trkpt>
      <trkpt lat="44.6437" lon="2.46719">
        <ele>204</ele>
        <time>2021-08-30T08:37:55Z</time>
      </trkpt>
      <trkpt lat="44.64372" lon="2.46713">
        <ele>204</ele>
        <time>2021-08-30T08:38:50Z</time>
      </trkpt>
      <trkpt lat="44.64378" lon="2.46709">
        <ele>204</ele>
        <time>2021-08-30T08:39:06Z</time>
      </trkpt>
      <trkpt lat="44.6438" lon="2.46698">
        <ele>205</ele>
        <time>2021-08-30T08:40:14Z</time>
      </trkpt>
      <trkpt lat="44.64383" lon="2.46687">
        <ele>205</ele>
        <time>2021-08-30T08:40:18Z</time>
      </trkpt>
      <trkpt lat="44.64383" lon="2.46675">
        <ele>206</ele>
        <time>2021-08-30T08:40:20Z</time>
      </trkpt>
      <trkpt lat="44.64385" lon="2.46663">
        <ele>206</ele>
        <time>2021-08-30T08:40:23Z</time>
      </trkpt>
      <trkpt lat="44.6439" lon="2.46651">
        <ele>206</ele>
        <time>2021-08-30T08:40:26Z</time>
      </trkpt>
      <trkpt lat="44.64394" lon="2.46638">
        <ele>206</ele>
        <time>2021-08-30T08:40:29Z</time>
      </trkpt>
      <trkpt lat="44.64398" lon="2.46624">
        <ele>207</ele>
        <time>2021-08-30T08:40:32Z</time>
      </trkpt>
      <trkpt lat="44.64401" lon="2.46616">
        <ele>207</ele>
        <time>2021-08-30T08:40:34Z</time>
      </trkpt>
      <trkpt lat="44.64432" lon="2.46543">
        <ele>205</ele>
        <time>2021-08-30T08:40:50Z</time>
      </trkpt>
      <trkpt lat="44.64454" lon="2.46495">
        <ele>205</ele>
        <time>2021-08-30T08:41:00Z</time>
      </trkpt>
      <trkpt lat="44.64471" lon="2.46471">
        <ele>205</ele>
        <time>2021-08-30T08:41:05Z</time>
      </trkpt>
      <trkpt lat="44.64479" lon="2.46462">
        <ele>206</ele>
        <time>2021-08-30T08:41:07Z</time>
      </trkpt>
      <trkpt lat="44.64485" lon="2.46452">
        <ele>206</ele>
        <time>2021-08-30T08:41:09Z</time>
      </trkpt>
      <trkpt lat="44.64494" lon="2.46425">
        <ele>207</ele>
        <time>2021-08-30T08:41:14Z</time>
      </trkpt>
      <trkpt lat="44.64502" lon="2.46406">
        <ele>208</ele>
        <time>2021-08-30T08:41:18Z</time>
      </trkpt>
      <trkpt lat="44.64509" lon="2.46378">
        <ele>208</ele>
        <time>2021-08-30T08:41:22Z</time>
      </trkpt>
      <trkpt lat="44.64517" lon="2.46359">
        <ele>208</ele>
        <time>2021-08-30T08:41:25Z</time>
      </trkpt>
      <trkpt lat="44.64525" lon="2.46334">
        <ele>208</ele>
        <time>2021-08-30T08:41:29Z</time>
      </trkpt>
      <trkpt lat="44.64527" lon="2.4632">
        <ele>210</ele>
        <time>2021-08-30T08:41:31Z</time>
      </trkpt>
      <trkpt lat="44.64536" lon="2.46268">
        <ele>212</ele>
        <time>2021-08-30T08:41:39Z</time>
      </trkpt>
      <trkpt lat="44.64544" lon="2.46236">
        <ele>210</ele>
        <time>2021-08-30T08:41:44Z</time>
      </trkpt>
      <trkpt lat="44.64544" lon="2.46226">
        <ele>211</ele>
        <time>2021-08-30T08:41:46Z</time>
      </trkpt>
      <trkpt lat="44.64542" lon="2.46219">
        <ele>211</ele>
        <time>2021-08-30T08:41:47Z</time>
      </trkpt>
      <trkpt lat="44.64544" lon="2.46207">
        <ele>211</ele>
        <time>2021-08-30T08:41:49Z</time>
      </trkpt>
      <trkpt lat="44.64547" lon="2.462">
        <ele>210</ele>
        <time>2021-08-30T08:41:50Z</time>
      </trkpt>
      <trkpt lat="44.64564" lon="2.46164">
        <ele>209</ele>
        <time>2021-08-30T08:41:55Z</time>
      </trkpt>
      <trkpt lat="44.64566" lon="2.46136">
        <ele>211</ele>
        <time>2021-08-30T08:41:59Z</time>
      </trkpt>
      <trkpt lat="44.64575" lon="2.4611">
        <ele>212</ele>
        <time>2021-08-30T08:42:03Z</time>
      </trkpt>
      <trkpt lat="44.64579" lon="2.4605">
        <ele>213</ele>
        <time>2021-08-30T08:42:11Z</time>
      </trkpt>
      <trkpt lat="44.64583" lon="2.45994">
        <ele>212</ele>
        <time>2021-08-30T08:42:19Z</time>
      </trkpt>
      <trkpt lat="44.64588" lon="2.45982">
        <ele>212</ele>
        <time>2021-08-30T08:42:21Z</time>
      </trkpt>
      <trkpt lat="44.646" lon="2.45945">
        <ele>211</ele>
        <time>2021-08-30T08:42:26Z</time>
      </trkpt>
      <trkpt lat="44.64607" lon="2.45923">
        <ele>210</ele>
        <time>2021-08-30T08:42:29Z</time>
      </trkpt>
      <trkpt lat="44.64613" lon="2.45883">
        <ele>210</ele>
        <time>2021-08-30T08:42:34Z</time>
      </trkpt>
      <trkpt lat="44.64623" lon="2.4583">
        <ele>211</ele>
        <time>2021-08-30T08:42:41Z</time>
      </trkpt>
      <trkpt lat="44.64629" lon="2.45812">
        <ele>211</ele>
        <time>2021-08-30T08:42:44Z</time>
      </trkpt>
      <trkpt lat="44.64635" lon="2.4579">
        <ele>213</ele>
        <time>2021-08-30T08:42:47Z</time>
      </trkpt>
      <trkpt lat="44.64636" lon="2.45782">
        <ele>213</ele>
        <time>2021-08-30T08:42:48Z</time>
      </trkpt>
      <trkpt lat="44.64665" lon="2.4569">
        <ele>207</ele>
        <time>2021-08-30T08:43:01Z</time>
      </trkpt>
      <trkpt lat="44.64668" lon="2.45681">
        <ele>207</ele>
        <time>2021-08-30T08:43:03Z</time>
      </trkpt>
      <trkpt lat="44.64673" lon="2.45671">
        <ele>206</ele>
        <time>2021-08-30T08:43:05Z</time>
      </trkpt>
      <trkpt lat="44.64703" lon="2.4559">
        <ele>205</ele>
        <time>2021-08-30T08:43:20Z</time>
      </trkpt>
      <trkpt lat="44.64744" lon="2.455">
        <ele>210</ele>
        <time>2021-08-30T08:43:36Z</time>
      </trkpt>
      <trkpt lat="44.6475" lon="2.45484">
        <ele>211</ele>
        <time>2021-08-30T08:43:40Z</time>
      </trkpt>
      <trkpt lat="44.64785" lon="2.45417">
        <ele>214</ele>
        <time>2021-08-30T08:43:52Z</time>
      </trkpt>
      <trkpt lat="44.64789" lon="2.45413">
        <ele>214</ele>
        <time>2021-08-30T08:43:53Z</time>
      </trkpt>
      <trkpt lat="44.64796" lon="2.45409">
        <ele>214</ele>
        <time>2021-08-30T08:43:55Z</time>
      </trkpt>
      <trkpt lat="44.64801" lon="2.45392">
        <ele>214</ele>
        <time>2021-08-30T08:43:59Z</time>
      </trkpt>
      <trkpt lat="44.64824" lon="2.45338">
        <ele>214</ele>
        <time>2021-08-30T08:44:11Z</time>
      </trkpt>
      <trkpt lat="44.64842" lon="2.45297">
        <ele>212</ele>
        <time>2021-08-30T08:44:19Z</time>
      </trkpt>
      <trkpt lat="44.64847" lon="2.4528">
        <ele>211</ele>
        <time>2021-08-30T08:44:22Z</time>
      </trkpt>
      <trkpt lat="44.64866" lon="2.45218">
        <ele>210</ele>
        <time>2021-08-30T08:44:33Z</time>
      </trkpt>
      <trkpt lat="44.64867" lon="2.45208">
        <ele>209</ele>
        <time>2021-08-30T08:44:35Z</time>
      </trkpt>
      <trkpt lat="44.64868" lon="2.45198">
        <ele>209</ele>
        <time>2021-08-30T08:44:37Z</time>
      </trkpt>
      <trkpt lat="44.64873" lon="2.45188">
        <ele>209</ele>
        <time>2021-08-30T08:44:39Z</time>
      </trkpt>
      <trkpt lat="44.64881" lon="2.45149">
        <ele>209</ele>
        <time>2021-08-30T08:44:45Z</time>
      </trkpt>
      <trkpt lat="44.64882" lon="2.45135">
        <ele>210</ele>
        <time>2021-08-30T08:44:47Z</time>
      </trkpt>
      <trkpt lat="44.64884" lon="2.45072">
        <ele>211</ele>
        <time>2021-08-30T08:44:56Z</time>
      </trkpt>
      <trkpt lat="44.64883" lon="2.4506">
        <ele>212</ele>
        <time>2021-08-30T08:44:58Z</time>
      </trkpt>
      <trkpt lat="44.64883" lon="2.45036">
        <ele>212</ele>
        <time>2021-08-30T08:45:02Z</time>
      </trkpt>
      <trkpt lat="44.64878" lon="2.45018">
        <ele>212</ele>
        <time>2021-08-30T08:45:05Z</time>
      </trkpt>
      <trkpt lat="44.64877" lon="2.45011">
        <ele>213</ele>
        <time>2021-08-30T08:45:06Z</time>
      </trkpt>
      <trkpt lat="44.64881" lon="2.44997">
        <ele>213</ele>
        <time>2021-08-30T08:45:08Z</time>
      </trkpt>
      <trkpt lat="44.64896" lon="2.4496">
        <ele>215</ele>
        <time>2021-08-30T08:45:13Z</time>
      </trkpt>
      <trkpt lat="44.64896" lon="2.44943">
        <ele>216</ele>
        <time>2021-08-30T08:45:16Z</time>
      </trkpt>
      <trkpt lat="44.649" lon="2.44916">
        <ele>215</ele>
        <time>2021-08-30T08:45:20Z</time>
      </trkpt>
      <trkpt lat="44.64902" lon="2.44874">
        <ele>212</ele>
        <time>2021-08-30T08:45:26Z</time>
      </trkpt>
      <trkpt lat="44.64883" lon="2.44772">
        <ele>215</ele>
        <time>2021-08-30T08:45:40Z</time>
      </trkpt>
      <trkpt lat="44.64882" lon="2.44742">
        <ele>214</ele>
        <time>2021-08-30T08:45:44Z</time>
      </trkpt>
      <trkpt lat="44.64841" lon="2.44586">
        <ele>220</ele>
        <time>2021-08-30T08:46:06Z</time>
      </trkpt>
      <trkpt lat="44.64803" lon="2.44538">
        <ele>222</ele>
        <time>2021-08-30T08:46:17Z</time>
      </trkpt>
      <trkpt lat="44.64796" lon="2.44535">
        <ele>222</ele>
        <time>2021-08-30T08:46:19Z</time>
      </trkpt>
      <trkpt lat="44.64784" lon="2.44525">
        <ele>221</ele>
        <time>2021-08-30T08:46:22Z</time>
      </trkpt>
      <trkpt lat="44.64778" lon="2.44521">
        <ele>220</ele>
        <time>2021-08-30T08:46:23Z</time>
      </trkpt>
      <trkpt lat="44.64774" lon="2.44519">
        <ele>218</ele>
        <time>2021-08-30T08:46:24Z</time>
      </trkpt>
      <trkpt lat="44.64762" lon="2.44504">
        <ele>216</ele>
        <time>2021-08-30T08:46:27Z</time>
      </trkpt>
      <trkpt lat="44.64753" lon="2.44489">
        <ele>215</ele>
        <time>2021-08-30T08:46:31Z</time>
      </trkpt>
      <trkpt lat="44.64724" lon="2.44469">
        <ele>216</ele>
        <time>2021-08-30T08:46:37Z</time>
      </trkpt>
      <trkpt lat="44.64701" lon="2.44443">
        <ele>219</ele>
        <time>2021-08-30T08:46:45Z</time>
      </trkpt>
      <trkpt lat="44.64686" lon="2.44434">
        <ele>220</ele>
        <time>2021-08-30T08:46:49Z</time>
      </trkpt>
      <trkpt lat="44.64654" lon="2.44427">
        <ele>219</ele>
        <time>2021-08-30T08:46:55Z</time>
      </trkpt>
      <trkpt lat="44.64647" lon="2.44423">
        <ele>218</ele>
        <time>2021-08-30T08:46:57Z</time>
      </trkpt>
      <trkpt lat="44.64583" lon="2.44431">
        <ele>221</ele>
        <time>2021-08-30T08:47:13Z</time>
      </trkpt>
      <trkpt lat="44.64562" lon="2.44446">
        <ele>223</ele>
        <time>2021-08-30T08:47:18Z</time>
      </trkpt>
      <trkpt lat="44.64537" lon="2.44449">
        <ele>221</ele>
        <time>2021-08-30T08:47:23Z</time>
      </trkpt>
      <trkpt lat="44.64513" lon="2.44455">
        <ele>216</ele>
        <time>2021-08-30T08:47:28Z</time>
      </trkpt>
      <trkpt lat="44.64504" lon="2.44455">
        <ele>216</ele>
        <time>2021-08-30T08:47:30Z</time>
      </trkpt>
      <trkpt lat="44.64485" lon="2.44439">
        <ele>215</ele>
        <time>2021-08-30T08:47:35Z</time>
      </trkpt>
      <trkpt lat="44.64454" lon="2.44421">
        <ele>212</ele>
        <time>2021-08-30T08:47:42Z</time>
      </trkpt>
      <trkpt lat="44.64396" lon="2.44375">
        <ele>211</ele>
        <time>2021-08-30T08:47:55Z</time>
      </trkpt>
      <trkpt lat="44.64302" lon="2.4421">
        <ele>227</ele>
        <time>2021-08-30T08:48:23Z</time>
      </trkpt>
      <trkpt lat="44.64218" lon="2.4409">
        <ele>235</ele>
        <time>2021-08-30T08:48:46Z</time>
      </trkpt>
      <trkpt lat="44.64185" lon="2.44018">
        <ele>236</ele>
        <time>2021-08-30T08:48:58Z</time>
      </trkpt>
      <trkpt lat="44.64155" lon="2.43936">
        <ele>235</ele>
        <time>2021-08-30T08:49:11Z</time>
      </trkpt>
      <trkpt lat="44.64148" lon="2.43921">
        <ele>235</ele>
        <time>2021-08-30T08:49:14Z</time>
      </trkpt>
      <trkpt lat="44.64139" lon="2.43885">
        <ele>233</ele>
        <time>2021-08-30T08:49:20Z</time>
      </trkpt>
      <trkpt lat="44.64137" lon="2.43879">
        <ele>232</ele>
        <time>2021-08-30T08:49:21Z</time>
      </trkpt>
      <trkpt lat="44.64134" lon="2.43871">
        <ele>231</ele>
        <time>2021-08-30T08:49:23Z</time>
      </trkpt>
      <trkpt lat="44.64132" lon="2.43864">
        <ele>231</ele>
        <time>2021-08-30T08:49:24Z</time>
      </trkpt>
      <trkpt lat="44.64128" lon="2.43857">
        <ele>230</ele>
        <time>2021-08-30T08:49:25Z</time>
      </trkpt>
      <trkpt lat="44.64091" lon="2.43807">
        <ele>230</ele>
        <time>2021-08-30T08:49:34Z</time>
      </trkpt>
      <trkpt lat="44.64086" lon="2.43803">
        <ele>230</ele>
        <time>2021-08-30T08:49:35Z</time>
      </trkpt>
      <trkpt lat="44.64081" lon="2.43799">
        <ele>230</ele>
        <time>2021-08-30T08:49:36Z</time>
      </trkpt>
      <trkpt lat="44.64065" lon="2.43769">
        <ele>227</ele>
        <time>2021-08-30T08:49:41Z</time>
      </trkpt>
      <trkpt lat="44.64014" lon="2.43716">
        <ele>224</ele>
        <time>2021-08-30T08:49:54Z</time>
      </trkpt>
      <trkpt lat="44.64002" lon="2.43688">
        <ele>223</ele>
        <time>2021-08-30T08:49:59Z</time>
      </trkpt>
      <trkpt lat="44.64001" lon="2.43681">
        <ele>223</ele>
        <time>2021-08-30T08:50:00Z</time>
      </trkpt>
      <trkpt lat="44.64002" lon="2.43669">
        <ele>223</ele>
        <time>2021-08-30T08:50:02Z</time>
      </trkpt>
      <trkpt lat="44.64002" lon="2.43658">
        <ele>221</ele>
        <time>2021-08-30T08:50:04Z</time>
      </trkpt>
      <trkpt lat="44.63991" lon="2.43635">
        <ele>219</ele>
        <time>2021-08-30T08:50:08Z</time>
      </trkpt>
      <trkpt lat="44.63995" lon="2.43426">
        <ele>204</ele>
        <time>2021-08-30T08:50:38Z</time>
      </trkpt>
      <trkpt lat="44.63999" lon="2.43384">
        <ele>203</ele>
        <time>2021-08-30T08:50:44Z</time>
      </trkpt>
      <trkpt lat="44.64025" lon="2.4329">
        <ele>205</ele>
        <time>2021-08-30T08:50:58Z</time>
      </trkpt>
      <trkpt lat="44.64122" lon="2.43129">
        <ele>208</ele>
        <time>2021-08-30T08:51:29Z</time>
      </trkpt>
      <trkpt lat="44.64187" lon="2.43037">
        <ele>209</ele>
        <time>2021-08-30T08:51:46Z</time>
      </trkpt>
      <trkpt lat="44.64268" lon="2.42949">
        <ele>207</ele>
        <time>2021-08-30T08:52:07Z</time>
      </trkpt>
      <trkpt lat="44.64273" lon="2.42942">
        <ele>207</ele>
        <time>2021-08-30T08:52:09Z</time>
      </trkpt>
      <trkpt lat="44.64306" lon="2.42907">
        <ele>205</ele>
        <time>2021-08-30T08:52:17Z</time>
      </trkpt>
      <trkpt lat="44.64323" lon="2.42888">
        <ele>205</ele>
        <time>2021-08-30T08:52:22Z</time>
      </trkpt>
      <trkpt lat="44.64327" lon="2.42882">
        <ele>205</ele>
        <time>2021-08-30T08:52:24Z</time>
      </trkpt>
      <trkpt lat="44.64356" lon="2.42845">
        <ele>204</ele>
        <time>2021-08-30T08:52:33Z</time>
      </trkpt>
      <trkpt lat="44.64415" lon="2.42706">
        <ele>198</ele>
        <time>2021-08-30T08:52:57Z</time>
      </trkpt>
      <trkpt lat="44.64418" lon="2.42696">
        <ele>195</ele>
        <time>2021-08-30T08:52:59Z</time>
      </trkpt>
      <trkpt lat="44.64422" lon="2.42687">
        <ele>195</ele>
        <time>2021-08-30T08:53:01Z</time>
      </trkpt>
      <trkpt lat="44.64425" lon="2.42673">
        <ele>194</ele>
        <time>2021-08-30T08:53:04Z</time>
      </trkpt>
      <trkpt lat="44.64426" lon="2.42659">
        <ele>195</ele>
        <time>2021-08-30T08:53:06Z</time>
      </trkpt>
      <trkpt lat="44.64432" lon="2.42632">
        <ele>196</ele>
        <time>2021-08-30T08:53:10Z</time>
      </trkpt>
      <trkpt lat="44.64434" lon="2.42626">
        <ele>196</ele>
        <time>2021-08-30T08:53:11Z</time>
      </trkpt>
      <trkpt lat="44.64437" lon="2.4262">
        <ele>195</ele>
        <time>2021-08-30T08:53:12Z</time>
      </trkpt>
      <trkpt lat="44.64446" lon="2.42584">
        <ele>194</ele>
        <time>2021-08-30T08:53:17Z</time>
      </trkpt>
      <trkpt lat="44.64447" lon="2.42577">
        <ele>194</ele>
        <time>2021-08-30T08:53:18Z</time>
      </trkpt>
      <trkpt lat="44.64449" lon="2.42564">
        <ele>194</ele>
        <time>2021-08-30T08:53:20Z</time>
      </trkpt>
      <trkpt lat="44.64451" lon="2.42551">
        <ele>194</ele>
        <time>2021-08-30T08:53:22Z</time>
      </trkpt>
      <trkpt lat="44.64452" lon="2.42538">
        <ele>193</ele>
        <time>2021-08-30T08:53:24Z</time>
      </trkpt>
      <trkpt lat="44.64456" lon="2.42526">
        <ele>189</ele>
        <time>2021-08-30T08:53:26Z</time>
      </trkpt>
      <trkpt lat="44.64456" lon="2.4251">
        <ele>188</ele>
        <time>2021-08-30T08:53:28Z</time>
      </trkpt>
      <trkpt lat="44.64458" lon="2.42497">
        <ele>184</ele>
        <time>2021-08-30T08:53:30Z</time>
      </trkpt>
      <trkpt lat="44.64466" lon="2.4246">
        <ele>183</ele>
        <time>2021-08-30T08:53:36Z</time>
      </trkpt>
      <trkpt lat="44.64469" lon="2.42449">
        <ele>180</ele>
        <time>2021-08-30T08:53:38Z</time>
      </trkpt>
      <trkpt lat="44.64468" lon="2.42436">
        <ele>179</ele>
        <time>2021-08-30T08:53:40Z</time>
      </trkpt>
      <trkpt lat="44.64471" lon="2.42396">
        <ele>179</ele>
        <time>2021-08-30T08:53:46Z</time>
      </trkpt>
      <trkpt lat="44.64478" lon="2.4235">
        <ele>179</ele>
        <time>2021-08-30T08:53:54Z</time>
      </trkpt>
      <trkpt lat="44.64476" lon="2.42337">
        <ele>179</ele>
        <time>2021-08-30T08:53:56Z</time>
      </trkpt>
      <trkpt lat="44.6447" lon="2.42307">
        <ele>183</ele>
        <time>2021-08-30T08:54:00Z</time>
      </trkpt>
      <trkpt lat="44.64468" lon="2.42294">
        <ele>186</ele>
        <time>2021-08-30T08:54:02Z</time>
      </trkpt>
      <trkpt lat="44.64464" lon="2.42285">
        <ele>188</ele>
        <time>2021-08-30T08:54:04Z</time>
      </trkpt>
      <trkpt lat="44.64458" lon="2.42277">
        <ele>190</ele>
        <time>2021-08-30T08:54:07Z</time>
      </trkpt>
      <trkpt lat="44.64453" lon="2.42273">
        <ele>193</ele>
        <time>2021-08-30T08:54:09Z</time>
      </trkpt>
      <trkpt lat="44.64446" lon="2.42267">
        <ele>196</ele>
        <time>2021-08-30T08:54:11Z</time>
      </trkpt>
      <trkpt lat="44.6444" lon="2.42253">
        <ele>202</ele>
        <time>2021-08-30T08:54:15Z</time>
      </trkpt>
      <trkpt lat="44.64432" lon="2.42211">
        <ele>208</ele>
        <time>2021-08-30T08:54:25Z</time>
      </trkpt>
      <trkpt lat="44.64429" lon="2.42201">
        <ele>208</ele>
        <time>2021-08-30T08:54:27Z</time>
      </trkpt>
      <trkpt lat="44.64426" lon="2.42192">
        <ele>207</ele>
        <time>2021-08-30T08:54:29Z</time>
      </trkpt>
      <trkpt lat="44.64424" lon="2.4217">
        <ele>205</ele>
        <time>2021-08-30T08:54:33Z</time>
      </trkpt>
      <trkpt lat="44.64422" lon="2.42035">
        <ele>197</ele>
        <time>2021-08-30T08:54:54Z</time>
      </trkpt>
      <trkpt lat="44.64423" lon="2.42023">
        <ele>198</ele>
        <time>2021-08-30T08:54:56Z</time>
      </trkpt>
      <trkpt lat="44.64424" lon="2.42005">
        <ele>199</ele>
        <time>2021-08-30T08:55:00Z</time>
      </trkpt>
      <trkpt lat="44.64438" lon="2.41964">
        <ele>199</ele>
        <time>2021-08-30T08:55:10Z</time>
      </trkpt>
      <trkpt lat="44.64452" lon="2.41938">
        <ele>199</ele>
        <time>2021-08-30T08:55:19Z</time>
      </trkpt>
      <trkpt lat="44.64457" lon="2.41932">
        <ele>203</ele>
        <time>2021-08-30T08:55:24Z</time>
      </trkpt>
      <trkpt lat="44.64458" lon="2.41923">
        <ele>204</ele>
        <time>2021-08-30T08:55:28Z</time>
      </trkpt>
      <trkpt lat="44.64475" lon="2.41895">
        <ele>205</ele>
        <time>2021-08-30T08:55:41Z</time>
      </trkpt>
      <trkpt lat="44.64473" lon="2.41879">
        <ele>205</ele>
        <time>2021-08-30T08:55:47Z</time>
      </trkpt>
      <trkpt lat="44.64472" lon="2.41863">
        <ele>205</ele>
        <time>2021-08-30T08:55:55Z</time>
      </trkpt>
      <trkpt lat="44.64476" lon="2.41859">
        <ele>205</ele>
        <time>2021-08-30T08:56:39Z</time>
      </trkpt>
      <trkpt lat="44.64481" lon="2.41861">
        <ele>205</ele>
        <time>2021-08-30T08:56:43Z</time>
      </trkpt>
      <trkpt lat="44.64475" lon="2.41873">
        <ele>205</ele>
        <time>2021-08-30T08:56:47Z</time>
      </trkpt>
      <trkpt lat="44.6447" lon="2.41874">
        <ele>205</ele>
        <time>2021-08-30T08:56:49Z</time>
      </trkpt>
      <trkpt lat="44.64454" lon="2.41868">
        <ele>206</ele>
        <time>2021-08-30T08:56:52Z</time>
      </trkpt>
      <trkpt lat="44.64446" lon="2.4187">
        <ele>206</ele>
        <time>2021-08-30T08:56:54Z</time>
      </trkpt>
      <trkpt lat="44.6444" lon="2.41872">
        <ele>207</ele>
        <time>2021-08-30T08:56:55Z</time>
      </trkpt>
      <trkpt lat="44.64435" lon="2.41872">
        <ele>207</ele>
        <time>2021-08-30T08:56:56Z</time>
      </trkpt>
      <trkpt lat="44.64431" lon="2.4187">
        <ele>207</ele>
        <time>2021-08-30T08:56:57Z</time>
      </trkpt>
      <trkpt lat="44.64424" lon="2.41866">
        <ele>207</ele>
        <time>2021-08-30T08:56:59Z</time>
      </trkpt>
      <trkpt lat="44.64418" lon="2.41864">
        <ele>207</ele>
        <time>2021-08-30T08:57:01Z</time>
      </trkpt>
      <trkpt lat="44.64412" lon="2.41864">
        <ele>206</ele>
        <time>2021-08-30T08:57:03Z</time>
      </trkpt>
      <trkpt lat="44.64417" lon="2.41866">
        <ele>206</ele>
        <time>2021-08-30T09:02:47Z</time>
      </trkpt>
      <trkpt lat="44.64423" lon="2.41869">
        <ele>206</ele>
        <time>2021-08-30T09:02:50Z</time>
      </trkpt>
      <trkpt lat="44.64455" lon="2.41859">
        <ele>206</ele>
        <time>2021-08-30T09:02:59Z</time>
      </trkpt>
      <trkpt lat="44.64461" lon="2.4186">
        <ele>206</ele>
        <time>2021-08-30T09:03:01Z</time>
      </trkpt>
      <trkpt lat="44.64467" lon="2.41865">
        <ele>206</ele>
        <time>2021-08-30T09:03:04Z</time>
      </trkpt>
      <trkpt lat="44.64479" lon="2.41861">
        <ele>208</ele>
        <time>2021-08-30T09:03:10Z</time>
      </trkpt>
      <trkpt lat="44.64483" lon="2.41856">
        <ele>208</ele>
        <time>2021-08-30T09:03:15Z</time>
      </trkpt>
      <trkpt lat="44.64483" lon="2.41848">
        <ele>209</ele>
        <time>2021-08-30T09:03:18Z</time>
      </trkpt>
      <trkpt lat="44.64483" lon="2.4183">
        <ele>208</ele>
        <time>2021-08-30T09:03:22Z</time>
      </trkpt>
      <trkpt lat="44.64488" lon="2.41815">
        <ele>209</ele>
        <time>2021-08-30T09:03:26Z</time>
      </trkpt>
      <trkpt lat="44.64491" lon="2.41807">
        <ele>209</ele>
        <time>2021-08-30T09:03:28Z</time>
      </trkpt>
      <trkpt lat="44.64499" lon="2.41789">
        <ele>209</ele>
        <time>2021-08-30T09:03:32Z</time>
      </trkpt>
      <trkpt lat="44.64505" lon="2.41764">
        <ele>210</ele>
        <time>2021-08-30T09:03:38Z</time>
      </trkpt>
      <trkpt lat="44.64506" lon="2.41754">
        <ele>210</ele>
        <time>2021-08-30T09:03:40Z</time>
      </trkpt>
      <trkpt lat="44.64529" lon="2.41675">
        <ele>210</ele>
        <time>2021-08-30T09:03:53Z</time>
      </trkpt>
      <trkpt lat="44.64539" lon="2.4161">
        <ele>209</ele>
        <time>2021-08-30T09:04:02Z</time>
      </trkpt>
      <trkpt lat="44.64537" lon="2.41591">
        <ele>209</ele>
        <time>2021-08-30T09:04:05Z</time>
      </trkpt>
      <trkpt lat="44.64534" lon="2.4158">
        <ele>208</ele>
        <time>2021-08-30T09:04:07Z</time>
      </trkpt>
      <trkpt lat="44.64529" lon="2.41572">
        <ele>207</ele>
        <time>2021-08-30T09:04:09Z</time>
      </trkpt>
      <trkpt lat="44.64491" lon="2.41505">
        <ele>201</ele>
        <time>2021-08-30T09:04:23Z</time>
      </trkpt>
      <trkpt lat="44.64488" lon="2.41493">
        <ele>201</ele>
        <time>2021-08-30T09:04:25Z</time>
      </trkpt>
      <trkpt lat="44.64489" lon="2.41474">
        <ele>201</ele>
        <time>2021-08-30T09:04:28Z</time>
      </trkpt>
      <trkpt lat="44.64498" lon="2.41435">
        <ele>198</ele>
        <time>2021-08-30T09:04:34Z</time>
      </trkpt>
      <trkpt lat="44.64514" lon="2.41402">
        <ele>196</ele>
        <time>2021-08-30T09:04:40Z</time>
      </trkpt>
      <trkpt lat="44.64562" lon="2.41325">
        <ele>195</ele>
        <time>2021-08-30T09:04:56Z</time>
      </trkpt>
      <trkpt lat="44.64598" lon="2.4122">
        <ele>198</ele>
        <time>2021-08-30T09:05:13Z</time>
      </trkpt>
      <trkpt lat="44.64605" lon="2.41202">
        <ele>200</ele>
        <time>2021-08-30T09:05:16Z</time>
      </trkpt>
      <trkpt lat="44.6461" lon="2.41169">
        <ele>204</ele>
        <time>2021-08-30T09:05:20Z</time>
      </trkpt>
      <trkpt lat="44.64611" lon="2.41095">
        <ele>206</ele>
        <time>2021-08-30T09:05:30Z</time>
      </trkpt>
      <trkpt lat="44.64615" lon="2.41083">
        <ele>205</ele>
        <time>2021-08-30T09:05:32Z</time>
      </trkpt>
      <trkpt lat="44.64626" lon="2.41061">
        <ele>205</ele>
        <time>2021-08-30T09:05:36Z</time>
      </trkpt>
      <trkpt lat="44.64658" lon="2.40968">
        <ele>201</ele>
        <time>2021-08-30T09:05:50Z</time>
      </trkpt>
      <trkpt lat="44.64669" lon="2.40912">
        <ele>196</ele>
        <time>2021-08-30T09:05:58Z</time>
      </trkpt>
      <trkpt lat="44.64671" lon="2.40906">
        <ele>195</ele>
        <time>2021-08-30T09:05:59Z</time>
      </trkpt>
      <trkpt lat="44.64708" lon="2.40839">
        <ele>190</ele>
        <time>2021-08-30T09:06:10Z</time>
      </trkpt>
      <trkpt lat="44.64723" lon="2.40789">
        <ele>189</ele>
        <time>2021-08-30T09:06:19Z</time>
      </trkpt>
      <trkpt lat="44.64726" lon="2.40781">
        <ele>189</ele>
        <time>2021-08-30T09:06:20Z</time>
      </trkpt>
      <trkpt lat="44.64755" lon="2.4069">
        <ele>190</ele>
        <time>2021-08-30T09:06:34Z</time>
      </trkpt>
      <trkpt lat="44.64758" lon="2.40662">
        <ele>190</ele>
        <time>2021-08-30T09:06:38Z</time>
      </trkpt>
      <trkpt lat="44.64756" lon="2.40646">
        <ele>193</ele>
        <time>2021-08-30T09:06:42Z</time>
      </trkpt>
      <trkpt lat="44.64757" lon="2.40637">
        <ele>194</ele>
        <time>2021-08-30T09:06:45Z</time>
      </trkpt>
      <trkpt lat="44.6478" lon="2.40445">
        <ele>197</ele>
        <time>2021-08-30T09:07:16Z</time>
      </trkpt>
      <trkpt lat="44.64779" lon="2.4041">
        <ele>197</ele>
        <time>2021-08-30T09:07:21Z</time>
      </trkpt>
      <trkpt lat="44.6478" lon="2.40374">
        <ele>197</ele>
        <time>2021-08-30T09:07:25Z</time>
      </trkpt>
      <trkpt lat="44.64743" lon="2.40268">
        <ele>200</ele>
        <time>2021-08-30T09:07:41Z</time>
      </trkpt>
      <trkpt lat="44.64721" lon="2.40232">
        <ele>201</ele>
        <time>2021-08-30T09:07:47Z</time>
      </trkpt>
      <trkpt lat="44.6471" lon="2.40226">
        <ele>202</ele>
        <time>2021-08-30T09:07:49Z</time>
      </trkpt>
      <trkpt lat="44.647" lon="2.40217">
        <ele>203</ele>
        <time>2021-08-30T09:07:51Z</time>
      </trkpt>
      <trkpt lat="44.64689" lon="2.40208">
        <ele>203</ele>
        <time>2021-08-30T09:07:53Z</time>
      </trkpt>
      <trkpt lat="44.64675" lon="2.40191">
        <ele>201</ele>
        <time>2021-08-30T09:07:56Z</time>
      </trkpt>
      <trkpt lat="44.64668" lon="2.40173">
        <ele>201</ele>
        <time>2021-08-30T09:07:59Z</time>
      </trkpt>
      <trkpt lat="44.64665" lon="2.40167">
        <ele>201</ele>
        <time>2021-08-30T09:08:00Z</time>
      </trkpt>
      <trkpt lat="44.64646" lon="2.40123">
        <ele>200</ele>
        <time>2021-08-30T09:08:06Z</time>
      </trkpt>
      <trkpt lat="44.64641" lon="2.40116">
        <ele>201</ele>
        <time>2021-08-30T09:08:07Z</time>
      </trkpt>
      <trkpt lat="44.64635" lon="2.40104">
        <ele>202</ele>
        <time>2021-08-30T09:08:09Z</time>
      </trkpt>
      <trkpt lat="44.64625" lon="2.40058">
        <ele>203</ele>
        <time>2021-08-30T09:08:15Z</time>
      </trkpt>
      <trkpt lat="44.64624" lon="2.40041">
        <ele>203</ele>
        <time>2021-08-30T09:08:17Z</time>
      </trkpt>
      <trkpt lat="44.64608" lon="2.39996">
        <ele>202</ele>
        <time>2021-08-30T09:08:23Z</time>
      </trkpt>
      <trkpt lat="44.64613" lon="2.39949">
        <ele>203</ele>
        <time>2021-08-30T09:08:28Z</time>
      </trkpt>
      <trkpt lat="44.64623" lon="2.39899">
        <ele>202</ele>
        <time>2021-08-30T09:08:33Z</time>
      </trkpt>
      <trkpt lat="44.64631" lon="2.39883">
        <ele>202</ele>
        <time>2021-08-30T09:08:35Z</time>
      </trkpt>
      <trkpt lat="44.6467" lon="2.39826">
        <ele>202</ele>
        <time>2021-08-30T09:08:44Z</time>
      </trkpt>
      <trkpt lat="44.64687" lon="2.39775">
        <ele>203</ele>
        <time>2021-08-30T09:08:51Z</time>
      </trkpt>
      <trkpt lat="44.64696" lon="2.39688">
        <ele>209</ele>
        <time>2021-08-30T09:09:02Z</time>
      </trkpt>
      <trkpt lat="44.64697" lon="2.39646">
        <ele>211</ele>
        <time>2021-08-30T09:09:08Z</time>
      </trkpt>
      <trkpt lat="44.64683" lon="2.39606">
        <ele>215</ele>
        <time>2021-08-30T09:09:14Z</time>
      </trkpt>
      <trkpt lat="44.64672" lon="2.39556">
        <ele>218</ele>
        <time>2021-08-30T09:09:21Z</time>
      </trkpt>
      <trkpt lat="44.64671" lon="2.39548">
        <ele>219</ele>
        <time>2021-08-30T09:09:22Z</time>
      </trkpt>
      <trkpt lat="44.64665" lon="2.39528">
        <ele>219</ele>
        <time>2021-08-30T09:09:25Z</time>
      </trkpt>
      <trkpt lat="44.6466" lon="2.39519">
        <ele>220</ele>
        <time>2021-08-30T09:09:27Z</time>
      </trkpt>
      <trkpt lat="44.64654" lon="2.39509">
        <ele>220</ele>
        <time>2021-08-30T09:09:29Z</time>
      </trkpt>
      <trkpt lat="44.64652" lon="2.39491">
        <ele>220</ele>
        <time>2021-08-30T09:09:32Z</time>
      </trkpt>
      <trkpt lat="44.64647" lon="2.39478">
        <ele>220</ele>
        <time>2021-08-30T09:09:34Z</time>
      </trkpt>
      <trkpt lat="44.64638" lon="2.39465">
        <ele>220</ele>
        <time>2021-08-30T09:09:36Z</time>
      </trkpt>
      <trkpt lat="44.64623" lon="2.39408">
        <ele>221</ele>
        <time>2021-08-30T09:09:42Z</time>
      </trkpt>
      <trkpt lat="44.64607" lon="2.39391">
        <ele>221</ele>
        <time>2021-08-30T09:09:45Z</time>
      </trkpt>
      <trkpt lat="44.64585" lon="2.39361">
        <ele>218</ele>
        <time>2021-08-30T09:09:51Z</time>
      </trkpt>
      <trkpt lat="44.64543" lon="2.39285">
        <ele>214</ele>
        <time>2021-08-30T09:10:04Z</time>
      </trkpt>
      <trkpt lat="44.64495" lon="2.39229">
        <ele>215</ele>
        <time>2021-08-30T09:10:15Z</time>
      </trkpt>
      <trkpt lat="44.64488" lon="2.39217">
        <ele>213</ele>
        <time>2021-08-30T09:10:17Z</time>
      </trkpt>
      <trkpt lat="44.64469" lon="2.39192">
        <ele>211</ele>
        <time>2021-08-30T09:10:21Z</time>
      </trkpt>
      <trkpt lat="44.64463" lon="2.39176">
        <ele>211</ele>
        <time>2021-08-30T09:10:23Z</time>
      </trkpt>
      <trkpt lat="44.64453" lon="2.39138">
        <ele>212</ele>
        <time>2021-08-30T09:10:28Z</time>
      </trkpt>
      <trkpt lat="44.64445" lon="2.39109">
        <ele>210</ele>
        <time>2021-08-30T09:10:33Z</time>
      </trkpt>
      <trkpt lat="44.64441" lon="2.39103">
        <ele>210</ele>
        <time>2021-08-30T09:10:34Z</time>
      </trkpt>
      <trkpt lat="44.64438" lon="2.39096">
        <ele>210</ele>
        <time>2021-08-30T09:10:35Z</time>
      </trkpt>
      <trkpt lat="44.64434" lon="2.39089">
        <ele>209</ele>
        <time>2021-08-30T09:10:36Z</time>
      </trkpt>
      <trkpt lat="44.64432" lon="2.39082">
        <ele>209</ele>
        <time>2021-08-30T09:10:37Z</time>
      </trkpt>
      <trkpt lat="44.64431" lon="2.39074">
        <ele>209</ele>
        <time>2021-08-30T09:10:38Z</time>
      </trkpt>
      <trkpt lat="44.6443" lon="2.39065">
        <ele>209</ele>
        <time>2021-08-30T09:10:39Z</time>
      </trkpt>
      <trkpt lat="44.64426" lon="2.3903">
        <ele>209</ele>
        <time>2021-08-30T09:10:43Z</time>
      </trkpt>
      <trkpt lat="44.64429" lon="2.39011">
        <ele>210</ele>
        <time>2021-08-30T09:10:45Z</time>
      </trkpt>
      <trkpt lat="44.64453" lon="2.38911">
        <ele>217</ele>
        <time>2021-08-30T09:10:56Z</time>
      </trkpt>
      <trkpt lat="44.64456" lon="2.38903">
        <ele>217</ele>
        <time>2021-08-30T09:10:57Z</time>
      </trkpt>
      <trkpt lat="44.64486" lon="2.38856">
        <ele>214</ele>
        <time>2021-08-30T09:11:05Z</time>
      </trkpt>
      <trkpt lat="44.64496" lon="2.38844">
        <ele>213</ele>
        <time>2021-08-30T09:11:07Z</time>
      </trkpt>
      <trkpt lat="44.64549" lon="2.38819">
        <ele>210</ele>
        <time>2021-08-30T09:11:18Z</time>
      </trkpt>
      <trkpt lat="44.64584" lon="2.38834">
        <ele>209</ele>
        <time>2021-08-30T09:11:24Z</time>
      </trkpt>
      <trkpt lat="44.64606" lon="2.38847">
        <ele>209</ele>
        <time>2021-08-30T09:11:28Z</time>
      </trkpt>
      <trkpt lat="44.64654" lon="2.38894">
        <ele>214</ele>
        <time>2021-08-30T09:11:40Z</time>
      </trkpt>
      <trkpt lat="44.64678" lon="2.38927">
        <ele>214</ele>
        <time>2021-08-30T09:11:47Z</time>
      </trkpt>
      <trkpt lat="44.64716" lon="2.3895">
        <ele>215</ele>
        <time>2021-08-30T09:11:56Z</time>
      </trkpt>
      <trkpt lat="44.6473" lon="2.38949">
        <ele>218</ele>
        <time>2021-08-30T09:11:59Z</time>
      </trkpt>
      <trkpt lat="44.64739" lon="2.38948">
        <ele>220</ele>
        <time>2021-08-30T09:12:01Z</time>
      </trkpt>
      <trkpt lat="44.64744" lon="2.38948">
        <ele>221</ele>
        <time>2021-08-30T09:12:02Z</time>
      </trkpt>
      <trkpt lat="44.64757" lon="2.38947">
        <ele>224</ele>
        <time>2021-08-30T09:12:05Z</time>
      </trkpt>
      <trkpt lat="44.64766" lon="2.38946">
        <ele>226</ele>
        <time>2021-08-30T09:12:07Z</time>
      </trkpt>
      <trkpt lat="44.64782" lon="2.38948">
        <ele>230</ele>
        <time>2021-08-30T09:12:10Z</time>
      </trkpt>
      <trkpt lat="44.64791" lon="2.38945">
        <ele>230</ele>
        <time>2021-08-30T09:12:12Z</time>
      </trkpt>
      <trkpt lat="44.64819" lon="2.38946">
        <ele>231</ele>
        <time>2021-08-30T09:12:17Z</time>
      </trkpt>
      <trkpt lat="44.64883" lon="2.38952">
        <ele>231</ele>
        <time>2021-08-30T09:12:27Z</time>
      </trkpt>
      <trkpt lat="44.64939" lon="2.38929">
        <ele>224</ele>
        <time>2021-08-30T09:12:38Z</time>
      </trkpt>
      <trkpt lat="44.64997" lon="2.38878">
        <ele>220</ele>
        <time>2021-08-30T09:12:51Z</time>
      </trkpt>
      <trkpt lat="44.65009" lon="2.38854">
        <ele>218</ele>
        <time>2021-08-30T09:12:55Z</time>
      </trkpt>
      <trkpt lat="44.65018" lon="2.38818">
        <ele>216</ele>
        <time>2021-08-30T09:13:00Z</time>
      </trkpt>
      <trkpt lat="44.6502" lon="2.38777">
        <ele>216</ele>
        <time>2021-08-30T09:13:05Z</time>
      </trkpt>
      <trkpt lat="44.65017" lon="2.38765">
        <ele>215</ele>
        <time>2021-08-30T09:13:07Z</time>
      </trkpt>
      <trkpt lat="44.6501" lon="2.38756">
        <ele>213</ele>
        <time>2021-08-30T09:13:09Z</time>
      </trkpt>
      <trkpt lat="44.65006" lon="2.38749">
        <ele>209</ele>
        <time>2021-08-30T09:13:11Z</time>
      </trkpt>
      <trkpt lat="44.65006" lon="2.38738">
        <ele>201</ele>
        <time>2021-08-30T09:13:13Z</time>
      </trkpt>
      <trkpt lat="44.6501" lon="2.38727">
        <ele>197</ele>
        <time>2021-08-30T09:13:15Z</time>
      </trkpt>
      <trkpt lat="44.65007" lon="2.387">
        <ele>194</ele>
        <time>2021-08-30T09:13:19Z</time>
      </trkpt>
      <trkpt lat="44.65006" lon="2.38654">
        <ele>186</ele>
        <time>2021-08-30T09:13:25Z</time>
      </trkpt>
      <trkpt lat="44.6501" lon="2.38623">
        <ele>179</ele>
        <time>2021-08-30T09:13:29Z</time>
      </trkpt>
      <trkpt lat="44.65012" lon="2.38617">
        <ele>179</ele>
        <time>2021-08-30T09:13:30Z</time>
      </trkpt>
      <trkpt lat="44.65017" lon="2.38606">
        <ele>179</ele>
        <time>2021-08-30T09:13:32Z</time>
      </trkpt>
      <trkpt lat="44.65023" lon="2.38595">
        <ele>181</ele>
        <time>2021-08-30T09:13:34Z</time>
      </trkpt>
      <trkpt lat="44.65034" lon="2.38588">
        <ele>181</ele>
        <time>2021-08-30T09:13:36Z</time>
      </trkpt>
      <trkpt lat="44.65045" lon="2.38583">
        <ele>180</ele>
        <time>2021-08-30T09:13:38Z</time>
      </trkpt>
      <trkpt lat="44.65073" lon="2.3858">
        <ele>176</ele>
        <time>2021-08-30T09:13:41Z</time>
      </trkpt>
      <trkpt lat="44.65083" lon="2.38585">
        <ele>172</ele>
        <time>2021-08-30T09:13:43Z</time>
      </trkpt>
      <trkpt lat="44.65092" lon="2.38577">
        <ele>169</ele>
        <time>2021-08-30T09:13:46Z</time>
      </trkpt>
      <trkpt lat="44.65093" lon="2.38568">
        <ele>166</ele>
        <time>2021-08-30T09:13:48Z</time>
      </trkpt>
      <trkpt lat="44.65062" lon="2.38518">
        <ele>161</ele>
        <time>2021-08-30T09:14:00Z</time>
      </trkpt>
      <trkpt lat="44.65055" lon="2.3849">
        <ele>160</ele>
        <time>2021-08-30T09:14:06Z</time>
      </trkpt>
      <trkpt lat="44.65059" lon="2.3844">
        <ele>163</ele>
        <time>2021-08-30T09:14:18Z</time>
      </trkpt>
      <trkpt lat="44.65061" lon="2.38426">
        <ele>165</ele>
        <time>2021-08-30T09:14:22Z</time>
      </trkpt>
      <trkpt lat="44.65065" lon="2.38404">
        <ele>167</ele>
        <time>2021-08-30T09:14:28Z</time>
      </trkpt>
      <trkpt lat="44.65067" lon="2.38396">
        <ele>167</ele>
        <time>2021-08-30T09:14:30Z</time>
      </trkpt>
      <trkpt lat="44.65067" lon="2.38389">
        <ele>167</ele>
        <time>2021-08-30T09:14:32Z</time>
      </trkpt>
      <trkpt lat="44.65073" lon="2.38373">
        <ele>168</ele>
        <time>2021-08-30T09:14:36Z</time>
      </trkpt>
      <trkpt lat="44.65079" lon="2.38364">
        <ele>169</ele>
        <time>2021-08-30T09:14:38Z</time>
      </trkpt>
      <trkpt lat="44.651" lon="2.38332">
        <ele>170</ele>
        <time>2021-08-30T09:14:45Z</time>
      </trkpt>
      <trkpt lat="44.65109" lon="2.38313">
        <ele>172</ele>
        <time>2021-08-30T09:14:49Z</time>
      </trkpt>
      <trkpt lat="44.65114" lon="2.38304">
        <ele>173</ele>
        <time>2021-08-30T09:14:51Z</time>
      </trkpt>
      <trkpt lat="44.65117" lon="2.38296">
        <ele>174</ele>
        <time>2021-08-30T09:14:53Z</time>
      </trkpt>
      <trkpt lat="44.65126" lon="2.38283">
        <ele>175</ele>
        <time>2021-08-30T09:14:57Z</time>
      </trkpt>
      <trkpt lat="44.65132" lon="2.38277">
        <ele>175</ele>
        <time>2021-08-30T09:14:59Z</time>
      </trkpt>
      <trkpt lat="44.65162" lon="2.38232">
        <ele>184</ele>
        <time>2021-08-30T09:15:11Z</time>
      </trkpt>
      <trkpt lat="44.65178" lon="2.38193">
        <ele>184</ele>
        <time>2021-08-30T09:15:21Z</time>
      </trkpt>
      <trkpt lat="44.65184" lon="2.38148">
        <ele>183</ele>
        <time>2021-08-30T09:15:33Z</time>
      </trkpt>
      <trkpt lat="44.65185" lon="2.38142">
        <ele>183</ele>
        <time>2021-08-30T09:15:35Z</time>
      </trkpt>
      <trkpt lat="44.6519" lon="2.38107">
        <ele>185</ele>
        <time>2021-08-30T09:15:45Z</time>
      </trkpt>
      <trkpt lat="44.65192" lon="2.38099">
        <ele>185</ele>
        <time>2021-08-30T09:15:52Z</time>
      </trkpt>
      <trkpt lat="44.65194" lon="2.38093">
        <ele>185</ele>
        <time>2021-08-30T09:16:21Z</time>
      </trkpt>
      <trkpt lat="44.65194" lon="2.38085">
        <ele>184</ele>
        <time>2021-08-30T09:16:23Z</time>
      </trkpt>
      <trkpt lat="44.65194" lon="2.38077">
        <ele>185</ele>
        <time>2021-08-30T09:16:25Z</time>
      </trkpt>
      <trkpt lat="44.65193" lon="2.38067">
        <ele>185</ele>
        <time>2021-08-30T09:16:27Z</time>
      </trkpt>
      <trkpt lat="44.65192" lon="2.38061">
        <ele>185</ele>
        <time>2021-08-30T09:16:29Z</time>
      </trkpt>
      <trkpt lat="44.65191" lon="2.3805">
        <ele>186</ele>
        <time>2021-08-30T09:16:33Z</time>
      </trkpt>
      <trkpt lat="44.65184" lon="2.3799">
        <ele>185</ele>
        <time>2021-08-30T09:16:44Z</time>
      </trkpt>
      <trkpt lat="44.65169" lon="2.37955">
        <ele>186</ele>
        <time>2021-08-30T09:16:52Z</time>
      </trkpt>
      <trkpt lat="44.65166" lon="2.37944">
        <ele>187</ele>
        <time>2021-08-30T09:16:54Z</time>
      </trkpt>
      <trkpt lat="44.6514" lon="2.37896">
        <ele>191</ele>
        <time>2021-08-30T09:17:06Z</time>
      </trkpt>
      <trkpt lat="44.65109" lon="2.37848">
        <ele>196</ele>
        <time>2021-08-30T09:17:16Z</time>
      </trkpt>
      <trkpt lat="44.65102" lon="2.37843">
        <ele>197</ele>
        <time>2021-08-30T09:17:17Z</time>
      </trkpt>
      <trkpt lat="44.65092" lon="2.37833">
        <ele>198</ele>
        <time>2021-08-30T09:17:19Z</time>
      </trkpt>
      <trkpt lat="44.6505" lon="2.37794">
        <ele>200</ele>
        <time>2021-08-30T09:17:28Z</time>
      </trkpt>
      <trkpt lat="44.65037" lon="2.37778">
        <ele>201</ele>
        <time>2021-08-30T09:17:31Z</time>
      </trkpt>
      <trkpt lat="44.65012" lon="2.37762">
        <ele>204</ele>
        <time>2021-08-30T09:17:37Z</time>
      </trkpt>
      <trkpt lat="44.64999" lon="2.37757">
        <ele>205</ele>
        <time>2021-08-30T09:17:40Z</time>
      </trkpt>
      <trkpt lat="44.64995" lon="2.37754">
        <ele>205</ele>
        <time>2021-08-30T09:17:41Z</time>
      </trkpt>
      <trkpt lat="44.64967" lon="2.37743">
        <ele>208</ele>
        <time>2021-08-30T09:17:47Z</time>
      </trkpt>
      <trkpt lat="44.6495" lon="2.37722">
        <ele>208</ele>
        <time>2021-08-30T09:17:51Z</time>
      </trkpt>
      <trkpt lat="44.64937" lon="2.37707">
        <ele>207</ele>
        <time>2021-08-30T09:17:54Z</time>
      </trkpt>
      <trkpt lat="44.64821" lon="2.37648">
        <ele>207</ele>
        <time>2021-08-30T09:18:16Z</time>
      </trkpt>
      <trkpt lat="44.64813" lon="2.37643">
        <ele>208</ele>
        <time>2021-08-30T09:18:18Z</time>
      </trkpt>
      <trkpt lat="44.64765" lon="2.37604">
        <ele>205</ele>
        <time>2021-08-30T09:18:28Z</time>
      </trkpt>
      <trkpt lat="44.64762" lon="2.376">
        <ele>205</ele>
        <time>2021-08-30T09:18:29Z</time>
      </trkpt>
      <trkpt lat="44.64753" lon="2.37593">
        <ele>204</ele>
        <time>2021-08-30T09:18:31Z</time>
      </trkpt>
      <trkpt lat="44.64741" lon="2.37581">
        <ele>204</ele>
        <time>2021-08-30T09:18:34Z</time>
      </trkpt>
      <trkpt lat="44.64726" lon="2.37564">
        <ele>206</ele>
        <time>2021-08-30T09:18:38Z</time>
      </trkpt>
      <trkpt lat="44.64667" lon="2.37505">
        <ele>199</ele>
        <time>2021-08-30T09:18:51Z</time>
      </trkpt>
      <trkpt lat="44.64633" lon="2.37439">
        <ele>197</ele>
        <time>2021-08-30T09:19:02Z</time>
      </trkpt>
      <trkpt lat="44.64612" lon="2.37364">
        <ele>200</ele>
        <time>2021-08-30T09:19:14Z</time>
      </trkpt>
      <trkpt lat="44.64609" lon="2.37341">
        <ele>200</ele>
        <time>2021-08-30T09:19:18Z</time>
      </trkpt>
      <trkpt lat="44.64554" lon="2.37155">
        <ele>204</ele>
        <time>2021-08-30T09:19:48Z</time>
      </trkpt>
      <trkpt lat="44.64545" lon="2.3713">
        <ele>205</ele>
        <time>2021-08-30T09:19:53Z</time>
      </trkpt>
      <trkpt lat="44.64504" lon="2.37058">
        <ele>209</ele>
        <time>2021-08-30T09:20:05Z</time>
      </trkpt>
      <trkpt lat="44.64496" lon="2.37047">
        <ele>209</ele>
        <time>2021-08-30T09:20:07Z</time>
      </trkpt>
      <trkpt lat="44.64472" lon="2.37013">
        <ele>213</ele>
        <time>2021-08-30T09:20:14Z</time>
      </trkpt>
      <trkpt lat="44.64461" lon="2.36998">
        <ele>214</ele>
        <time>2021-08-30T09:20:17Z</time>
      </trkpt>
      <trkpt lat="44.64436" lon="2.36965">
        <ele>216</ele>
        <time>2021-08-30T09:20:22Z</time>
      </trkpt>
      <trkpt lat="44.6443" lon="2.36951">
        <ele>216</ele>
        <time>2021-08-30T09:20:24Z</time>
      </trkpt>
      <trkpt lat="44.64427" lon="2.36943">
        <ele>216</ele>
        <time>2021-08-30T09:20:25Z</time>
      </trkpt>
      <trkpt lat="44.64396" lon="2.36865">
        <ele>212</ele>
        <time>2021-08-30T09:20:39Z</time>
      </trkpt>
      <trkpt lat="44.6439" lon="2.36846">
        <ele>208</ele>
        <time>2021-08-30T09:20:43Z</time>
      </trkpt>
      <trkpt lat="44.64317" lon="2.367">
        <ele>198</ele>
        <time>2021-08-30T09:21:15Z</time>
      </trkpt>
      <trkpt lat="44.64311" lon="2.36691">
        <ele>197</ele>
        <time>2021-08-30T09:21:17Z</time>
      </trkpt>
      <trkpt lat="44.64302" lon="2.36673">
        <ele>196</ele>
        <time>2021-08-30T09:21:21Z</time>
      </trkpt>
      <trkpt lat="44.64245" lon="2.3661">
        <ele>190</ele>
        <time>2021-08-30T09:21:38Z</time>
      </trkpt>
      <trkpt lat="44.64235" lon="2.36593">
        <ele>188</ele>
        <time>2021-08-30T09:21:42Z</time>
      </trkpt>
      <trkpt lat="44.6423" lon="2.36584">
        <ele>187</ele>
        <time>2021-08-30T09:21:44Z</time>
      </trkpt>
      <trkpt lat="44.6421" lon="2.36545">
        <ele>186</ele>
        <time>2021-08-30T09:21:52Z</time>
      </trkpt>
      <trkpt lat="44.64202" lon="2.36523">
        <ele>188</ele>
        <time>2021-08-30T09:21:56Z</time>
      </trkpt>
      <trkpt lat="44.64192" lon="2.36459">
        <ele>188</ele>
        <time>2021-08-30T09:22:08Z</time>
      </trkpt>
      <trkpt lat="44.642" lon="2.36381">
        <ele>187</ele>
        <time>2021-08-30T09:22:21Z</time>
      </trkpt>
      <trkpt lat="44.64229" lon="2.36239">
        <ele>200</ele>
        <time>2021-08-30T09:22:53Z</time>
      </trkpt>
      <trkpt lat="44.64232" lon="2.36226">
        <ele>202</ele>
        <time>2021-08-30T09:22:56Z</time>
      </trkpt>
      <trkpt lat="44.64247" lon="2.36168">
        <ele>211</ele>
        <time>2021-08-30T09:23:12Z</time>
      </trkpt>
      <trkpt lat="44.64265" lon="2.36123">
        <ele>216</ele>
        <time>2021-08-30T09:23:26Z</time>
      </trkpt>
      <trkpt lat="44.6427" lon="2.36095">
        <ele>216</ele>
        <time>2021-08-30T09:23:33Z</time>
      </trkpt>
      <trkpt lat="44.64272" lon="2.36075">
        <ele>219</ele>
        <time>2021-08-30T09:23:38Z</time>
      </trkpt>
      <trkpt lat="44.64275" lon="2.36062">
        <ele>221</ele>
        <time>2021-08-30T09:23:42Z</time>
      </trkpt>
      <trkpt lat="44.64277" lon="2.36055">
        <ele>220</ele>
        <time>2021-08-30T09:23:44Z</time>
      </trkpt>
      <trkpt lat="44.64276" lon="2.36048">
        <ele>217</ele>
        <time>2021-08-30T09:23:47Z</time>
      </trkpt>
      <trkpt lat="44.64268" lon="2.36038">
        <ele>212</ele>
        <time>2021-08-30T09:23:53Z</time>
      </trkpt>
      <trkpt lat="44.64264" lon="2.36035">
        <ele>212</ele>
        <time>2021-08-30T09:23:55Z</time>
      </trkpt>
      <trkpt lat="44.64232" lon="2.36019">
        <ele>216</ele>
        <time>2021-08-30T09:24:08Z</time>
      </trkpt>
      <trkpt lat="44.64226" lon="2.36002">
        <ele>219</ele>
        <time>2021-08-30T09:24:14Z</time>
      </trkpt>
      <trkpt lat="44.64229" lon="2.35987">
        <ele>221</ele>
        <time>2021-08-30T09:24:21Z</time>
      </trkpt>
      <trkpt lat="44.64225" lon="2.35971">
        <ele>224</ele>
        <time>2021-08-30T09:24:25Z</time>
      </trkpt>
      <trkpt lat="44.64221" lon="2.35967">
        <ele>226</ele>
        <time>2021-08-30T09:24:28Z</time>
      </trkpt>
      <trkpt lat="44.64217" lon="2.35952">
        <ele>228</ele>
        <time>2021-08-30T09:24:34Z</time>
      </trkpt>
      <trkpt lat="44.64227" lon="2.35845">
        <ele>231</ele>
        <time>2021-08-30T09:24:48Z</time>
      </trkpt>
      <trkpt lat="44.64224" lon="2.35827">
        <ele>231</ele>
        <time>2021-08-30T09:24:50Z</time>
      </trkpt>
      <trkpt lat="44.64212" lon="2.35806">
        <ele>231</ele>
        <time>2021-08-30T09:24:53Z</time>
      </trkpt>
      <trkpt lat="44.64176" lon="2.35636">
        <ele>218</ele>
        <time>2021-08-30T09:25:18Z</time>
      </trkpt>
      <trkpt lat="44.64166" lon="2.35591">
        <ele>216</ele>
        <time>2021-08-30T09:25:28Z</time>
      </trkpt>
      <trkpt lat="44.64159" lon="2.35566">
        <ele>215</ele>
        <time>2021-08-30T09:25:34Z</time>
      </trkpt>
      <trkpt lat="44.64155" lon="2.35538">
        <ele>213</ele>
        <time>2021-08-30T09:25:40Z</time>
      </trkpt>
      <trkpt lat="44.64158" lon="2.35449">
        <ele>212</ele>
        <time>2021-08-30T09:25:58Z</time>
      </trkpt>
      <trkpt lat="44.64153" lon="2.3543">
        <ele>212</ele>
        <time>2021-08-30T09:26:02Z</time>
      </trkpt>
      <trkpt lat="44.64135" lon="2.35399">
        <ele>214</ele>
        <time>2021-08-30T09:26:10Z</time>
      </trkpt>
      <trkpt lat="44.64109" lon="2.35353">
        <ele>214</ele>
        <time>2021-08-30T09:26:22Z</time>
      </trkpt>
      <trkpt lat="44.64066" lon="2.35257">
        <ele>213</ele>
        <time>2021-08-30T09:26:41Z</time>
      </trkpt>
      <trkpt lat="44.6405" lon="2.35239">
        <ele>212</ele>
        <time>2021-08-30T09:26:45Z</time>
      </trkpt>
      <trkpt lat="44.6404" lon="2.35232">
        <ele>211</ele>
        <time>2021-08-30T09:26:47Z</time>
      </trkpt>
      <trkpt lat="44.63958" lon="2.35192">
        <ele>208</ele>
        <time>2021-08-30T09:27:00Z</time>
      </trkpt>
      <trkpt lat="44.63915" lon="2.3516">
        <ele>207</ele>
        <time>2021-08-30T09:27:07Z</time>
      </trkpt>
      <trkpt lat="44.63895" lon="2.35156">
        <ele>207</ele>
        <time>2021-08-30T09:27:10Z</time>
      </trkpt>
      <trkpt lat="44.63873" lon="2.35159">
        <ele>206</ele>
        <time>2021-08-30T09:27:13Z</time>
      </trkpt>
      <trkpt lat="44.6377" lon="2.35195">
        <ele>203</ele>
        <time>2021-08-30T09:27:25Z</time>
      </trkpt>
      <trkpt lat="44.63716" lon="2.35195">
        <ele>203</ele>
        <time>2021-08-30T09:27:31Z</time>
      </trkpt>
      <trkpt lat="44.63639" lon="2.35166">
        <ele>204</ele>
        <time>2021-08-30T09:27:45Z</time>
      </trkpt>
      <trkpt lat="44.63586" lon="2.35125">
        <ele>205</ele>
        <time>2021-08-30T09:27:53Z</time>
      </trkpt>
      <trkpt lat="44.63558" lon="2.35089">
        <ele>207</ele>
        <time>2021-08-30T09:27:59Z</time>
      </trkpt>
      <trkpt lat="44.63542" lon="2.35061">
        <ele>207</ele>
        <time>2021-08-30T09:28:04Z</time>
      </trkpt>
      <trkpt lat="44.6352" lon="2.34999">
        <ele>204</ele>
        <time>2021-08-30T09:28:19Z</time>
      </trkpt>
      <trkpt lat="44.63517" lon="2.34985">
        <ele>202</ele>
        <time>2021-08-30T09:28:23Z</time>
      </trkpt>
      <trkpt lat="44.63506" lon="2.34939">
        <ele>198</ele>
        <time>2021-08-30T09:28:35Z</time>
      </trkpt>
      <trkpt lat="44.63501" lon="2.34898">
        <ele>196</ele>
        <time>2021-08-30T09:28:45Z</time>
      </trkpt>
      <trkpt lat="44.63501" lon="2.34891">
        <ele>193</ele>
        <time>2021-08-30T09:28:47Z</time>
      </trkpt>
      <trkpt lat="44.63493" lon="2.34763">
        <ele>187</ele>
        <time>2021-08-30T09:29:17Z</time>
      </trkpt>
      <trkpt lat="44.63499" lon="2.34715">
        <ele>186</ele>
        <time>2021-08-30T09:29:27Z</time>
      </trkpt>
      <trkpt lat="44.63508" lon="2.34685">
        <ele>185</ele>
        <time>2021-08-30T09:29:33Z</time>
      </trkpt>
      <trkpt lat="44.63535" lon="2.34644">
        <ele>185</ele>
        <time>2021-08-30T09:29:46Z</time>
      </trkpt>
      <trkpt lat="44.63538" lon="2.34638">
        <ele>185</ele>
        <time>2021-08-30T09:29:50Z</time>
      </trkpt>
      <trkpt lat="44.63544" lon="2.34619">
        <ele>186</ele>
        <time>2021-08-30T09:30:14Z</time>
      </trkpt>
      <trkpt lat="44.63549" lon="2.34611">
        <ele>188</ele>
        <time>2021-08-30T09:30:16Z</time>
      </trkpt>
      <trkpt lat="44.63554" lon="2.34602">
        <ele>188</ele>
        <time>2021-08-30T09:30:18Z</time>
      </trkpt>
      <trkpt lat="44.63655" lon="2.34479">
        <ele>188</ele>
        <time>2021-08-30T09:30:48Z</time>
      </trkpt>
      <trkpt lat="44.63754" lon="2.34338">
        <ele>170</ele>
        <time>2021-08-30T09:31:18Z</time>
      </trkpt>
      <trkpt lat="44.63801" lon="2.34204">
        <ele>170</ele>
        <time>2021-08-30T09:31:36Z</time>
      </trkpt>
      <trkpt lat="44.63817" lon="2.34147">
        <ele>175</ele>
        <time>2021-08-30T09:31:43Z</time>
      </trkpt>
      <trkpt lat="44.6383" lon="2.34028">
        <ele>187</ele>
        <time>2021-08-30T09:31:57Z</time>
      </trkpt>
      <trkpt lat="44.63822" lon="2.33946">
        <ele>190</ele>
        <time>2021-08-30T09:32:10Z</time>
      </trkpt>
      <trkpt lat="44.63815" lon="2.33901">
        <ele>192</ele>
        <time>2021-08-30T09:32:18Z</time>
      </trkpt>
      <trkpt lat="44.63818" lon="2.33815">
        <ele>195</ele>
        <time>2021-08-30T09:32:31Z</time>
      </trkpt>
      <trkpt lat="44.63823" lon="2.33605">
        <ele>199</ele>
        <time>2021-08-30T09:33:02Z</time>
      </trkpt>
      <trkpt lat="44.63824" lon="2.33558">
        <ele>202</ele>
        <time>2021-08-30T09:33:09Z</time>
      </trkpt>
      <trkpt lat="44.6382" lon="2.33535">
        <ele>203</ele>
        <time>2021-08-30T09:33:13Z</time>
      </trkpt>
      <trkpt lat="44.63786" lon="2.33442">
        <ele>202</ele>
        <time>2021-08-30T09:33:29Z</time>
      </trkpt>
      <trkpt lat="44.63767" lon="2.33298">
        <ele>204</ele>
        <time>2021-08-30T09:33:52Z</time>
      </trkpt>
      <trkpt lat="44.63757" lon="2.33265">
        <ele>203</ele>
        <time>2021-08-30T09:33:58Z</time>
      </trkpt>
      <trkpt lat="44.63704" lon="2.33065">
        <ele>197</ele>
        <time>2021-08-30T09:34:21Z</time>
      </trkpt>
      <trkpt lat="44.63686" lon="2.33016">
        <ele>196</ele>
        <time>2021-08-30T09:34:26Z</time>
      </trkpt>
      <trkpt lat="44.63605" lon="2.32906">
        <ele>193</ele>
        <time>2021-08-30T09:34:40Z</time>
      </trkpt>
      <trkpt lat="44.63537" lon="2.3282">
        <ele>190</ele>
        <time>2021-08-30T09:34:53Z</time>
      </trkpt>
      <trkpt lat="44.63456" lon="2.32654">
        <ele>190</ele>
        <time>2021-08-30T09:35:15Z</time>
      </trkpt>
      <trkpt lat="44.63405" lon="2.32478">
        <ele>194</ele>
        <time>2021-08-30T09:35:43Z</time>
      </trkpt>
      <trkpt lat="44.63403" lon="2.32425">
        <ele>195</ele>
        <time>2021-08-30T09:35:51Z</time>
      </trkpt>
      <trkpt lat="44.63406" lon="2.32392">
        <ele>196</ele>
        <time>2021-08-30T09:35:56Z</time>
      </trkpt>
      <trkpt lat="44.63417" lon="2.32359">
        <ele>196</ele>
        <time>2021-08-30T09:36:02Z</time>
      </trkpt>
      <trkpt lat="44.63434" lon="2.3233">
        <ele>196</ele>
        <time>2021-08-30T09:36:08Z</time>
      </trkpt>
      <trkpt lat="44.63494" lon="2.32285">
        <ele>198</ele>
        <time>2021-08-30T09:36:22Z</time>
      </trkpt>
      <trkpt lat="44.63503" lon="2.32281">
        <ele>199</ele>
        <time>2021-08-30T09:36:24Z</time>
      </trkpt>
      <trkpt lat="44.63527" lon="2.32283">
        <ele>201</ele>
        <time>2021-08-30T09:36:29Z</time>
      </trkpt>
      <trkpt lat="44.63664" lon="2.3232">
        <ele>201</ele>
        <time>2021-08-30T09:36:53Z</time>
      </trkpt>
      <trkpt lat="44.63787" lon="2.3229">
        <ele>203</ele>
        <time>2021-08-30T09:37:14Z</time>
      </trkpt>
      <trkpt lat="44.63907" lon="2.32261">
        <ele>204</ele>
        <time>2021-08-30T09:37:38Z</time>
      </trkpt>
      <trkpt lat="44.63952" lon="2.32219">
        <ele>204</ele>
        <time>2021-08-30T09:37:49Z</time>
      </trkpt>
      <trkpt lat="44.63977" lon="2.32187">
        <ele>202</ele>
        <time>2021-08-30T09:37:57Z</time>
      </trkpt>
      <trkpt lat="44.63983" lon="2.32181">
        <ele>202</ele>
        <time>2021-08-30T09:37:59Z</time>
      </trkpt>
      <trkpt lat="44.64075" lon="2.32035">
        <ele>186</ele>
        <time>2021-08-30T09:38:27Z</time>
      </trkpt>
      <trkpt lat="44.64088" lon="2.32002">
        <ele>187</ele>
        <time>2021-08-30T09:38:32Z</time>
      </trkpt>
      <trkpt lat="44.64105" lon="2.3193">
        <ele>190</ele>
        <time>2021-08-30T09:38:41Z</time>
      </trkpt>
      <trkpt lat="44.64124" lon="2.31696">
        <ele>188</ele>
        <time>2021-08-30T09:39:11Z</time>
      </trkpt>
      <trkpt lat="44.64132" lon="2.31624">
        <ele>189</ele>
        <time>2021-08-30T09:39:20Z</time>
      </trkpt>
      <trkpt lat="44.64116" lon="2.31483">
        <ele>181</ele>
        <time>2021-08-30T09:39:39Z</time>
      </trkpt>
      <trkpt lat="44.64102" lon="2.31443">
        <ele>180</ele>
        <time>2021-08-30T09:39:45Z</time>
      </trkpt>
      <trkpt lat="44.64095" lon="2.31425">
        <ele>177</ele>
        <time>2021-08-30T09:39:48Z</time>
      </trkpt>
      <trkpt lat="44.64076" lon="2.31391">
        <ele>173</ele>
        <time>2021-08-30T09:39:54Z</time>
      </trkpt>
      <trkpt lat="44.64069" lon="2.31381">
        <ele>172</ele>
        <time>2021-08-30T09:39:56Z</time>
      </trkpt>
      <trkpt lat="44.63996" lon="2.31298">
        <ele>170</ele>
        <time>2021-08-30T09:40:14Z</time>
      </trkpt>
      <trkpt lat="44.63982" lon="2.31285">
        <ele>165</ele>
        <time>2021-08-30T09:40:18Z</time>
      </trkpt>
      <trkpt lat="44.63965" lon="2.31275">
        <ele>162</ele>
        <time>2021-08-30T09:40:22Z</time>
      </trkpt>
      <trkpt lat="44.63942" lon="2.31264">
        <ele>159</ele>
        <time>2021-08-30T09:40:26Z</time>
      </trkpt>
      <trkpt lat="44.6392" lon="2.3125">
        <ele>156</ele>
        <time>2021-08-30T09:40:30Z</time>
      </trkpt>
      <trkpt lat="44.63875" lon="2.31233">
        <ele>151</ele>
        <time>2021-08-30T09:40:38Z</time>
      </trkpt>
      <trkpt lat="44.63839" lon="2.31227">
        <ele>148</ele>
        <time>2021-08-30T09:40:44Z</time>
      </trkpt>
      <trkpt lat="44.63713" lon="2.312">
        <ele>149</ele>
        <time>2021-08-30T09:41:08Z</time>
      </trkpt>
      <trkpt lat="44.63669" lon="2.312">
        <ele>152</ele>
        <time>2021-08-30T09:41:16Z</time>
      </trkpt>
      <trkpt lat="44.63598" lon="2.31197">
        <ele>154</ele>
        <time>2021-08-30T09:41:29Z</time>
      </trkpt>
      <trkpt lat="44.63554" lon="2.31212">
        <ele>151</ele>
        <time>2021-08-30T09:41:37Z</time>
      </trkpt>
      <trkpt lat="44.63404" lon="2.31331">
        <ele>165</ele>
        <time>2021-08-30T09:42:04Z</time>
      </trkpt>
      <trkpt lat="44.63349" lon="2.31422">
        <ele>171</ele>
        <time>2021-08-30T09:42:18Z</time>
      </trkpt>
      <trkpt lat="44.63299" lon="2.31536">
        <ele>181</ele>
        <time>2021-08-30T09:42:33Z</time>
      </trkpt>
      <trkpt lat="44.63285" lon="2.31551">
        <ele>182</ele>
        <time>2021-08-30T09:42:36Z</time>
      </trkpt>
      <trkpt lat="44.63259" lon="2.31578">
        <ele>186</ele>
        <time>2021-08-30T09:42:42Z</time>
      </trkpt>
      <trkpt lat="44.6315" lon="2.31688">
        <ele>190</ele>
        <time>2021-08-30T09:43:07Z</time>
      </trkpt>
      <trkpt lat="44.63128" lon="2.31702">
        <ele>188</ele>
        <time>2021-08-30T09:43:11Z</time>
      </trkpt>
      <trkpt lat="44.6306" lon="2.31736">
        <ele>188</ele>
        <time>2021-08-30T09:43:23Z</time>
      </trkpt>
      <trkpt lat="44.63028" lon="2.31761">
        <ele>189</ele>
        <time>2021-08-30T09:43:29Z</time>
      </trkpt>
      <trkpt lat="44.63008" lon="2.31786">
        <ele>191</ele>
        <time>2021-08-30T09:43:33Z</time>
      </trkpt>
      <trkpt lat="44.62988" lon="2.31825">
        <ele>193</ele>
        <time>2021-08-30T09:43:38Z</time>
      </trkpt>
      <trkpt lat="44.62951" lon="2.31939">
        <ele>195</ele>
        <time>2021-08-30T09:43:52Z</time>
      </trkpt>
      <trkpt lat="44.62903" lon="2.32044">
        <ele>191</ele>
        <time>2021-08-30T09:44:05Z</time>
      </trkpt>
      <trkpt lat="44.62873" lon="2.32073">
        <ele>190</ele>
        <time>2021-08-30T09:44:10Z</time>
      </trkpt>
      <trkpt lat="44.62832" lon="2.32103">
        <ele>187</ele>
        <time>2021-08-30T09:44:17Z</time>
      </trkpt>
      <trkpt lat="44.62808" lon="2.32112">
        <ele>186</ele>
        <time>2021-08-30T09:44:21Z</time>
      </trkpt>
      <trkpt lat="44.62795" lon="2.32113">
        <ele>187</ele>
        <time>2021-08-30T09:44:23Z</time>
      </trkpt>
      <trkpt lat="44.62763" lon="2.32098">
        <ele>188</ele>
        <time>2021-08-30T09:44:30Z</time>
      </trkpt>
      <trkpt lat="44.62723" lon="2.32068">
        <ele>193</ele>
        <time>2021-08-30T09:44:42Z</time>
      </trkpt>
      <trkpt lat="44.62704" lon="2.32028">
        <ele>194</ele>
        <time>2021-08-30T09:44:52Z</time>
      </trkpt>
      <trkpt lat="44.6269" lon="2.31984">
        <ele>197</ele>
        <time>2021-08-30T09:45:02Z</time>
      </trkpt>
      <trkpt lat="44.62677" lon="2.31829">
        <ele>201</ele>
        <time>2021-08-30T09:45:33Z</time>
      </trkpt>
      <trkpt lat="44.62667" lon="2.31727">
        <ele>201</ele>
        <time>2021-08-30T09:45:55Z</time>
      </trkpt>
      <trkpt lat="44.62662" lon="2.31714">
        <ele>200</ele>
        <time>2021-08-30T09:46:00Z</time>
      </trkpt>
      <trkpt lat="44.62648" lon="2.31698">
        <ele>198</ele>
        <time>2021-08-30T09:46:06Z</time>
      </trkpt>
      <trkpt lat="44.6262" lon="2.31657">
        <ele>195</ele>
        <time>2021-08-30T09:46:17Z</time>
      </trkpt>
      <trkpt lat="44.62607" lon="2.31628">
        <ele>193</ele>
        <time>2021-08-30T09:46:25Z</time>
      </trkpt>
      <trkpt lat="44.62602" lon="2.31598">
        <ele>193</ele>
        <time>2021-08-30T09:46:31Z</time>
      </trkpt>
      <trkpt lat="44.62607" lon="2.3156">
        <ele>191</ele>
        <time>2021-08-30T09:46:39Z</time>
      </trkpt>
      <trkpt lat="44.62608" lon="2.31541">
        <ele>190</ele>
        <time>2021-08-30T09:46:43Z</time>
      </trkpt>
      <trkpt lat="44.62622" lon="2.31468">
        <ele>179</ele>
        <time>2021-08-30T09:47:01Z</time>
      </trkpt>
      <trkpt lat="44.62622" lon="2.3146">
        <ele>178</ele>
        <time>2021-08-30T09:47:03Z</time>
      </trkpt>
      <trkpt lat="44.62638" lon="2.3141">
        <ele>176</ele>
        <time>2021-08-30T09:47:20Z</time>
      </trkpt>
      <trkpt lat="44.6264" lon="2.31403">
        <ele>173</ele>
        <time>2021-08-30T09:47:23Z</time>
      </trkpt>
      <trkpt lat="44.62642" lon="2.31397">
        <ele>173</ele>
        <time>2021-08-30T09:47:25Z</time>
      </trkpt>
      <trkpt lat="44.62644" lon="2.31388">
        <ele>172</ele>
        <time>2021-08-30T09:47:28Z</time>
      </trkpt>
      <trkpt lat="44.62658" lon="2.3133">
        <ele>168</ele>
        <time>2021-08-30T09:47:47Z</time>
      </trkpt>
      <trkpt lat="44.6266" lon="2.31323">
        <ele>168</ele>
        <time>2021-08-30T09:47:49Z</time>
      </trkpt>
      <trkpt lat="44.62663" lon="2.31317">
        <ele>169</ele>
        <time>2021-08-30T09:47:51Z</time>
      </trkpt>
      <trkpt lat="44.62666" lon="2.31312">
        <ele>169</ele>
        <time>2021-08-30T09:47:53Z</time>
      </trkpt>
      <trkpt lat="44.62672" lon="2.31299">
        <ele>169</ele>
        <time>2021-08-30T09:47:58Z</time>
      </trkpt>
      <trkpt lat="44.62674" lon="2.31291">
        <ele>168</ele>
        <time>2021-08-30T09:48:01Z</time>
      </trkpt>
      <trkpt lat="44.62677" lon="2.31276">
        <ele>166</ele>
        <time>2021-08-30T09:48:06Z</time>
      </trkpt>
      <trkpt lat="44.6268" lon="2.31257">
        <ele>165</ele>
        <time>2021-08-30T09:48:11Z</time>
      </trkpt>
      <trkpt lat="44.62681" lon="2.3125">
        <ele>166</ele>
        <time>2021-08-30T09:48:12Z</time>
      </trkpt>
      <trkpt lat="44.62683" lon="2.31244">
        <ele>166</ele>
        <time>2021-08-30T09:48:13Z</time>
      </trkpt>
      <trkpt lat="44.62686" lon="2.3122">
        <ele>168</ele>
        <time>2021-08-30T09:48:16Z</time>
      </trkpt>
      <trkpt lat="44.62711" lon="2.31092">
        <ele>174</ele>
        <time>2021-08-30T09:48:29Z</time>
      </trkpt>
      <trkpt lat="44.62713" lon="2.31085">
        <ele>174</ele>
        <time>2021-08-30T09:48:30Z</time>
      </trkpt>
      <trkpt lat="44.62723" lon="2.31064">
        <ele>178</ele>
        <time>2021-08-30T09:48:36Z</time>
      </trkpt>
      <trkpt lat="44.62752" lon="2.30882">
        <ele>181</ele>
        <time>2021-08-30T09:49:02Z</time>
      </trkpt>
      <trkpt lat="44.62772" lon="2.3083">
        <ele>183</ele>
        <time>2021-08-30T09:49:10Z</time>
      </trkpt>
      <trkpt lat="44.62821" lon="2.30731">
        <ele>188</ele>
        <time>2021-08-30T09:49:27Z</time>
      </trkpt>
      <trkpt lat="44.62905" lon="2.30508">
        <ele>188</ele>
        <time>2021-08-30T09:49:57Z</time>
      </trkpt>
      <trkpt lat="44.63002" lon="2.30291">
        <ele>191</ele>
        <time>2021-08-30T09:50:28Z</time>
      </trkpt>
      <trkpt lat="44.63031" lon="2.30226">
        <ele>192</ele>
        <time>2021-08-30T09:50:38Z</time>
      </trkpt>
      <trkpt lat="44.63045" lon="2.30151">
        <ele>192</ele>
        <time>2021-08-30T09:50:48Z</time>
      </trkpt>
      <trkpt lat="44.63055" lon="2.29952">
        <ele>197</ele>
        <time>2021-08-30T09:51:14Z</time>
      </trkpt>
      <trkpt lat="44.63052" lon="2.2993">
        <ele>197</ele>
        <time>2021-08-30T09:51:17Z</time>
      </trkpt>
      <trkpt lat="44.63045" lon="2.29902">
        <ele>198</ele>
        <time>2021-08-30T09:51:21Z</time>
      </trkpt>
      <trkpt lat="44.63033" lon="2.2988">
        <ele>199</ele>
        <time>2021-08-30T09:51:26Z</time>
      </trkpt>
      <trkpt lat="44.62944" lon="2.29813">
        <ele>191</ele>
        <time>2021-08-30T09:51:58Z</time>
      </trkpt>
      <trkpt lat="44.62892" lon="2.29777">
        <ele>188</ele>
        <time>2021-08-30T09:52:18Z</time>
      </trkpt>
      <trkpt lat="44.62888" lon="2.29776">
        <ele>187</ele>
        <time>2021-08-30T09:52:20Z</time>
      </trkpt>
      <trkpt lat="44.62882" lon="2.29772">
        <ele>187</ele>
        <time>2021-08-30T09:52:23Z</time>
      </trkpt>
      <trkpt lat="44.62877" lon="2.2977">
        <ele>185</ele>
        <time>2021-08-30T09:52:25Z</time>
      </trkpt>
      <trkpt lat="44.62872" lon="2.29768">
        <ele>183</ele>
        <time>2021-08-30T09:52:27Z</time>
      </trkpt>
      <trkpt lat="44.62864" lon="2.29766">
        <ele>182</ele>
        <time>2021-08-30T09:52:30Z</time>
      </trkpt>
      <trkpt lat="44.62859" lon="2.29769">
        <ele>181</ele>
        <time>2021-08-30T09:52:32Z</time>
      </trkpt>
      <trkpt lat="44.62843" lon="2.29775">
        <ele>180</ele>
        <time>2021-08-30T09:52:39Z</time>
      </trkpt>
      <trkpt lat="44.62818" lon="2.29787">
        <ele>186</ele>
        <time>2021-08-30T09:52:48Z</time>
      </trkpt>
      <trkpt lat="44.62797" lon="2.29792">
        <ele>189</ele>
        <time>2021-08-30T09:52:55Z</time>
      </trkpt>
      <trkpt lat="44.62791" lon="2.2979">
        <ele>189</ele>
        <time>2021-08-30T09:52:57Z</time>
      </trkpt>
      <trkpt lat="44.62756" lon="2.29772">
        <ele>198</ele>
        <time>2021-08-30T09:53:09Z</time>
      </trkpt>
      <trkpt lat="44.62741" lon="2.2977">
        <ele>199</ele>
        <time>2021-08-30T09:53:13Z</time>
      </trkpt>
      <trkpt lat="44.6269" lon="2.29787">
        <ele>200</ele>
        <time>2021-08-30T09:53:27Z</time>
      </trkpt>
      <trkpt lat="44.62653" lon="2.29782">
        <ele>200</ele>
        <time>2021-08-30T09:53:36Z</time>
      </trkpt>
      <trkpt lat="44.62626" lon="2.29768">
        <ele>199</ele>
        <time>2021-08-30T09:53:41Z</time>
      </trkpt>
      <trkpt lat="44.62608" lon="2.29753">
        <ele>199</ele>
        <time>2021-08-30T09:53:44Z</time>
      </trkpt>
      <trkpt lat="44.62406" lon="2.29485">
        <ele>185</ele>
        <time>2021-08-30T09:54:14Z</time>
      </trkpt>
      <trkpt lat="44.62288" lon="2.29312">
        <ele>183</ele>
        <time>2021-08-30T09:54:33Z</time>
      </trkpt>
      <trkpt lat="44.62222" lon="2.29163">
        <ele>179</ele>
        <time>2021-08-30T09:54:47Z</time>
      </trkpt>
      <trkpt lat="44.62202" lon="2.29074">
        <ele>178</ele>
        <time>2021-08-30T09:54:55Z</time>
      </trkpt>
      <trkpt lat="44.62198" lon="2.28892">
        <ele>179</ele>
        <time>2021-08-30T09:55:17Z</time>
      </trkpt>
      <trkpt lat="44.62205" lon="2.28664">
        <ele>180</ele>
        <time>2021-08-30T09:55:47Z</time>
      </trkpt>
      <trkpt lat="44.62205" lon="2.28395">
        <ele>204</ele>
        <time>2021-08-30T09:56:17Z</time>
      </trkpt>
      <trkpt lat="44.62214" lon="2.28102">
        <ele>211</ele>
        <time>2021-08-30T09:56:48Z</time>
      </trkpt>
      <trkpt lat="44.62234" lon="2.27886">
        <ele>211</ele>
        <time>2021-08-30T09:57:11Z</time>
      </trkpt>
      <trkpt lat="44.62284" lon="2.2764">
        <ele>199</ele>
        <time>2021-08-30T09:57:42Z</time>
      </trkpt>
      <trkpt lat="44.62314" lon="2.27418">
        <ele>198</ele>
        <time>2021-08-30T09:58:08Z</time>
      </trkpt>
      <trkpt lat="44.62313" lon="2.27351">
        <ele>196</ele>
        <time>2021-08-30T09:58:16Z</time>
      </trkpt>
      <trkpt lat="44.62272" lon="2.27161">
        <ele>194</ele>
        <time>2021-08-30T09:58:38Z</time>
      </trkpt>
      <trkpt lat="44.62229" lon="2.27018">
        <ele>186</ele>
        <time>2021-08-30T09:58:55Z</time>
      </trkpt>
      <trkpt lat="44.62225" lon="2.27003">
        <ele>184</ele>
        <time>2021-08-30T09:58:57Z</time>
      </trkpt>
      <trkpt lat="44.62216" lon="2.26988">
        <ele>184</ele>
        <time>2021-08-30T09:58:59Z</time>
      </trkpt>
      <trkpt lat="44.62157" lon="2.26779">
        <ele>183</ele>
        <time>2021-08-30T09:59:23Z</time>
      </trkpt>
      <trkpt lat="44.6213" lon="2.26696">
        <ele>186</ele>
        <time>2021-08-30T09:59:34Z</time>
      </trkpt>
      <trkpt lat="44.62121" lon="2.26682">
        <ele>187</ele>
        <time>2021-08-30T09:59:36Z</time>
      </trkpt>
      <trkpt lat="44.62108" lon="2.26644">
        <ele>189</ele>
        <time>2021-08-30T09:59:41Z</time>
      </trkpt>
      <trkpt lat="44.62105" lon="2.26622">
        <ele>190</ele>
        <time>2021-08-30T09:59:44Z</time>
      </trkpt>
      <trkpt lat="44.621" lon="2.26609">
        <ele>190</ele>
        <time>2021-08-30T09:59:46Z</time>
      </trkpt>
      <trkpt lat="44.62095" lon="2.2659">
        <ele>190</ele>
        <time>2021-08-30T09:59:49Z</time>
      </trkpt>
      <trkpt lat="44.62085" lon="2.26564">
        <ele>190</ele>
        <time>2021-08-30T09:59:53Z</time>
      </trkpt>
      <trkpt lat="44.6207" lon="2.26528">
        <ele>192</ele>
        <time>2021-08-30T09:59:58Z</time>
      </trkpt>
      <trkpt lat="44.62054" lon="2.26499">
        <ele>189</ele>
        <time>2021-08-30T10:00:03Z</time>
      </trkpt>
      <trkpt lat="44.61999" lon="2.26391">
        <ele>182</ele>
        <time>2021-08-30T10:00:20Z</time>
      </trkpt>
      <trkpt lat="44.61936" lon="2.26189">
        <ele>183</ele>
        <time>2021-08-30T10:00:49Z</time>
      </trkpt>
      <trkpt lat="44.61872" lon="2.26073">
        <ele>183</ele>
        <time>2021-08-30T10:01:07Z</time>
      </trkpt>
      <trkpt lat="44.618" lon="2.25973">
        <ele>184</ele>
        <time>2021-08-30T10:01:28Z</time>
      </trkpt>
      <trkpt lat="44.61774" lon="2.25917">
        <ele>184</ele>
        <time>2021-08-30T10:01:39Z</time>
      </trkpt>
      <trkpt lat="44.61736" lon="2.25752">
        <ele>185</ele>
        <time>2021-08-30T10:02:03Z</time>
      </trkpt>
      <trkpt lat="44.61702" lon="2.25691">
        <ele>184</ele>
        <time>2021-08-30T10:02:14Z</time>
      </trkpt>
      <trkpt lat="44.61639" lon="2.25604">
        <ele>184</ele>
        <time>2021-08-30T10:02:31Z</time>
      </trkpt>
      <trkpt lat="44.61531" lon="2.25532">
        <ele>181</ele>
        <time>2021-08-30T10:02:54Z</time>
      </trkpt>
      <trkpt lat="44.61416" lon="2.25453">
        <ele>181</ele>
        <time>2021-08-30T10:03:24Z</time>
      </trkpt>
      <trkpt lat="44.61411" lon="2.25449">
        <ele>182</ele>
        <time>2021-08-30T10:03:27Z</time>
      </trkpt>
      <trkpt lat="44.61401" lon="2.25452">
        <ele>182</ele>
        <time>2021-08-30T10:04:02Z</time>
      </trkpt>
      <trkpt lat="44.61403" lon="2.25463">
        <ele>183</ele>
        <time>2021-08-30T10:05:38Z</time>
      </trkpt>
      <trkpt lat="44.61402" lon="2.25471">
        <ele>183</ele>
        <time>2021-08-30T10:05:40Z</time>
      </trkpt>
      <trkpt lat="44.61399" lon="2.25503">
        <ele>183</ele>
        <time>2021-08-30T10:05:48Z</time>
      </trkpt>
      <trkpt lat="44.61396" lon="2.25511">
        <ele>183</ele>
        <time>2021-08-30T10:05:50Z</time>
      </trkpt>
      <trkpt lat="44.61392" lon="2.25518">
        <ele>183</ele>
        <time>2021-08-30T10:05:52Z</time>
      </trkpt>
      <trkpt lat="44.61385" lon="2.25521">
        <ele>184</ele>
        <time>2021-08-30T10:05:55Z</time>
      </trkpt>
      <trkpt lat="44.61379" lon="2.25523">
        <ele>185</ele>
        <time>2021-08-30T10:05:58Z</time>
      </trkpt>
      <trkpt lat="44.61361" lon="2.25531">
        <ele>185</ele>
        <time>2021-08-30T10:06:14Z</time>
      </trkpt>
      <trkpt lat="44.61347" lon="2.25534">
        <ele>183</ele>
        <time>2021-08-30T10:06:18Z</time>
      </trkpt>
      <trkpt lat="44.61325" lon="2.2553">
        <ele>181</ele>
        <time>2021-08-30T10:06:23Z</time>
      </trkpt>
      <trkpt lat="44.61319" lon="2.25525">
        <ele>182</ele>
        <time>2021-08-30T10:06:25Z</time>
      </trkpt>
      <trkpt lat="44.61311" lon="2.25512">
        <ele>184</ele>
        <time>2021-08-30T10:06:27Z</time>
      </trkpt>
      <trkpt lat="44.61305" lon="2.25497">
        <ele>184</ele>
        <time>2021-08-30T10:06:29Z</time>
      </trkpt>
      <trkpt lat="44.61295" lon="2.25423">
        <ele>179</ele>
        <time>2021-08-30T10:06:44Z</time>
      </trkpt>
      <trkpt lat="44.61294" lon="2.25416">
        <ele>179</ele>
        <time>2021-08-30T10:06:46Z</time>
      </trkpt>
      <trkpt lat="44.61283" lon="2.25333">
        <ele>178</ele>
        <time>2021-08-30T10:07:00Z</time>
      </trkpt>
      <trkpt lat="44.61252" lon="2.25206">
        <ele>174</ele>
        <time>2021-08-30T10:07:22Z</time>
      </trkpt>
      <trkpt lat="44.61245" lon="2.25146">
        <ele>171</ele>
        <time>2021-08-30T10:07:34Z</time>
      </trkpt>
      <trkpt lat="44.61247" lon="2.25102">
        <ele>168</ele>
        <time>2021-08-30T10:07:42Z</time>
      </trkpt>
      <trkpt lat="44.61249" lon="2.25085">
        <ele>168</ele>
        <time>2021-08-30T10:07:46Z</time>
      </trkpt>
      <trkpt lat="44.61252" lon="2.25078">
        <ele>167</ele>
        <time>2021-08-30T10:07:48Z</time>
      </trkpt>
      <trkpt lat="44.61282" lon="2.25049">
        <ele>170</ele>
        <time>2021-08-30T10:07:58Z</time>
      </trkpt>
      <trkpt lat="44.61291" lon="2.25037">
        <ele>173</ele>
        <time>2021-08-30T10:08:03Z</time>
      </trkpt>
      <trkpt lat="44.61297" lon="2.25037">
        <ele>175</ele>
        <time>2021-08-30T10:08:05Z</time>
      </trkpt>
      <trkpt lat="44.61304" lon="2.25038">
        <ele>178</ele>
        <time>2021-08-30T10:08:07Z</time>
      </trkpt>
      <trkpt lat="44.61331" lon="2.25037">
        <ele>185</ele>
        <time>2021-08-30T10:08:15Z</time>
      </trkpt>
      <trkpt lat="44.61406" lon="2.25006">
        <ele>193</ele>
        <time>2021-08-30T10:08:39Z</time>
      </trkpt>
      <trkpt lat="44.61409" lon="2.24999">
        <ele>193</ele>
        <time>2021-08-30T10:08:42Z</time>
      </trkpt>
      <trkpt lat="44.6141" lon="2.2499">
        <ele>193</ele>
        <time>2021-08-30T10:08:44Z</time>
      </trkpt>
      <trkpt lat="44.61409" lon="2.24961">
        <ele>191</ele>
        <time>2021-08-30T10:08:50Z</time>
      </trkpt>
      <trkpt lat="44.61406" lon="2.24895">
        <ele>189</ele>
        <time>2021-08-30T10:09:01Z</time>
      </trkpt>
      <trkpt lat="44.61406" lon="2.24866">
        <ele>188</ele>
        <time>2021-08-30T10:09:05Z</time>
      </trkpt>
      <trkpt lat="44.61404" lon="2.24855">
        <ele>188</ele>
        <time>2021-08-30T10:09:07Z</time>
      </trkpt>
      <trkpt lat="44.61392" lon="2.24845">
        <ele>187</ele>
        <time>2021-08-30T10:09:10Z</time>
      </trkpt>
      <trkpt lat="44.61388" lon="2.24842">
        <ele>186</ele>
        <time>2021-08-30T10:09:11Z</time>
      </trkpt>
      <trkpt lat="44.61383" lon="2.24841">
        <ele>186</ele>
        <time>2021-08-30T10:09:12Z</time>
      </trkpt>
      <trkpt lat="44.61353" lon="2.2485">
        <ele>184</ele>
        <time>2021-08-30T10:09:18Z</time>
      </trkpt>
      <trkpt lat="44.61348" lon="2.2485">
        <ele>184</ele>
        <time>2021-08-30T10:09:19Z</time>
      </trkpt>
      <trkpt lat="44.61342" lon="2.24846">
        <ele>184</ele>
        <time>2021-08-30T10:09:20Z</time>
      </trkpt>
      <trkpt lat="44.61338" lon="2.24839">
        <ele>183</ele>
        <time>2021-08-30T10:09:21Z</time>
      </trkpt>
      <trkpt lat="44.61334" lon="2.24825">
        <ele>183</ele>
        <time>2021-08-30T10:09:23Z</time>
      </trkpt>
      <trkpt lat="44.61337" lon="2.24775">
        <ele>181</ele>
        <time>2021-08-30T10:09:31Z</time>
      </trkpt>
      <trkpt lat="44.61336" lon="2.24764">
        <ele>181</ele>
        <time>2021-08-30T10:09:33Z</time>
      </trkpt>
      <trkpt lat="44.61333" lon="2.24744">
        <ele>181</ele>
        <time>2021-08-30T10:09:37Z</time>
      </trkpt>
      <trkpt lat="44.61329" lon="2.2473">
        <ele>181</ele>
        <time>2021-08-30T10:09:41Z</time>
      </trkpt>
      <trkpt lat="44.61325" lon="2.24725">
        <ele>182</ele>
        <time>2021-08-30T10:10:31Z</time>
      </trkpt>
      <trkpt lat="44.61269" lon="2.24592">
        <ele>180</ele>
        <time>2021-08-30T10:11:02Z</time>
      </trkpt>
      <trkpt lat="44.61215" lon="2.24518">
        <ele>178</ele>
        <time>2021-08-30T10:11:17Z</time>
      </trkpt>
      <trkpt lat="44.61212" lon="2.24511">
        <ele>178</ele>
        <time>2021-08-30T10:11:19Z</time>
      </trkpt>
      <trkpt lat="44.61209" lon="2.24505">
        <ele>178</ele>
        <time>2021-08-30T10:11:21Z</time>
      </trkpt>
      <trkpt lat="44.61193" lon="2.24473">
        <ele>178</ele>
        <time>2021-08-30T10:11:29Z</time>
      </trkpt>
      <trkpt lat="44.61185" lon="2.24433">
        <ele>177</ele>
        <time>2021-08-30T10:11:37Z</time>
      </trkpt>
      <trkpt lat="44.61179" lon="2.24345">
        <ele>177</ele>
        <time>2021-08-30T10:11:49Z</time>
      </trkpt>
      <trkpt lat="44.61178" lon="2.24288">
        <ele>173</ele>
        <time>2021-08-30T10:11:58Z</time>
      </trkpt>
      <trkpt lat="44.61174" lon="2.24162">
        <ele>169</ele>
        <time>2021-08-30T10:12:17Z</time>
      </trkpt>
      <trkpt lat="44.61176" lon="2.24132">
        <ele>166</ele>
        <time>2021-08-30T10:12:22Z</time>
      </trkpt>
      <trkpt lat="44.61171" lon="2.24079">
        <ele>166</ele>
        <time>2021-08-30T10:12:29Z</time>
      </trkpt>
      <trkpt lat="44.61165" lon="2.23921">
        <ele>168</ele>
        <time>2021-08-30T10:12:50Z</time>
      </trkpt>
      <trkpt lat="44.6117" lon="2.23887">
        <ele>170</ele>
        <time>2021-08-30T10:12:55Z</time>
      </trkpt>
      <trkpt lat="44.61169" lon="2.23856">
        <ele>169</ele>
        <time>2021-08-30T10:13:00Z</time>
      </trkpt>
      <trkpt lat="44.61172" lon="2.23845">
        <ele>169</ele>
        <time>2021-08-30T10:13:02Z</time>
      </trkpt>
      <trkpt lat="44.61176" lon="2.2384">
        <ele>169</ele>
        <time>2021-08-30T10:13:03Z</time>
      </trkpt>
      <trkpt lat="44.61307" lon="2.23786">
        <ele>181</ele>
        <time>2021-08-30T10:13:33Z</time>
      </trkpt>
      <trkpt lat="44.61329" lon="2.2377">
        <ele>182</ele>
        <time>2021-08-30T10:13:38Z</time>
      </trkpt>
      <trkpt lat="44.61336" lon="2.23766">
        <ele>182</ele>
        <time>2021-08-30T10:13:40Z</time>
      </trkpt>
      <trkpt lat="44.6134" lon="2.23764">
        <ele>183</ele>
        <time>2021-08-30T10:13:42Z</time>
      </trkpt>
      <trkpt lat="44.61339" lon="2.23753">
        <ele>183</ele>
        <time>2021-08-30T10:13:45Z</time>
      </trkpt>
      <trkpt lat="44.6131" lon="2.23682">
        <ele>182</ele>
        <time>2021-08-30T10:14:01Z</time>
      </trkpt>
      <trkpt lat="44.61306" lon="2.23674">
        <ele>182</ele>
        <time>2021-08-30T10:14:03Z</time>
      </trkpt>
      <trkpt lat="44.61304" lon="2.23667">
        <ele>181</ele>
        <time>2021-08-30T10:14:05Z</time>
      </trkpt>
      <trkpt lat="44.61215" lon="2.2356">
        <ele>175</ele>
        <time>2021-08-30T10:14:33Z</time>
      </trkpt>
      <trkpt lat="44.61199" lon="2.23533">
        <ele>172</ele>
        <time>2021-08-30T10:14:39Z</time>
      </trkpt>
      <trkpt lat="44.61193" lon="2.23525">
        <ele>171</ele>
        <time>2021-08-30T10:14:41Z</time>
      </trkpt>
      <trkpt lat="44.6108" lon="2.23375">
        <ele>162</ele>
        <time>2021-08-30T10:15:10Z</time>
      </trkpt>
      <trkpt lat="44.6106" lon="2.23354">
        <ele>166</ele>
        <time>2021-08-30T10:15:15Z</time>
      </trkpt>
      <trkpt lat="44.61027" lon="2.23333">
        <ele>167</ele>
        <time>2021-08-30T10:15:24Z</time>
      </trkpt>
      <trkpt lat="44.60987" lon="2.23297">
        <ele>165</ele>
        <time>2021-08-30T10:15:34Z</time>
      </trkpt>
      <trkpt lat="44.60973" lon="2.23288">
        <ele>165</ele>
        <time>2021-08-30T10:15:37Z</time>
      </trkpt>
      <trkpt lat="44.60957" lon="2.23283">
        <ele>166</ele>
        <time>2021-08-30T10:15:41Z</time>
      </trkpt>
      <trkpt lat="44.60936" lon="2.23272">
        <ele>167</ele>
        <time>2021-08-30T10:15:46Z</time>
      </trkpt>
      <trkpt lat="44.60923" lon="2.23257">
        <ele>164</ele>
        <time>2021-08-30T10:15:50Z</time>
      </trkpt>
      <trkpt lat="44.6092" lon="2.23251">
        <ele>164</ele>
        <time>2021-08-30T10:15:51Z</time>
      </trkpt>
      <trkpt lat="44.60916" lon="2.23234">
        <ele>164</ele>
        <time>2021-08-30T10:15:53Z</time>
      </trkpt>
      <trkpt lat="44.60916" lon="2.23224">
        <ele>164</ele>
        <time>2021-08-30T10:15:54Z</time>
      </trkpt>
      <trkpt lat="44.60916" lon="2.23196">
        <ele>165</ele>
        <time>2021-08-30T10:15:57Z</time>
      </trkpt>
      <trkpt lat="44.60916" lon="2.23189">
        <ele>166</ele>
        <time>2021-08-30T10:15:58Z</time>
      </trkpt>
      <trkpt lat="44.60911" lon="2.23174">
        <ele>167</ele>
        <time>2021-08-30T10:16:00Z</time>
      </trkpt>
      <trkpt lat="44.60896" lon="2.23149">
        <ele>167</ele>
        <time>2021-08-30T10:16:04Z</time>
      </trkpt>
      <trkpt lat="44.60889" lon="2.23142">
        <ele>167</ele>
        <time>2021-08-30T10:16:06Z</time>
      </trkpt>
      <trkpt lat="44.6085" lon="2.23142">
        <ele>167</ele>
        <time>2021-08-30T10:16:16Z</time>
      </trkpt>
      <trkpt lat="44.60825" lon="2.23147">
        <ele>167</ele>
        <time>2021-08-30T10:16:24Z</time>
      </trkpt>
      <trkpt lat="44.60797" lon="2.23148">
        <ele>167</ele>
        <time>2021-08-30T10:16:32Z</time>
      </trkpt>
      <trkpt lat="44.60741" lon="2.23132">
        <ele>174</ele>
        <time>2021-08-30T10:16:46Z</time>
      </trkpt>
      <trkpt lat="44.60733" lon="2.2313">
        <ele>175</ele>
        <time>2021-08-30T10:16:48Z</time>
      </trkpt>
      <trkpt lat="44.60689" lon="2.23111">
        <ele>177</ele>
        <time>2021-08-30T10:16:59Z</time>
      </trkpt>
      <trkpt lat="44.60661" lon="2.23107">
        <ele>180</ele>
        <time>2021-08-30T10:17:07Z</time>
      </trkpt>
      <trkpt lat="44.60611" lon="2.23089">
        <ele>181</ele>
        <time>2021-08-30T10:17:20Z</time>
      </trkpt>
      <trkpt lat="44.60435" lon="2.231">
        <ele>182</ele>
        <time>2021-08-30T10:17:51Z</time>
      </trkpt>
      <trkpt lat="44.60381" lon="2.23108">
        <ele>186</ele>
        <time>2021-08-30T10:18:01Z</time>
      </trkpt>
      <trkpt lat="44.60345" lon="2.2312">
        <ele>189</ele>
        <time>2021-08-30T10:18:08Z</time>
      </trkpt>
      <trkpt lat="44.60331" lon="2.23123">
        <ele>188</ele>
        <time>2021-08-30T10:18:11Z</time>
      </trkpt>
      <trkpt lat="44.60278" lon="2.23146">
        <ele>191</ele>
        <time>2021-08-30T10:18:23Z</time>
      </trkpt>
      <trkpt lat="44.60238" lon="2.23156">
        <ele>196</ele>
        <time>2021-08-30T10:18:32Z</time>
      </trkpt>
      <trkpt lat="44.60116" lon="2.23202">
        <ele>198</ele>
        <time>2021-08-30T10:19:02Z</time>
      </trkpt>
      <trkpt lat="44.60085" lon="2.23211">
        <ele>202</ele>
        <time>2021-08-30T10:19:10Z</time>
      </trkpt>
      <trkpt lat="44.6006" lon="2.2321">
        <ele>204</ele>
        <time>2021-08-30T10:19:16Z</time>
      </trkpt>
      <trkpt lat="44.60025" lon="2.23202">
        <ele>201</ele>
        <time>2021-08-30T10:19:26Z</time>
      </trkpt>
      <trkpt lat="44.60006" lon="2.23205">
        <ele>201</ele>
        <time>2021-08-30T10:19:32Z</time>
      </trkpt>
      <trkpt lat="44.59994" lon="2.2321">
        <ele>201</ele>
        <time>2021-08-30T10:19:36Z</time>
      </trkpt>
      <trkpt lat="44.59989" lon="2.2321">
        <ele>202</ele>
        <time>2021-08-30T10:19:38Z</time>
      </trkpt>
      <trkpt lat="44.59984" lon="2.23208">
        <ele>201</ele>
        <time>2021-08-30T10:19:40Z</time>
      </trkpt>
      <trkpt lat="44.59981" lon="2.23203">
        <ele>202</ele>
        <time>2021-08-30T10:19:43Z</time>
      </trkpt>
      <trkpt lat="44.59979" lon="2.23197">
        <ele>202</ele>
        <time>2021-08-30T10:19:47Z</time>
      </trkpt>
      <trkpt lat="44.59975" lon="2.23194">
        <ele>202</ele>
        <time>2021-08-30T10:19:50Z</time>
      </trkpt>
      <trkpt lat="44.59972" lon="2.23199">
        <ele>202</ele>
        <time>2021-08-30T10:19:53Z</time>
      </trkpt>
      <trkpt lat="44.59974" lon="2.23208">
        <ele>201</ele>
        <time>2021-08-30T10:20:48Z</time>
      </trkpt>
      <trkpt lat="44.59973" lon="2.23214">
        <ele>201</ele>
        <time>2021-08-30T10:20:49Z</time>
      </trkpt>
      <trkpt lat="44.59969" lon="2.23225">
        <ele>201</ele>
        <time>2021-08-30T10:20:51Z</time>
      </trkpt>
      <trkpt lat="44.59955" lon="2.23238">
        <ele>200</ele>
        <time>2021-08-30T10:20:55Z</time>
      </trkpt>
      <trkpt lat="44.59931" lon="2.23243">
        <ele>201</ele>
        <time>2021-08-30T10:21:04Z</time>
      </trkpt>
      <trkpt lat="44.59882" lon="2.23239">
        <ele>205</ele>
        <time>2021-08-30T10:21:24Z</time>
      </trkpt>
      <trkpt lat="44.59871" lon="2.23236">
        <ele>205</ele>
        <time>2021-08-30T10:21:29Z</time>
      </trkpt>
      <trkpt lat="44.59865" lon="2.23236">
        <ele>206</ele>
        <time>2021-08-30T10:21:32Z</time>
      </trkpt>
      <trkpt lat="44.5986" lon="2.23235">
        <ele>206</ele>
        <time>2021-08-30T10:21:34Z</time>
      </trkpt>
      <trkpt lat="44.59854" lon="2.23233">
        <ele>206</ele>
        <time>2021-08-30T10:21:37Z</time>
      </trkpt>
      <trkpt lat="44.59839" lon="2.2323">
        <ele>207</ele>
        <time>2021-08-30T10:21:44Z</time>
      </trkpt>
      <trkpt lat="44.59821" lon="2.23229">
        <ele>206</ele>
        <time>2021-08-30T10:21:53Z</time>
      </trkpt>
      <trkpt lat="44.59806" lon="2.23236">
        <ele>205</ele>
        <time>2021-08-30T10:22:02Z</time>
      </trkpt>
      <trkpt lat="44.59802" lon="2.23239">
        <ele>205</ele>
        <time>2021-08-30T10:22:05Z</time>
      </trkpt>
      <trkpt lat="44.59799" lon="2.23245">
        <ele>205</ele>
        <time>2021-08-30T10:22:08Z</time>
      </trkpt>
      <trkpt lat="44.59794" lon="2.23261">
        <ele>208</ele>
        <time>2021-08-30T10:22:14Z</time>
      </trkpt>
      <trkpt lat="44.59792" lon="2.2327">
        <ele>211</ele>
        <time>2021-08-30T10:22:17Z</time>
      </trkpt>
      <trkpt lat="44.5979" lon="2.23286">
        <ele>216</ele>
        <time>2021-08-30T10:22:23Z</time>
      </trkpt>
      <trkpt lat="44.59789" lon="2.23293">
        <ele>218</ele>
        <time>2021-08-30T10:22:26Z</time>
      </trkpt>
      <trkpt lat="44.59788" lon="2.23307">
        <ele>220</ele>
        <time>2021-08-30T10:22:32Z</time>
      </trkpt>
      <trkpt lat="44.59784" lon="2.23311">
        <ele>220</ele>
        <time>2021-08-30T10:22:35Z</time>
      </trkpt>
      <trkpt lat="44.59779" lon="2.23313">
        <ele>219</ele>
        <time>2021-08-30T10:22:37Z</time>
      </trkpt>
      <trkpt lat="44.59661" lon="2.23277">
        <ele>214</ele>
        <time>2021-08-30T10:23:09Z</time>
      </trkpt>
      <trkpt lat="44.59549" lon="2.23289">
        <ele>209</ele>
        <time>2021-08-30T10:23:40Z</time>
      </trkpt>
      <trkpt lat="44.59499" lon="2.23299">
        <ele>206</ele>
        <time>2021-08-30T10:23:53Z</time>
      </trkpt>
      <trkpt lat="44.59472" lon="2.23296">
        <ele>204</ele>
        <time>2021-08-30T10:24:00Z</time>
      </trkpt>
      <trkpt lat="44.59463" lon="2.23291">
        <ele>204</ele>
        <time>2021-08-30T10:24:02Z</time>
      </trkpt>
      <trkpt lat="44.59445" lon="2.23275">
        <ele>205</ele>
        <time>2021-08-30T10:24:06Z</time>
      </trkpt>
      <trkpt lat="44.59412" lon="2.23215">
        <ele>208</ele>
        <time>2021-08-30T10:24:15Z</time>
      </trkpt>
      <trkpt lat="44.59402" lon="2.23204">
        <ele>207</ele>
        <time>2021-08-30T10:24:17Z</time>
      </trkpt>
      <trkpt lat="44.59391" lon="2.23196">
        <ele>207</ele>
        <time>2021-08-30T10:24:19Z</time>
      </trkpt>
      <trkpt lat="44.59275" lon="2.2318">
        <ele>206</ele>
        <time>2021-08-30T10:24:36Z</time>
      </trkpt>
      <trkpt lat="44.59258" lon="2.23171">
        <ele>206</ele>
        <time>2021-08-30T10:24:39Z</time>
      </trkpt>
      <trkpt lat="44.59246" lon="2.23158">
        <ele>205</ele>
        <time>2021-08-30T10:24:42Z</time>
      </trkpt>
      <trkpt lat="44.59238" lon="2.23156">
        <ele>204</ele>
        <time>2021-08-30T10:24:44Z</time>
      </trkpt>
      <trkpt lat="44.59224" lon="2.23174">
        <ele>202</ele>
        <time>2021-08-30T10:24:48Z</time>
      </trkpt>
      <trkpt lat="44.59213" lon="2.23186">
        <ele>201</ele>
        <time>2021-08-30T10:24:52Z</time>
      </trkpt>
      <trkpt lat="44.59207" lon="2.23189">
        <ele>199</ele>
        <time>2021-08-30T10:24:55Z</time>
      </trkpt>
      <trkpt lat="44.59189" lon="2.23178">
        <ele>195</ele>
        <time>2021-08-30T10:25:01Z</time>
      </trkpt>
      <trkpt lat="44.59181" lon="2.23162">
        <ele>192</ele>
        <time>2021-08-30T10:25:06Z</time>
      </trkpt>
      <trkpt lat="44.59168" lon="2.23146">
        <ele>190</ele>
        <time>2021-08-30T10:25:12Z</time>
      </trkpt>
      <trkpt lat="44.59161" lon="2.23136">
        <ele>186</ele>
        <time>2021-08-30T10:25:16Z</time>
      </trkpt>
      <trkpt lat="44.59155" lon="2.23124">
        <ele>187</ele>
        <time>2021-08-30T10:25:21Z</time>
      </trkpt>
      <trkpt lat="44.5915" lon="2.23122">
        <ele>187</ele>
        <time>2021-08-30T10:25:24Z</time>
      </trkpt>
      <trkpt lat="44.59143" lon="2.23127">
        <ele>186</ele>
        <time>2021-08-30T10:25:32Z</time>
      </trkpt>
      <trkpt lat="44.59138" lon="2.23134">
        <ele>180</ele>
        <time>2021-08-30T10:25:36Z</time>
      </trkpt>
      <trkpt lat="44.59132" lon="2.23138">
        <ele>179</ele>
        <time>2021-08-30T10:25:44Z</time>
      </trkpt>
      <trkpt lat="44.59135" lon="2.23146">
        <ele>186</ele>
        <time>2021-08-30T10:26:15Z</time>
      </trkpt>
      <trkpt lat="44.59121" lon="2.23175">
        <ele>189</ele>
        <time>2021-08-30T10:26:27Z</time>
      </trkpt>
      <trkpt lat="44.59122" lon="2.23188">
        <ele>190</ele>
        <time>2021-08-30T10:27:04Z</time>
      </trkpt>
      <trkpt lat="44.59116" lon="2.23183">
        <ele>192</ele>
        <time>2021-08-30T10:27:56Z</time>
      </trkpt>
      <trkpt lat="44.5911" lon="2.23182">
        <ele>196</ele>
        <time>2021-08-30T10:27:58Z</time>
      </trkpt>
      <trkpt lat="44.59115" lon="2.23177">
        <ele>199</ele>
        <time>2021-08-30T10:28:01Z</time>
      </trkpt>
      <trkpt lat="44.59109" lon="2.23161">
        <ele>209</ele>
        <time>2021-08-30T10:28:08Z</time>
      </trkpt>
      <trkpt lat="44.59104" lon="2.23156">
        <ele>214</ele>
        <time>2021-08-30T10:28:10Z</time>
      </trkpt>
      <trkpt lat="44.59099" lon="2.23124">
        <ele>218</ele>
        <time>2021-08-30T10:28:18Z</time>
      </trkpt>
      <trkpt lat="44.59107" lon="2.23113">
        <ele>215</ele>
        <time>2021-08-30T10:28:23Z</time>
      </trkpt>
      <trkpt lat="44.59105" lon="2.23105">
        <ele>215</ele>
        <time>2021-08-30T10:32:20Z</time>
      </trkpt>
      <trkpt lat="44.59099" lon="2.23108">
        <ele>215</ele>
        <time>2021-08-30T10:32:57Z</time>
      </trkpt>
      <trkpt lat="44.59102" lon="2.2311">
        <ele>226</ele>
        <time>2021-08-30T10:53:32Z</time>
      </trkpt>
      <trkpt lat="44.59101" lon="2.23118">
        <ele>220</ele>
        <time>2021-08-30T10:57:41Z</time>
      </trkpt>
      <trkpt lat="44.59107" lon="2.23147">
        <ele>217</ele>
        <time>2021-08-30T10:57:54Z</time>
      </trkpt>
      <trkpt lat="44.59111" lon="2.23155">
        <ele>215</ele>
        <time>2021-08-30T10:57:59Z</time>
      </trkpt>
      <trkpt lat="44.59113" lon="2.23162">
        <ele>215</ele>
        <time>2021-08-30T10:58:18Z</time>
      </trkpt>
      <trkpt lat="44.5911" lon="2.23173">
        <ele>214</ele>
        <time>2021-08-30T10:58:32Z</time>
      </trkpt>
      <trkpt lat="44.59118" lon="2.23184">
        <ele>213</ele>
        <time>2021-08-30T10:59:19Z</time>
      </trkpt>
      <trkpt lat="44.59124" lon="2.23193">
        <ele>216</ele>
        <time>2021-08-30T10:59:22Z</time>
      </trkpt>
      <trkpt lat="44.59123" lon="2.23199">
        <ele>216</ele>
        <time>2021-08-30T11:00:42Z</time>
      </trkpt>
      <trkpt lat="44.59126" lon="2.23201">
        <ele>213</ele>
        <time>2021-08-30T11:20:49Z</time>
      </trkpt>
      <trkpt lat="44.59127" lon="2.23203">
        <ele>210</ele>
        <time>2021-08-30T11:30:40Z</time>
      </trkpt>
      <trkpt lat="44.59129" lon="2.23186">
        <ele>218</ele>
        <time>2021-08-30T11:31:04Z</time>
      </trkpt>
      <trkpt lat="44.59129" lon="2.23178">
        <ele>217</ele>
        <time>2021-08-30T11:31:07Z</time>
      </trkpt>
      <trkpt lat="44.59128" lon="2.23169">
        <ele>217</ele>
        <time>2021-08-30T11:31:14Z</time>
      </trkpt>
      <trkpt lat="44.59126" lon="2.23163">
        <ele>216</ele>
        <time>2021-08-30T11:31:17Z</time>
      </trkpt>
      <trkpt lat="44.59128" lon="2.23155">
        <ele>218</ele>
        <time>2021-08-30T11:31:21Z</time>
      </trkpt>
      <trkpt lat="44.5913" lon="2.23147">
        <ele>221</ele>
        <time>2021-08-30T11:31:25Z</time>
      </trkpt>
      <trkpt lat="44.5913" lon="2.2314">
        <ele>225</ele>
        <time>2021-08-30T11:31:29Z</time>
      </trkpt>
      <trkpt lat="44.5913" lon="2.23132">
        <ele>227</ele>
        <time>2021-08-30T11:31:33Z</time>
      </trkpt>
      <trkpt lat="44.59134" lon="2.23129">
        <ele>229</ele>
        <time>2021-08-30T11:31:35Z</time>
      </trkpt>
      <trkpt lat="44.59144" lon="2.23121">
        <ele>230</ele>
        <time>2021-08-30T11:31:41Z</time>
      </trkpt>
      <trkpt lat="44.59143" lon="2.23136">
        <ele>228</ele>
        <time>2021-08-30T11:31:56Z</time>
      </trkpt>
      <trkpt lat="44.59143" lon="2.23144">
        <ele>221</ele>
        <time>2021-08-30T11:32:00Z</time>
      </trkpt>
      <trkpt lat="44.59141" lon="2.23151">
        <ele>216</ele>
        <time>2021-08-30T11:32:03Z</time>
      </trkpt>
      <trkpt lat="44.59137" lon="2.23157">
        <ele>214</ele>
        <time>2021-08-30T11:32:05Z</time>
      </trkpt>
      <trkpt lat="44.59127" lon="2.23168">
        <ele>211</ele>
        <time>2021-08-30T11:32:09Z</time>
      </trkpt>
      <trkpt lat="44.59124" lon="2.23174">
        <ele>210</ele>
        <time>2021-08-30T11:32:12Z</time>
      </trkpt>
      <trkpt lat="44.59123" lon="2.23181">
        <ele>209</ele>
        <time>2021-08-30T11:32:14Z</time>
      </trkpt>
      <trkpt lat="44.59114" lon="2.23201">
        <ele>204</ele>
        <time>2021-08-30T11:32:20Z</time>
      </trkpt>
      <trkpt lat="44.59113" lon="2.2321">
        <ele>203</ele>
        <time>2021-08-30T11:32:23Z</time>
      </trkpt>
      <trkpt lat="44.59109" lon="2.23215">
        <ele>201</ele>
        <time>2021-08-30T11:32:25Z</time>
      </trkpt>
      <trkpt lat="44.59101" lon="2.23218">
        <ele>199</ele>
        <time>2021-08-30T11:32:27Z</time>
      </trkpt>
      <trkpt lat="44.59093" lon="2.2322">
        <ele>196</ele>
        <time>2021-08-30T11:32:29Z</time>
      </trkpt>
      <trkpt lat="44.59085" lon="2.23222">
        <ele>194</ele>
        <time>2021-08-30T11:32:31Z</time>
      </trkpt>
      <trkpt lat="44.59078" lon="2.23222">
        <ele>191</ele>
        <time>2021-08-30T11:32:33Z</time>
      </trkpt>
      <trkpt lat="44.59073" lon="2.23223">
        <ele>189</ele>
        <time>2021-08-30T11:32:35Z</time>
      </trkpt>
      <trkpt lat="44.59054" lon="2.23228">
        <ele>176</ele>
        <time>2021-08-30T11:32:40Z</time>
      </trkpt>
      <trkpt lat="44.59048" lon="2.23232">
        <ele>166</ele>
        <time>2021-08-30T11:32:43Z</time>
      </trkpt>
      <trkpt lat="44.59042" lon="2.23234">
        <ele>162</ele>
        <time>2021-08-30T11:32:45Z</time>
      </trkpt>
      <trkpt lat="44.59032" lon="2.23228">
        <ele>149</ele>
        <time>2021-08-30T11:32:48Z</time>
      </trkpt>
      <trkpt lat="44.59019" lon="2.23231">
        <ele>145</ele>
        <time>2021-08-30T11:32:50Z</time>
      </trkpt>
      <trkpt lat="44.58994" lon="2.23234">
        <ele>146</ele>
        <time>2021-08-30T11:32:53Z</time>
      </trkpt>
      <trkpt lat="44.58968" lon="2.2323">
        <ele>147</ele>
        <time>2021-08-30T11:32:58Z</time>
      </trkpt>
      <trkpt lat="44.5896" lon="2.2323">
        <ele>143</ele>
        <time>2021-08-30T11:33:01Z</time>
      </trkpt>
      <trkpt lat="44.5895" lon="2.2323">
        <ele>143</ele>
        <time>2021-08-30T11:33:05Z</time>
      </trkpt>
      <trkpt lat="44.5894" lon="2.23233">
        <ele>150</ele>
        <time>2021-08-30T11:33:16Z</time>
      </trkpt>
      <trkpt lat="44.58929" lon="2.23232">
        <ele>157</ele>
        <time>2021-08-30T11:34:02Z</time>
      </trkpt>
      <trkpt lat="44.58924" lon="2.23229">
        <ele>158</ele>
        <time>2021-08-30T11:34:11Z</time>
      </trkpt>
      <trkpt lat="44.58903" lon="2.23194">
        <ele>160</ele>
        <time>2021-08-30T11:34:24Z</time>
      </trkpt>
      <trkpt lat="44.58846" lon="2.23149">
        <ele>155</ele>
        <time>2021-08-30T11:34:46Z</time>
      </trkpt>
      <trkpt lat="44.58841" lon="2.23143">
        <ele>153</ele>
        <time>2021-08-30T11:34:48Z</time>
      </trkpt>
      <trkpt lat="44.58822" lon="2.23123">
        <ele>150</ele>
        <time>2021-08-30T11:34:54Z</time>
      </trkpt>
      <trkpt lat="44.58819" lon="2.23116">
        <ele>148</ele>
        <time>2021-08-30T11:34:56Z</time>
      </trkpt>
      <trkpt lat="44.58795" lon="2.23097">
        <ele>145</ele>
        <time>2021-08-30T11:35:04Z</time>
      </trkpt>
      <trkpt lat="44.58788" lon="2.23094">
        <ele>144</ele>
        <time>2021-08-30T11:35:06Z</time>
      </trkpt>
      <trkpt lat="44.58766" lon="2.23093">
        <ele>149</ele>
        <time>2021-08-30T11:35:11Z</time>
      </trkpt>
      <trkpt lat="44.5876" lon="2.23096">
        <ele>153</ele>
        <time>2021-08-30T11:35:40Z</time>
      </trkpt>
      <trkpt lat="44.58754" lon="2.23111">
        <ele>156</ele>
        <time>2021-08-30T11:35:44Z</time>
      </trkpt>
      <trkpt lat="44.58753" lon="2.23119">
        <ele>156</ele>
        <time>2021-08-30T11:35:46Z</time>
      </trkpt>
      <trkpt lat="44.5875" lon="2.23124">
        <ele>160</ele>
        <time>2021-08-30T11:36:01Z</time>
      </trkpt>
      <trkpt lat="44.58752" lon="2.23131">
        <ele>163</ele>
        <time>2021-08-30T11:37:40Z</time>
      </trkpt>
      <trkpt lat="44.58757" lon="2.2313">
        <ele>163</ele>
        <time>2021-08-30T11:37:43Z</time>
      </trkpt>
      <trkpt lat="44.58761" lon="2.23124">
        <ele>163</ele>
        <time>2021-08-30T11:37:45Z</time>
      </trkpt>
      <trkpt lat="44.5876" lon="2.23116">
        <ele>170</ele>
        <time>2021-08-30T11:37:47Z</time>
      </trkpt>
      <trkpt lat="44.58757" lon="2.23108">
        <ele>172</ele>
        <time>2021-08-30T11:37:49Z</time>
      </trkpt>
      <trkpt lat="44.58724" lon="2.23003">
        <ele>181</ele>
        <time>2021-08-30T11:38:13Z</time>
      </trkpt>
      <trkpt lat="44.58707" lon="2.22976">
        <ele>182</ele>
        <time>2021-08-30T11:38:21Z</time>
      </trkpt>
      <trkpt lat="44.58685" lon="2.22954">
        <ele>182</ele>
        <time>2021-08-30T11:38:29Z</time>
      </trkpt>
      <trkpt lat="44.58584" lon="2.22891">
        <ele>183</ele>
        <time>2021-08-30T11:38:59Z</time>
      </trkpt>
      <trkpt lat="44.58539" lon="2.22865">
        <ele>184</ele>
        <time>2021-08-30T11:39:11Z</time>
      </trkpt>
      <trkpt lat="44.58532" lon="2.2286">
        <ele>183</ele>
        <time>2021-08-30T11:39:13Z</time>
      </trkpt>
      <trkpt lat="44.58516" lon="2.22833">
        <ele>183</ele>
        <time>2021-08-30T11:39:19Z</time>
      </trkpt>
      <trkpt lat="44.5851" lon="2.22812">
        <ele>182</ele>
        <time>2021-08-30T11:39:23Z</time>
      </trkpt>
      <trkpt lat="44.58508" lon="2.22789">
        <ele>180</ele>
        <time>2021-08-30T11:39:27Z</time>
      </trkpt>
      <trkpt lat="44.58509" lon="2.22764">
        <ele>181</ele>
        <time>2021-08-30T11:39:31Z</time>
      </trkpt>
      <trkpt lat="44.58517" lon="2.2273">
        <ele>180</ele>
        <time>2021-08-30T11:39:37Z</time>
      </trkpt>
      <trkpt lat="44.58584" lon="2.22574">
        <ele>175</ele>
        <time>2021-08-30T11:40:08Z</time>
      </trkpt>
      <trkpt lat="44.5862" lon="2.22514">
        <ele>180</ele>
        <time>2021-08-30T11:40:20Z</time>
      </trkpt>
      <trkpt lat="44.58643" lon="2.22481">
        <ele>179</ele>
        <time>2021-08-30T11:40:28Z</time>
      </trkpt>
      <trkpt lat="44.58732" lon="2.22347">
        <ele>181</ele>
        <time>2021-08-30T11:40:59Z</time>
      </trkpt>
      <trkpt lat="44.58752" lon="2.22313">
        <ele>180</ele>
        <time>2021-08-30T11:41:07Z</time>
      </trkpt>
      <trkpt lat="44.58772" lon="2.2226">
        <ele>177</ele>
        <time>2021-08-30T11:41:19Z</time>
      </trkpt>
      <trkpt lat="44.58779" lon="2.22224">
        <ele>177</ele>
        <time>2021-08-30T11:41:27Z</time>
      </trkpt>
      <trkpt lat="44.58811" lon="2.22159">
        <ele>185</ele>
        <time>2021-08-30T11:41:43Z</time>
      </trkpt>
      <trkpt lat="44.58853" lon="2.2204">
        <ele>194</ele>
        <time>2021-08-30T11:42:11Z</time>
      </trkpt>
      <trkpt lat="44.5886" lon="2.22018">
        <ele>194</ele>
        <time>2021-08-30T11:42:15Z</time>
      </trkpt>
      <trkpt lat="44.58865" lon="2.22">
        <ele>194</ele>
        <time>2021-08-30T11:42:18Z</time>
      </trkpt>
      <trkpt lat="44.58873" lon="2.21979">
        <ele>195</ele>
        <time>2021-08-30T11:42:22Z</time>
      </trkpt>
      <trkpt lat="44.58878" lon="2.21957">
        <ele>196</ele>
        <time>2021-08-30T11:42:26Z</time>
      </trkpt>
      <trkpt lat="44.58901" lon="2.21895">
        <ele>204</ele>
        <time>2021-08-30T11:42:37Z</time>
      </trkpt>
      <trkpt lat="44.58977" lon="2.21767">
        <ele>199</ele>
        <time>2021-08-30T11:43:01Z</time>
      </trkpt>
      <trkpt lat="44.58993" lon="2.21749">
        <ele>198</ele>
        <time>2021-08-30T11:43:05Z</time>
      </trkpt>
      <trkpt lat="44.59011" lon="2.21718">
        <ele>197</ele>
        <time>2021-08-30T11:43:11Z</time>
      </trkpt>
      <trkpt lat="44.59097" lon="2.21595">
        <ele>192</ele>
        <time>2021-08-30T11:43:36Z</time>
      </trkpt>
      <trkpt lat="44.59197" lon="2.21503">
        <ele>189</ele>
        <time>2021-08-30T11:44:02Z</time>
      </trkpt>
      <trkpt lat="44.59227" lon="2.2146">
        <ele>186</ele>
        <time>2021-08-30T11:44:11Z</time>
      </trkpt>
      <trkpt lat="44.59227" lon="2.21454">
        <ele>185</ele>
        <time>2021-08-30T11:45:17Z</time>
      </trkpt>
      <trkpt lat="44.59232" lon="2.21451">
        <ele>185</ele>
        <time>2021-08-30T11:45:20Z</time>
      </trkpt>
      <trkpt lat="44.59285" lon="2.21406">
        <ele>187</ele>
        <time>2021-08-30T11:45:29Z</time>
      </trkpt>
      <trkpt lat="44.59417" lon="2.21232">
        <ele>181</ele>
        <time>2021-08-30T11:45:59Z</time>
      </trkpt>
      <trkpt lat="44.59424" lon="2.21221">
        <ele>180</ele>
        <time>2021-08-30T11:46:01Z</time>
      </trkpt>
      <trkpt lat="44.59427" lon="2.21215">
        <ele>180</ele>
        <time>2021-08-30T11:46:02Z</time>
      </trkpt>
      <trkpt lat="44.5943" lon="2.21207">
        <ele>179</ele>
        <time>2021-08-30T11:46:03Z</time>
      </trkpt>
      <trkpt lat="44.59431" lon="2.21182">
        <ele>177</ele>
        <time>2021-08-30T11:46:07Z</time>
      </trkpt>
      <trkpt lat="44.59438" lon="2.2116">
        <ele>174</ele>
        <time>2021-08-30T11:46:11Z</time>
      </trkpt>
      <trkpt lat="44.59463" lon="2.21114">
        <ele>171</ele>
        <time>2021-08-30T11:46:23Z</time>
      </trkpt>
      <trkpt lat="44.59476" lon="2.21105">
        <ele>170</ele>
        <time>2021-08-30T11:46:27Z</time>
      </trkpt>
      <trkpt lat="44.59481" lon="2.21099">
        <ele>169</ele>
        <time>2021-08-30T11:46:29Z</time>
      </trkpt>
      <trkpt lat="44.59531" lon="2.20974">
        <ele>168</ele>
        <time>2021-08-30T11:47:01Z</time>
      </trkpt>
      <trkpt lat="44.59546" lon="2.20929">
        <ele>171</ele>
        <time>2021-08-30T11:47:11Z</time>
      </trkpt>
      <trkpt lat="44.59547" lon="2.20918">
        <ele>171</ele>
        <time>2021-08-30T11:47:13Z</time>
      </trkpt>
      <trkpt lat="44.59551" lon="2.20871">
        <ele>171</ele>
        <time>2021-08-30T11:47:37Z</time>
      </trkpt>
      <trkpt lat="44.5955" lon="2.20884">
        <ele>173</ele>
        <time>2021-08-30T11:47:46Z</time>
      </trkpt>
      <trkpt lat="44.59551" lon="2.20863">
        <ele>175</ele>
        <time>2021-08-30T11:48:05Z</time>
      </trkpt>
      <trkpt lat="44.59546" lon="2.20816">
        <ele>180</ele>
        <time>2021-08-30T11:48:31Z</time>
      </trkpt>
      <trkpt lat="44.59545" lon="2.20809">
        <ele>180</ele>
        <time>2021-08-30T11:48:34Z</time>
      </trkpt>
      <trkpt lat="44.59542" lon="2.20802">
        <ele>180</ele>
        <time>2021-08-30T11:48:37Z</time>
      </trkpt>
      <trkpt lat="44.5952" lon="2.20713">
        <ele>178</ele>
        <time>2021-08-30T11:49:07Z</time>
      </trkpt>
      <trkpt lat="44.59516" lon="2.20712">
        <ele>179</ele>
        <time>2021-08-30T11:49:16Z</time>
      </trkpt>
      <trkpt lat="44.59518" lon="2.20719">
        <ele>179</ele>
        <time>2021-08-30T11:49:19Z</time>
      </trkpt>
      <trkpt lat="44.59434" lon="2.20735">
        <ele>175</ele>
        <time>2021-08-30T11:49:51Z</time>
      </trkpt>
      <trkpt lat="44.59429" lon="2.20734">
        <ele>173</ele>
        <time>2021-08-30T11:49:53Z</time>
      </trkpt>
      <trkpt lat="44.59416" lon="2.20739">
        <ele>171</ele>
        <time>2021-08-30T11:49:57Z</time>
      </trkpt>
      <trkpt lat="44.59275" lon="2.20756">
        <ele>173</ele>
        <time>2021-08-30T11:50:29Z</time>
      </trkpt>
      <trkpt lat="44.59197" lon="2.20771">
        <ele>176</ele>
        <time>2021-08-30T11:50:48Z</time>
      </trkpt>
      <trkpt lat="44.59186" lon="2.20769">
        <ele>177</ele>
        <time>2021-08-30T11:50:52Z</time>
      </trkpt>
      <trkpt lat="44.5918" lon="2.20764">
        <ele>178</ele>
        <time>2021-08-30T11:50:56Z</time>
      </trkpt>
      <trkpt lat="44.59168" lon="2.20741">
        <ele>180</ele>
        <time>2021-08-30T11:51:02Z</time>
      </trkpt>
      <trkpt lat="44.59135" lon="2.20696">
        <ele>181</ele>
        <time>2021-08-30T11:51:14Z</time>
      </trkpt>
      <trkpt lat="44.59073" lon="2.20621">
        <ele>183</ele>
        <time>2021-08-30T11:51:36Z</time>
      </trkpt>
      <trkpt lat="44.59051" lon="2.20609">
        <ele>183</ele>
        <time>2021-08-30T11:51:42Z</time>
      </trkpt>
      <trkpt lat="44.59004" lon="2.2059">
        <ele>186</ele>
        <time>2021-08-30T11:51:54Z</time>
      </trkpt>
      <trkpt lat="44.5894" lon="2.20542">
        <ele>188</ele>
        <time>2021-08-30T11:52:10Z</time>
      </trkpt>
      <trkpt lat="44.58864" lon="2.20529">
        <ele>189</ele>
        <time>2021-08-30T11:52:24Z</time>
      </trkpt>
      <trkpt lat="44.58754" lon="2.20527">
        <ele>193</ele>
        <time>2021-08-30T11:52:44Z</time>
      </trkpt>
      <trkpt lat="44.58716" lon="2.20513">
        <ele>192</ele>
        <time>2021-08-30T11:52:51Z</time>
      </trkpt>
      <trkpt lat="44.58614" lon="2.20453">
        <ele>189</ele>
        <time>2021-08-30T11:53:13Z</time>
      </trkpt>
      <trkpt lat="44.58565" lon="2.20393">
        <ele>196</ele>
        <time>2021-08-30T11:53:26Z</time>
      </trkpt>
      <trkpt lat="44.58547" lon="2.20376">
        <ele>197</ele>
        <time>2021-08-30T11:53:31Z</time>
      </trkpt>
      <trkpt lat="44.58544" lon="2.20372">
        <ele>198</ele>
        <time>2021-08-30T11:53:33Z</time>
      </trkpt>
      <trkpt lat="44.58539" lon="2.20368">
        <ele>198</ele>
        <time>2021-08-30T11:53:36Z</time>
      </trkpt>
      <trkpt lat="44.58533" lon="2.20367">
        <ele>195</ele>
        <time>2021-08-30T11:54:32Z</time>
      </trkpt>
      <trkpt lat="44.58513" lon="2.20344">
        <ele>196</ele>
        <time>2021-08-30T11:54:40Z</time>
      </trkpt>
      <trkpt lat="44.58476" lon="2.20316">
        <ele>197</ele>
        <time>2021-08-30T11:54:49Z</time>
      </trkpt>
      <trkpt lat="44.58447" lon="2.20285">
        <ele>197</ele>
        <time>2021-08-30T11:54:57Z</time>
      </trkpt>
      <trkpt lat="44.58325" lon="2.20212">
        <ele>202</ele>
        <time>2021-08-30T11:55:28Z</time>
      </trkpt>
      <trkpt lat="44.58219" lon="2.20164">
        <ele>206</ele>
        <time>2021-08-30T11:55:52Z</time>
      </trkpt>
      <trkpt lat="44.58185" lon="2.2016">
        <ele>208</ele>
        <time>2021-08-30T11:56:00Z</time>
      </trkpt>
      <trkpt lat="44.58167" lon="2.20145">
        <ele>208</ele>
        <time>2021-08-30T11:56:05Z</time>
      </trkpt>
      <trkpt lat="44.5813" lon="2.20077">
        <ele>208</ele>
        <time>2021-08-30T11:56:21Z</time>
      </trkpt>
      <trkpt lat="44.58128" lon="2.2007">
        <ele>207</ele>
        <time>2021-08-30T11:56:23Z</time>
      </trkpt>
      <trkpt lat="44.58128" lon="2.20056">
        <ele>205</ele>
        <time>2021-08-30T11:56:28Z</time>
      </trkpt>
      <trkpt lat="44.58131" lon="2.20051">
        <ele>205</ele>
        <time>2021-08-30T11:56:30Z</time>
      </trkpt>
      <trkpt lat="44.58134" lon="2.20044">
        <ele>204</ele>
        <time>2021-08-30T11:56:32Z</time>
      </trkpt>
      <trkpt lat="44.58135" lon="2.20034">
        <ele>201</ele>
        <time>2021-08-30T11:56:35Z</time>
      </trkpt>
      <trkpt lat="44.58102" lon="2.19936">
        <ele>195</ele>
        <time>2021-08-30T11:56:47Z</time>
      </trkpt>
      <trkpt lat="44.5808" lon="2.19885">
        <ele>193</ele>
        <time>2021-08-30T11:56:52Z</time>
      </trkpt>
      <trkpt lat="44.58038" lon="2.19793">
        <ele>189</ele>
        <time>2021-08-30T11:57:03Z</time>
      </trkpt>
      <trkpt lat="44.57998" lon="2.19716">
        <ele>185</ele>
        <time>2021-08-30T11:57:16Z</time>
      </trkpt>
      <trkpt lat="44.57983" lon="2.19661">
        <ele>185</ele>
        <time>2021-08-30T11:57:24Z</time>
      </trkpt>
      <trkpt lat="44.57982" lon="2.19624">
        <ele>184</ele>
        <time>2021-08-30T11:57:29Z</time>
      </trkpt>
      <trkpt lat="44.57987" lon="2.19595">
        <ele>184</ele>
        <time>2021-08-30T11:57:33Z</time>
      </trkpt>
      <trkpt lat="44.58023" lon="2.19483">
        <ele>186</ele>
        <time>2021-08-30T11:57:51Z</time>
      </trkpt>
      <trkpt lat="44.58025" lon="2.19461">
        <ele>188</ele>
        <time>2021-08-30T11:57:55Z</time>
      </trkpt>
      <trkpt lat="44.58034" lon="2.19425">
        <ele>190</ele>
        <time>2021-08-30T11:58:00Z</time>
      </trkpt>
      <trkpt lat="44.58038" lon="2.19418">
        <ele>190</ele>
        <time>2021-08-30T11:58:01Z</time>
      </trkpt>
      <trkpt lat="44.58084" lon="2.19372">
        <ele>187</ele>
        <time>2021-08-30T11:58:10Z</time>
      </trkpt>
      <trkpt lat="44.5814" lon="2.19283">
        <ele>189</ele>
        <time>2021-08-30T11:58:28Z</time>
      </trkpt>
      <trkpt lat="44.58149" lon="2.19271">
        <ele>189</ele>
        <time>2021-08-30T11:58:31Z</time>
      </trkpt>
      <trkpt lat="44.58162" lon="2.19246">
        <ele>191</ele>
        <time>2021-08-30T11:58:36Z</time>
      </trkpt>
      <trkpt lat="44.58217" lon="2.19148">
        <ele>187</ele>
        <time>2021-08-30T11:58:56Z</time>
      </trkpt>
      <trkpt lat="44.58224" lon="2.19132">
        <ele>186</ele>
        <time>2021-08-30T11:58:59Z</time>
      </trkpt>
      <trkpt lat="44.58231" lon="2.19122">
        <ele>187</ele>
        <time>2021-08-30T11:59:01Z</time>
      </trkpt>
      <trkpt lat="44.58235" lon="2.19112">
        <ele>187</ele>
        <time>2021-08-30T11:59:03Z</time>
      </trkpt>
      <trkpt lat="44.58255" lon="2.19045">
        <ele>187</ele>
        <time>2021-08-30T11:59:13Z</time>
      </trkpt>
      <trkpt lat="44.58269" lon="2.19015">
        <ele>190</ele>
        <time>2021-08-30T11:59:18Z</time>
      </trkpt>
      <trkpt lat="44.58271" lon="2.19002">
        <ele>191</ele>
        <time>2021-08-30T11:59:20Z</time>
      </trkpt>
      <trkpt lat="44.58271" lon="2.18995">
        <ele>192</ele>
        <time>2021-08-30T11:59:21Z</time>
      </trkpt>
      <trkpt lat="44.58274" lon="2.18946">
        <ele>190</ele>
        <time>2021-08-30T11:59:27Z</time>
      </trkpt>
      <trkpt lat="44.58266" lon="2.18867">
        <ele>187</ele>
        <time>2021-08-30T11:59:37Z</time>
      </trkpt>
      <trkpt lat="44.58257" lon="2.18795">
        <ele>190</ele>
        <time>2021-08-30T11:59:49Z</time>
      </trkpt>
      <trkpt lat="44.58254" lon="2.18784">
        <ele>193</ele>
        <time>2021-08-30T11:59:51Z</time>
      </trkpt>
      <trkpt lat="44.58227" lon="2.18678">
        <ele>200</ele>
        <time>2021-08-30T12:00:07Z</time>
      </trkpt>
      <trkpt lat="44.58168" lon="2.18504">
        <ele>203</ele>
        <time>2021-08-30T12:00:38Z</time>
      </trkpt>
      <trkpt lat="44.58144" lon="2.18423">
        <ele>200</ele>
        <time>2021-08-30T12:00:52Z</time>
      </trkpt>
      <trkpt lat="44.58123" lon="2.18333">
        <ele>200</ele>
        <time>2021-08-30T12:01:06Z</time>
      </trkpt>
      <trkpt lat="44.58118" lon="2.18306">
        <ele>201</ele>
        <time>2021-08-30T12:01:10Z</time>
      </trkpt>
      <trkpt lat="44.58059" lon="2.18108">
        <ele>204</ele>
        <time>2021-08-30T12:01:41Z</time>
      </trkpt>
      <trkpt lat="44.58049" lon="2.18062">
        <ele>204</ele>
        <time>2021-08-30T12:01:52Z</time>
      </trkpt>
      <trkpt lat="44.58028" lon="2.18034">
        <ele>201</ele>
        <time>2021-08-30T12:01:59Z</time>
      </trkpt>
      <trkpt lat="44.58017" lon="2.18022">
        <ele>196</ele>
        <time>2021-08-30T12:02:02Z</time>
      </trkpt>
      <trkpt lat="44.58003" lon="2.17997">
        <ele>194</ele>
        <time>2021-08-30T12:02:08Z</time>
      </trkpt>
      <trkpt lat="44.57969" lon="2.1797">
        <ele>189</ele>
        <time>2021-08-30T12:02:16Z</time>
      </trkpt>
      <trkpt lat="44.57938" lon="2.17957">
        <ele>188</ele>
        <time>2021-08-30T12:02:22Z</time>
      </trkpt>
      <trkpt lat="44.57926" lon="2.17956">
        <ele>188</ele>
        <time>2021-08-30T12:02:25Z</time>
      </trkpt>
      <trkpt lat="44.57898" lon="2.17971">
        <ele>185</ele>
        <time>2021-08-30T12:02:33Z</time>
      </trkpt>
      <trkpt lat="44.57893" lon="2.17977">
        <ele>184</ele>
        <time>2021-08-30T12:02:35Z</time>
      </trkpt>
      <trkpt lat="44.5788" lon="2.17985">
        <ele>183</ele>
        <time>2021-08-30T12:02:39Z</time>
      </trkpt>
      <trkpt lat="44.57861" lon="2.17999">
        <ele>182</ele>
        <time>2021-08-30T12:02:44Z</time>
      </trkpt>
      <trkpt lat="44.57802" lon="2.18061">
        <ele>175</ele>
        <time>2021-08-30T12:02:59Z</time>
      </trkpt>
      <trkpt lat="44.57787" lon="2.18074">
        <ele>173</ele>
        <time>2021-08-30T12:03:03Z</time>
      </trkpt>
      <trkpt lat="44.57774" lon="2.18087">
        <ele>171</ele>
        <time>2021-08-30T12:03:06Z</time>
      </trkpt>
      <trkpt lat="44.57753" lon="2.18099">
        <ele>170</ele>
        <time>2021-08-30T12:03:10Z</time>
      </trkpt>
      <trkpt lat="44.57671" lon="2.18127">
        <ele>165</ele>
        <time>2021-08-30T12:03:26Z</time>
      </trkpt>
      <trkpt lat="44.57632" lon="2.18135">
        <ele>164</ele>
        <time>2021-08-30T12:03:33Z</time>
      </trkpt>
      <trkpt lat="44.57597" lon="2.18143">
        <ele>166</ele>
        <time>2021-08-30T12:03:39Z</time>
      </trkpt>
      <trkpt lat="44.57537" lon="2.18142">
        <ele>165</ele>
        <time>2021-08-30T12:03:51Z</time>
      </trkpt>
      <trkpt lat="44.57507" lon="2.18135">
        <ele>164</ele>
        <time>2021-08-30T12:03:58Z</time>
      </trkpt>
      <trkpt lat="44.57468" lon="2.18112">
        <ele>165</ele>
        <time>2021-08-30T12:04:08Z</time>
      </trkpt>
      <trkpt lat="44.57429" lon="2.18072">
        <ele>167</ele>
        <time>2021-08-30T12:04:20Z</time>
      </trkpt>
      <trkpt lat="44.57398" lon="2.18013">
        <ele>171</ele>
        <time>2021-08-30T12:04:31Z</time>
      </trkpt>
      <trkpt lat="44.57361" lon="2.17908">
        <ele>181</ele>
        <time>2021-08-30T12:04:52Z</time>
      </trkpt>
      <trkpt lat="44.57346" lon="2.17845">
        <ele>190</ele>
        <time>2021-08-30T12:05:03Z</time>
      </trkpt>
      <trkpt lat="44.57336" lon="2.17817">
        <ele>189</ele>
        <time>2021-08-30T12:05:09Z</time>
      </trkpt>
      <trkpt lat="44.57334" lon="2.1781">
        <ele>188</ele>
        <time>2021-08-30T12:05:10Z</time>
      </trkpt>
      <trkpt lat="44.57325" lon="2.17706">
        <ele>202</ele>
        <time>2021-08-30T12:05:23Z</time>
      </trkpt>
      <trkpt lat="44.57269" lon="2.17463">
        <ele>208</ele>
        <time>2021-08-30T12:05:53Z</time>
      </trkpt>
      <trkpt lat="44.57259" lon="2.17414">
        <ele>208</ele>
        <time>2021-08-30T12:06:00Z</time>
      </trkpt>
      <trkpt lat="44.57234" lon="2.17174">
        <ele>200</ele>
        <time>2021-08-30T12:06:32Z</time>
      </trkpt>
      <trkpt lat="44.57211" lon="2.16961">
        <ele>198</ele>
        <time>2021-08-30T12:07:02Z</time>
      </trkpt>
      <trkpt lat="44.57181" lon="2.16819">
        <ele>202</ele>
        <time>2021-08-30T12:07:25Z</time>
      </trkpt>
      <trkpt lat="44.57166" lon="2.16609">
        <ele>199</ele>
        <time>2021-08-30T12:07:56Z</time>
      </trkpt>
      <trkpt lat="44.57167" lon="2.1649">
        <ele>202</ele>
        <time>2021-08-30T12:08:14Z</time>
      </trkpt>
      <trkpt lat="44.57164" lon="2.16482">
        <ele>202</ele>
        <time>2021-08-30T12:08:15Z</time>
      </trkpt>
      <trkpt lat="44.57162" lon="2.16474">
        <ele>203</ele>
        <time>2021-08-30T12:08:16Z</time>
      </trkpt>
      <trkpt lat="44.57163" lon="2.1644">
        <ele>203</ele>
        <time>2021-08-30T12:08:21Z</time>
      </trkpt>
      <trkpt lat="44.57139" lon="2.1626">
        <ele>197</ele>
        <time>2021-08-30T12:08:48Z</time>
      </trkpt>
      <trkpt lat="44.5714" lon="2.16242">
        <ele>197</ele>
        <time>2021-08-30T12:08:51Z</time>
      </trkpt>
      <trkpt lat="44.57126" lon="2.16167">
        <ele>192</ele>
        <time>2021-08-30T12:09:02Z</time>
      </trkpt>
      <trkpt lat="44.57128" lon="2.1612">
        <ele>189</ele>
        <time>2021-08-30T12:09:09Z</time>
      </trkpt>
      <trkpt lat="44.57141" lon="2.16088">
        <ele>186</ele>
        <time>2021-08-30T12:09:14Z</time>
      </trkpt>
      <trkpt lat="44.57151" lon="2.1607">
        <ele>185</ele>
        <time>2021-08-30T12:09:17Z</time>
      </trkpt>
      <trkpt lat="44.57161" lon="2.1604">
        <ele>182</ele>
        <time>2021-08-30T12:09:22Z</time>
      </trkpt>
      <trkpt lat="44.57164" lon="2.1601">
        <ele>178</ele>
        <time>2021-08-30T12:09:27Z</time>
      </trkpt>
      <trkpt lat="44.57151" lon="2.15975">
        <ele>176</ele>
        <time>2021-08-30T12:09:33Z</time>
      </trkpt>
      <trkpt lat="44.57137" lon="2.15942">
        <ele>174</ele>
        <time>2021-08-30T12:09:38Z</time>
      </trkpt>
      <trkpt lat="44.57132" lon="2.15933">
        <ele>174</ele>
        <time>2021-08-30T12:09:40Z</time>
      </trkpt>
      <trkpt lat="44.57125" lon="2.15926">
        <ele>174</ele>
        <time>2021-08-30T12:09:42Z</time>
      </trkpt>
      <trkpt lat="44.57118" lon="2.15921">
        <ele>175</ele>
        <time>2021-08-30T12:09:44Z</time>
      </trkpt>
      <trkpt lat="44.57104" lon="2.15922">
        <ele>177</ele>
        <time>2021-08-30T12:09:48Z</time>
      </trkpt>
      <trkpt lat="44.57093" lon="2.15929">
        <ele>176</ele>
        <time>2021-08-30T12:09:52Z</time>
      </trkpt>
      <trkpt lat="44.57059" lon="2.15928">
        <ele>177</ele>
        <time>2021-08-30T12:10:03Z</time>
      </trkpt>
      <trkpt lat="44.57055" lon="2.15926">
        <ele>178</ele>
        <time>2021-08-30T12:10:12Z</time>
      </trkpt>
      <trkpt lat="44.5705" lon="2.1592">
        <ele>178</ele>
        <time>2021-08-30T12:10:15Z</time>
      </trkpt>
      <trkpt lat="44.57047" lon="2.15914">
        <ele>178</ele>
        <time>2021-08-30T12:10:17Z</time>
      </trkpt>
      <trkpt lat="44.57042" lon="2.15909">
        <ele>178</ele>
        <time>2021-08-30T12:10:20Z</time>
      </trkpt>
      <trkpt lat="44.57041" lon="2.15903">
        <ele>178</ele>
        <time>2021-08-30T12:10:23Z</time>
      </trkpt>
      <trkpt lat="44.57038" lon="2.15898">
        <ele>178</ele>
        <time>2021-08-30T12:10:56Z</time>
      </trkpt>
      <trkpt lat="44.57044" lon="2.15899">
        <ele>176</ele>
        <time>2021-08-30T12:12:03Z</time>
      </trkpt>
      <trkpt lat="44.57046" lon="2.15906">
        <ele>176</ele>
        <time>2021-08-30T12:12:05Z</time>
      </trkpt>
      <trkpt lat="44.5705" lon="2.1592">
        <ele>179</ele>
        <time>2021-08-30T12:12:10Z</time>
      </trkpt>
      <trkpt lat="44.57064" lon="2.15949">
        <ele>185</ele>
        <time>2021-08-30T12:12:40Z</time>
      </trkpt>
      <trkpt lat="44.57069" lon="2.15958">
        <ele>185</ele>
        <time>2021-08-30T12:12:42Z</time>
      </trkpt>
      <trkpt lat="44.57102" lon="2.15986">
        <ele>184</ele>
        <time>2021-08-30T12:12:52Z</time>
      </trkpt>
      <trkpt lat="44.57117" lon="2.15989">
        <ele>186</ele>
        <time>2021-08-30T12:12:56Z</time>
      </trkpt>
      <trkpt lat="44.57219" lon="2.15991">
        <ele>188</ele>
        <time>2021-08-30T12:13:27Z</time>
      </trkpt>
      <trkpt lat="44.5734" lon="2.15998">
        <ele>182</ele>
        <time>2021-08-30T12:13:54Z</time>
      </trkpt>
      <trkpt lat="44.57378" lon="2.16005">
        <ele>184</ele>
        <time>2021-08-30T12:14:07Z</time>
      </trkpt>
      <trkpt lat="44.57384" lon="2.15994">
        <ele>184</ele>
        <time>2021-08-30T12:14:11Z</time>
      </trkpt>
      <trkpt lat="44.57383" lon="2.15987">
        <ele>183</ele>
        <time>2021-08-30T12:14:13Z</time>
      </trkpt>
      <trkpt lat="44.57381" lon="2.15981">
        <ele>183</ele>
        <time>2021-08-30T12:15:04Z</time>
      </trkpt>
      <trkpt lat="44.5738" lon="2.15973">
        <ele>183</ele>
        <time>2021-08-30T12:15:06Z</time>
      </trkpt>
      <trkpt lat="44.57379" lon="2.15923">
        <ele>183</ele>
        <time>2021-08-30T12:15:15Z</time>
      </trkpt>
      <trkpt lat="44.57363" lon="2.15818">
        <ele>184</ele>
        <time>2021-08-30T12:15:30Z</time>
      </trkpt>
      <trkpt lat="44.57297" lon="2.15562">
        <ele>184</ele>
        <time>2021-08-30T12:16:00Z</time>
      </trkpt>
      <trkpt lat="44.57233" lon="2.15329">
        <ele>197</ele>
        <time>2021-08-30T12:16:30Z</time>
      </trkpt>
      <trkpt lat="44.57185" lon="2.15079">
        <ele>227</ele>
        <time>2021-08-30T12:17:01Z</time>
      </trkpt>
      <trkpt lat="44.57165" lon="2.14836">
        <ele>237</ele>
        <time>2021-08-30T12:17:26Z</time>
      </trkpt>
      <trkpt lat="44.57182" lon="2.14655">
        <ele>228</ele>
        <time>2021-08-30T12:17:44Z</time>
      </trkpt>
      <trkpt lat="44.57189" lon="2.14614">
        <ele>223</ele>
        <time>2021-08-30T12:17:49Z</time>
      </trkpt>
      <trkpt lat="44.57191" lon="2.14608">
        <ele>223</ele>
        <time>2021-08-30T12:17:50Z</time>
      </trkpt>
      <trkpt lat="44.57196" lon="2.146">
        <ele>221</ele>
        <time>2021-08-30T12:17:52Z</time>
      </trkpt>
      <trkpt lat="44.572" lon="2.14599">
        <ele>220</ele>
        <time>2021-08-30T12:17:54Z</time>
      </trkpt>
      <trkpt lat="44.57201" lon="2.14596">
        <ele>210</ele>
        <time>2021-08-30T12:18:28Z</time>
      </trkpt>
      <trkpt lat="44.57209" lon="2.14595">
        <ele>208</ele>
        <time>2021-08-30T12:18:30Z</time>
      </trkpt>
      <trkpt lat="44.57311" lon="2.1459">
        <ele>200</ele>
        <time>2021-08-30T12:19:01Z</time>
      </trkpt>
      <trkpt lat="44.57322" lon="2.14586">
        <ele>198</ele>
        <time>2021-08-30T12:19:05Z</time>
      </trkpt>
      <trkpt lat="44.57328" lon="2.14584">
        <ele>198</ele>
        <time>2021-08-30T12:19:07Z</time>
      </trkpt>
      <trkpt lat="44.57332" lon="2.14578">
        <ele>199</ele>
        <time>2021-08-30T12:19:09Z</time>
      </trkpt>
      <trkpt lat="44.57335" lon="2.14572">
        <ele>199</ele>
        <time>2021-08-30T12:19:11Z</time>
      </trkpt>
      <trkpt lat="44.57341" lon="2.14573">
        <ele>200</ele>
        <time>2021-08-30T12:19:14Z</time>
      </trkpt>
      <trkpt lat="44.57343" lon="2.14581">
        <ele>200</ele>
        <time>2021-08-30T12:19:53Z</time>
      </trkpt>
      <trkpt lat="44.57379" lon="2.14606">
        <ele>203</ele>
        <time>2021-08-30T12:20:08Z</time>
      </trkpt>
      <trkpt lat="44.57416" lon="2.14619">
        <ele>211</ele>
        <time>2021-08-30T12:20:23Z</time>
      </trkpt>
      <trkpt lat="44.57422" lon="2.14621">
        <ele>209</ele>
        <time>2021-08-30T12:20:25Z</time>
      </trkpt>
      <trkpt lat="44.5743" lon="2.14622">
        <ele>207</ele>
        <time>2021-08-30T12:20:27Z</time>
      </trkpt>
      <trkpt lat="44.57475" lon="2.14627">
        <ele>204</ele>
        <time>2021-08-30T12:20:49Z</time>
      </trkpt>
      <trkpt lat="44.57555" lon="2.14625">
        <ele>206</ele>
        <time>2021-08-30T12:21:20Z</time>
      </trkpt>
      <trkpt lat="44.57578" lon="2.14617">
        <ele>207</ele>
        <time>2021-08-30T12:21:31Z</time>
      </trkpt>
      <trkpt lat="44.5761" lon="2.14604">
        <ele>208</ele>
        <time>2021-08-30T12:21:45Z</time>
      </trkpt>
      <trkpt lat="44.5762" lon="2.14597">
        <ele>209</ele>
        <time>2021-08-30T12:21:50Z</time>
      </trkpt>
      <trkpt lat="44.57625" lon="2.14595">
        <ele>209</ele>
        <time>2021-08-30T12:21:52Z</time>
      </trkpt>
      <trkpt lat="44.57688" lon="2.14537">
        <ele>211</ele>
        <time>2021-08-30T12:22:23Z</time>
      </trkpt>
      <trkpt lat="44.57719" lon="2.14524">
        <ele>213</ele>
        <time>2021-08-30T12:22:37Z</time>
      </trkpt>
      <trkpt lat="44.57793" lon="2.14504">
        <ele>216</ele>
        <time>2021-08-30T12:23:08Z</time>
      </trkpt>
      <trkpt lat="44.57806" lon="2.14498">
        <ele>217</ele>
        <time>2021-08-30T12:23:14Z</time>
      </trkpt>
      <trkpt lat="44.57851" lon="2.14456">
        <ele>216</ele>
        <time>2021-08-30T12:23:37Z</time>
      </trkpt>
      <trkpt lat="44.57897" lon="2.14374">
        <ele>217</ele>
        <time>2021-08-30T12:24:08Z</time>
      </trkpt>
      <trkpt lat="44.57902" lon="2.14362">
        <ele>216</ele>
        <time>2021-08-30T12:24:12Z</time>
      </trkpt>
      <trkpt lat="44.57905" lon="2.14344">
        <ele>216</ele>
        <time>2021-08-30T12:24:18Z</time>
      </trkpt>
      <trkpt lat="44.57903" lon="2.14324">
        <ele>215</ele>
        <time>2021-08-30T12:24:24Z</time>
      </trkpt>
      <trkpt lat="44.57901" lon="2.14307">
        <ele>215</ele>
        <time>2021-08-30T12:24:28Z</time>
      </trkpt>
      <trkpt lat="44.57906" lon="2.14229">
        <ele>216</ele>
        <time>2021-08-30T12:24:42Z</time>
      </trkpt>
      <trkpt lat="44.57926" lon="2.14157">
        <ele>214</ele>
        <time>2021-08-30T12:24:53Z</time>
      </trkpt>
      <trkpt lat="44.57956" lon="2.14064">
        <ele>210</ele>
        <time>2021-08-30T12:25:03Z</time>
      </trkpt>
      <trkpt lat="44.57962" lon="2.14055">
        <ele>208</ele>
        <time>2021-08-30T12:25:04Z</time>
      </trkpt>
      <trkpt lat="44.58008" lon="2.14026">
        <ele>202</ele>
        <time>2021-08-30T12:25:10Z</time>
      </trkpt>
      <trkpt lat="44.58014" lon="2.1402">
        <ele>201</ele>
        <time>2021-08-30T12:25:11Z</time>
      </trkpt>
      <trkpt lat="44.58018" lon="2.14011">
        <ele>200</ele>
        <time>2021-08-30T12:25:12Z</time>
      </trkpt>
      <trkpt lat="44.5802" lon="2.13974">
        <ele>198</ele>
        <time>2021-08-30T12:25:16Z</time>
      </trkpt>
      <trkpt lat="44.58021" lon="2.13964">
        <ele>198</ele>
        <time>2021-08-30T12:25:17Z</time>
      </trkpt>
      <trkpt lat="44.58032" lon="2.1394">
        <ele>196</ele>
        <time>2021-08-30T12:25:20Z</time>
      </trkpt>
      <trkpt lat="44.5805" lon="2.1393">
        <ele>194</ele>
        <time>2021-08-30T12:25:23Z</time>
      </trkpt>
      <trkpt lat="44.58077" lon="2.13925">
        <ele>192</ele>
        <time>2021-08-30T12:25:28Z</time>
      </trkpt>
      <trkpt lat="44.58109" lon="2.13897">
        <ele>191</ele>
        <time>2021-08-30T12:25:37Z</time>
      </trkpt>
      <trkpt lat="44.58127" lon="2.13877">
        <ele>192</ele>
        <time>2021-08-30T12:25:45Z</time>
      </trkpt>
      <trkpt lat="44.58132" lon="2.13873">
        <ele>192</ele>
        <time>2021-08-30T12:25:47Z</time>
      </trkpt>
      <trkpt lat="44.58146" lon="2.13854">
        <ele>192</ele>
        <time>2021-08-30T12:25:55Z</time>
      </trkpt>
      <trkpt lat="44.58171" lon="2.13831">
        <ele>199</ele>
        <time>2021-08-30T12:26:09Z</time>
      </trkpt>
      <trkpt lat="44.58176" lon="2.13827">
        <ele>202</ele>
        <time>2021-08-30T12:26:12Z</time>
      </trkpt>
      <trkpt lat="44.58196" lon="2.13813">
        <ele>214</ele>
        <time>2021-08-30T12:26:22Z</time>
      </trkpt>
      <trkpt lat="44.58248" lon="2.13793">
        <ele>218</ele>
        <time>2021-08-30T12:26:50Z</time>
      </trkpt>
      <trkpt lat="44.58306" lon="2.13828">
        <ele>227</ele>
        <time>2021-08-30T12:27:20Z</time>
      </trkpt>
      <trkpt lat="44.58362" lon="2.13846">
        <ele>232</ele>
        <time>2021-08-30T12:27:46Z</time>
      </trkpt>
      <trkpt lat="44.5842" lon="2.13836">
        <ele>237</ele>
        <time>2021-08-30T12:28:12Z</time>
      </trkpt>
      <trkpt lat="44.58466" lon="2.13829">
        <ele>238</ele>
        <time>2021-08-30T12:28:30Z</time>
      </trkpt>
      <trkpt lat="44.58476" lon="2.13831">
        <ele>238</ele>
        <time>2021-08-30T12:28:34Z</time>
      </trkpt>
      <trkpt lat="44.58513" lon="2.13857">
        <ele>238</ele>
        <time>2021-08-30T12:28:50Z</time>
      </trkpt>
      <trkpt lat="44.5854" lon="2.13887">
        <ele>239</ele>
        <time>2021-08-30T12:29:06Z</time>
      </trkpt>
      <trkpt lat="44.58544" lon="2.13891">
        <ele>239</ele>
        <time>2021-08-30T12:29:08Z</time>
      </trkpt>
      <trkpt lat="44.58562" lon="2.1391">
        <ele>237</ele>
        <time>2021-08-30T12:29:19Z</time>
      </trkpt>
      <trkpt lat="44.58567" lon="2.13914">
        <ele>237</ele>
        <time>2021-08-30T12:29:21Z</time>
      </trkpt>
      <trkpt lat="44.5859" lon="2.13936">
        <ele>240</ele>
        <time>2021-08-30T12:29:33Z</time>
      </trkpt>
      <trkpt lat="44.58596" lon="2.13939">
        <ele>239</ele>
        <time>2021-08-30T12:29:36Z</time>
      </trkpt>
      <trkpt lat="44.58608" lon="2.13947">
        <ele>240</ele>
        <time>2021-08-30T12:29:41Z</time>
      </trkpt>
      <trkpt lat="44.58626" lon="2.13955">
        <ele>244</ele>
        <time>2021-08-30T12:29:47Z</time>
      </trkpt>
      <trkpt lat="44.58631" lon="2.13957">
        <ele>245</ele>
        <time>2021-08-30T12:29:49Z</time>
      </trkpt>
      <trkpt lat="44.58667" lon="2.13972">
        <ele>260</ele>
        <time>2021-08-30T12:30:09Z</time>
      </trkpt>
      <trkpt lat="44.58701" lon="2.13986">
        <ele>266</ele>
        <time>2021-08-30T12:30:24Z</time>
      </trkpt>
      <trkpt lat="44.58711" lon="2.13991">
        <ele>268</ele>
        <time>2021-08-30T12:30:29Z</time>
      </trkpt>
      <trkpt lat="44.58727" lon="2.13995">
        <ele>268</ele>
        <time>2021-08-30T12:30:37Z</time>
      </trkpt>
      <trkpt lat="44.58763" lon="2.14003">
        <ele>270</ele>
        <time>2021-08-30T12:30:52Z</time>
      </trkpt>
      <trkpt lat="44.5877" lon="2.14002">
        <ele>271</ele>
        <time>2021-08-30T12:30:55Z</time>
      </trkpt>
      <trkpt lat="44.58851" lon="2.14038">
        <ele>271</ele>
        <time>2021-08-30T12:31:28Z</time>
      </trkpt>
      <trkpt lat="44.58857" lon="2.1404">
        <ele>271</ele>
        <time>2021-08-30T12:31:31Z</time>
      </trkpt>
      <trkpt lat="44.58873" lon="2.14047">
        <ele>273</ele>
        <time>2021-08-30T12:31:39Z</time>
      </trkpt>
      <trkpt lat="44.58927" lon="2.14059">
        <ele>269</ele>
        <time>2021-08-30T12:32:04Z</time>
      </trkpt>
      <trkpt lat="44.59004" lon="2.14094">
        <ele>278</ele>
        <time>2021-08-30T12:32:33Z</time>
      </trkpt>
      <trkpt lat="44.59009" lon="2.14095">
        <ele>279</ele>
        <time>2021-08-30T12:32:36Z</time>
      </trkpt>
      <trkpt lat="44.5904" lon="2.14095">
        <ele>291</ele>
        <time>2021-08-30T12:32:52Z</time>
      </trkpt>
      <trkpt lat="44.59138" lon="2.14118">
        <ele>306</ele>
        <time>2021-08-30T12:33:23Z</time>
      </trkpt>
      <trkpt lat="44.59237" lon="2.14138">
        <ele>309</ele>
        <time>2021-08-30T12:33:55Z</time>
      </trkpt>
      <trkpt lat="44.59265" lon="2.14142">
        <ele>307</ele>
        <time>2021-08-30T12:34:05Z</time>
      </trkpt>
      <trkpt lat="44.5927" lon="2.14143">
        <ele>307</ele>
        <time>2021-08-30T12:34:07Z</time>
      </trkpt>
      <trkpt lat="44.59357" lon="2.14146">
        <ele>311</ele>
        <time>2021-08-30T12:34:39Z</time>
      </trkpt>
      <trkpt lat="44.5945" lon="2.14127">
        <ele>309</ele>
        <time>2021-08-30T12:35:08Z</time>
      </trkpt>
      <trkpt lat="44.59495" lon="2.14111">
        <ele>304</ele>
        <time>2021-08-30T12:35:22Z</time>
      </trkpt>
      <trkpt lat="44.59501" lon="2.14108">
        <ele>304</ele>
        <time>2021-08-30T12:35:24Z</time>
      </trkpt>
      <trkpt lat="44.59523" lon="2.14099">
        <ele>297</ele>
        <time>2021-08-30T12:35:30Z</time>
      </trkpt>
      <trkpt lat="44.59559" lon="2.141">
        <ele>298</ele>
        <time>2021-08-30T12:35:40Z</time>
      </trkpt>
      <trkpt lat="44.59591" lon="2.14115">
        <ele>297</ele>
        <time>2021-08-30T12:35:50Z</time>
      </trkpt>
      <trkpt lat="44.59626" lon="2.14119">
        <ele>297</ele>
        <time>2021-08-30T12:36:00Z</time>
      </trkpt>
      <trkpt lat="44.59656" lon="2.14114">
        <ele>296</ele>
        <time>2021-08-30T12:36:08Z</time>
      </trkpt>
      <trkpt lat="44.59669" lon="2.14108">
        <ele>296</ele>
        <time>2021-08-30T12:36:12Z</time>
      </trkpt>
      <trkpt lat="44.59752" lon="2.1401">
        <ele>296</ele>
        <time>2021-08-30T12:36:42Z</time>
      </trkpt>
      <trkpt lat="44.59786" lon="2.13978">
        <ele>297</ele>
        <time>2021-08-30T12:36:56Z</time>
      </trkpt>
      <trkpt lat="44.59791" lon="2.13976">
        <ele>297</ele>
        <time>2021-08-30T12:36:58Z</time>
      </trkpt>
      <trkpt lat="44.59797" lon="2.13973">
        <ele>298</ele>
        <time>2021-08-30T12:37:00Z</time>
      </trkpt>
      <trkpt lat="44.59855" lon="2.13953">
        <ele>302</ele>
        <time>2021-08-30T12:37:20Z</time>
      </trkpt>
      <trkpt lat="44.59901" lon="2.13942">
        <ele>301</ele>
        <time>2021-08-30T12:37:34Z</time>
      </trkpt>
      <trkpt lat="44.59905" lon="2.13937">
        <ele>301</ele>
        <time>2021-08-30T12:37:36Z</time>
      </trkpt>
      <trkpt lat="44.59904" lon="2.1393">
        <ele>301</ele>
        <time>2021-08-30T12:37:38Z</time>
      </trkpt>
      <trkpt lat="44.59906" lon="2.13924">
        <ele>300</ele>
        <time>2021-08-30T12:37:40Z</time>
      </trkpt>
      <trkpt lat="44.59908" lon="2.13926">
        <ele>296</ele>
        <time>2021-08-30T12:39:51Z</time>
      </trkpt>
      <trkpt lat="44.59908" lon="2.13934">
        <ele>297</ele>
        <time>2021-08-30T12:39:54Z</time>
      </trkpt>
      <trkpt lat="44.59913" lon="2.1394">
        <ele>298</ele>
        <time>2021-08-30T12:39:57Z</time>
      </trkpt>
      <trkpt lat="44.59955" lon="2.13958">
        <ele>299</ele>
        <time>2021-08-30T12:40:09Z</time>
      </trkpt>
      <trkpt lat="44.59959" lon="2.13959">
        <ele>298</ele>
        <time>2021-08-30T12:41:19Z</time>
      </trkpt>
      <trkpt lat="44.60054" lon="2.13987">
        <ele>295</ele>
        <time>2021-08-30T12:41:43Z</time>
      </trkpt>
      <trkpt lat="44.6008" lon="2.13985">
        <ele>292</ele>
        <time>2021-08-30T12:41:47Z</time>
      </trkpt>
      <trkpt lat="44.60145" lon="2.13955">
        <ele>286</ele>
        <time>2021-08-30T12:41:55Z</time>
      </trkpt>
      <trkpt lat="44.60169" lon="2.13935">
        <ele>284</ele>
        <time>2021-08-30T12:41:58Z</time>
      </trkpt>
      <trkpt lat="44.60175" lon="2.13926">
        <ele>283</ele>
        <time>2021-08-30T12:41:59Z</time>
      </trkpt>
      <trkpt lat="44.60185" lon="2.13904">
        <ele>281</ele>
        <time>2021-08-30T12:42:01Z</time>
      </trkpt>
      <trkpt lat="44.60187" lon="2.13892">
        <ele>280</ele>
        <time>2021-08-30T12:42:02Z</time>
      </trkpt>
      <trkpt lat="44.60183" lon="2.13785">
        <ele>273</ele>
        <time>2021-08-30T12:42:09Z</time>
      </trkpt>
      <trkpt lat="44.60191" lon="2.1374">
        <ele>271</ele>
        <time>2021-08-30T12:42:12Z</time>
      </trkpt>
      <trkpt lat="44.60202" lon="2.13716">
        <ele>270</ele>
        <time>2021-08-30T12:42:14Z</time>
      </trkpt>
      <trkpt lat="44.60229" lon="2.13678">
        <ele>267</ele>
        <time>2021-08-30T12:42:18Z</time>
      </trkpt>
      <trkpt lat="44.60236" lon="2.13672">
        <ele>266</ele>
        <time>2021-08-30T12:42:19Z</time>
      </trkpt>
      <trkpt lat="44.60243" lon="2.13668">
        <ele>266</ele>
        <time>2021-08-30T12:42:20Z</time>
      </trkpt>
      <trkpt lat="44.6026" lon="2.13668">
        <ele>264</ele>
        <time>2021-08-30T12:42:22Z</time>
      </trkpt>
      <trkpt lat="44.60276" lon="2.13675">
        <ele>263</ele>
        <time>2021-08-30T12:42:24Z</time>
      </trkpt>
      <trkpt lat="44.60457" lon="2.13828">
        <ele>246</ele>
        <time>2021-08-30T12:42:45Z</time>
      </trkpt>
      <trkpt lat="44.60465" lon="2.13831">
        <ele>246</ele>
        <time>2021-08-30T12:42:46Z</time>
      </trkpt>
      <trkpt lat="44.60472" lon="2.13831">
        <ele>246</ele>
        <time>2021-08-30T12:42:47Z</time>
      </trkpt>
      <trkpt lat="44.60478" lon="2.13827">
        <ele>246</ele>
        <time>2021-08-30T12:42:48Z</time>
      </trkpt>
      <trkpt lat="44.60486" lon="2.13816">
        <ele>246</ele>
        <time>2021-08-30T12:42:50Z</time>
      </trkpt>
      <trkpt lat="44.60495" lon="2.13793">
        <ele>247</ele>
        <time>2021-08-30T12:42:54Z</time>
      </trkpt>
      <trkpt lat="44.60513" lon="2.13739">
        <ele>246</ele>
        <time>2021-08-30T12:43:08Z</time>
      </trkpt>
      <trkpt lat="44.60513" lon="2.13715">
        <ele>248</ele>
        <time>2021-08-30T12:43:14Z</time>
      </trkpt>
      <trkpt lat="44.60508" lon="2.13679">
        <ele>252</ele>
        <time>2021-08-30T12:43:24Z</time>
      </trkpt>
      <trkpt lat="44.60508" lon="2.13664">
        <ele>253</ele>
        <time>2021-08-30T12:43:28Z</time>
      </trkpt>
      <trkpt lat="44.60509" lon="2.13657">
        <ele>254</ele>
        <time>2021-08-30T12:43:30Z</time>
      </trkpt>
      <trkpt lat="44.60517" lon="2.13643">
        <ele>256</ele>
        <time>2021-08-30T12:43:35Z</time>
      </trkpt>
      <trkpt lat="44.60524" lon="2.13632">
        <ele>258</ele>
        <time>2021-08-30T12:43:40Z</time>
      </trkpt>
      <trkpt lat="44.6053" lon="2.13613">
        <ele>259</ele>
        <time>2021-08-30T12:43:46Z</time>
      </trkpt>
      <trkpt lat="44.6053" lon="2.13606">
        <ele>259</ele>
        <time>2021-08-30T12:43:48Z</time>
      </trkpt>
      <trkpt lat="44.60523" lon="2.13585">
        <ele>260</ele>
        <time>2021-08-30T12:43:54Z</time>
      </trkpt>
      <trkpt lat="44.60517" lon="2.13575">
        <ele>261</ele>
        <time>2021-08-30T12:43:58Z</time>
      </trkpt>
      <trkpt lat="44.60514" lon="2.1357">
        <ele>261</ele>
        <time>2021-08-30T12:44:00Z</time>
      </trkpt>
      <trkpt lat="44.60508" lon="2.13567">
        <ele>261</ele>
        <time>2021-08-30T12:44:03Z</time>
      </trkpt>
      <trkpt lat="44.60501" lon="2.13566">
        <ele>261</ele>
        <time>2021-08-30T12:44:06Z</time>
      </trkpt>
      <trkpt lat="44.60459" lon="2.13577">
        <ele>264</ele>
        <time>2021-08-30T12:44:23Z</time>
      </trkpt>
      <trkpt lat="44.60448" lon="2.13575">
        <ele>265</ele>
        <time>2021-08-30T12:44:27Z</time>
      </trkpt>
      <trkpt lat="44.60439" lon="2.13567">
        <ele>266</ele>
        <time>2021-08-30T12:44:31Z</time>
      </trkpt>
      <trkpt lat="44.60429" lon="2.13549">
        <ele>267</ele>
        <time>2021-08-30T12:44:37Z</time>
      </trkpt>
      <trkpt lat="44.60428" lon="2.13542">
        <ele>268</ele>
        <time>2021-08-30T12:44:40Z</time>
      </trkpt>
      <trkpt lat="44.60444" lon="2.13531">
        <ele>269</ele>
        <time>2021-08-30T12:44:48Z</time>
      </trkpt>
      <trkpt lat="44.60473" lon="2.13524">
        <ele>270</ele>
        <time>2021-08-30T12:45:01Z</time>
      </trkpt>
      <trkpt lat="44.60478" lon="2.13522">
        <ele>270</ele>
        <time>2021-08-30T12:45:03Z</time>
      </trkpt>
      <trkpt lat="44.60535" lon="2.13501">
        <ele>266</ele>
        <time>2021-08-30T12:45:28Z</time>
      </trkpt>
      <trkpt lat="44.60555" lon="2.13493">
        <ele>268</ele>
        <time>2021-08-30T12:45:34Z</time>
      </trkpt>
      <trkpt lat="44.60647" lon="2.135">
        <ele>276</ele>
        <time>2021-08-30T12:46:04Z</time>
      </trkpt>
      <trkpt lat="44.60688" lon="2.13498">
        <ele>278</ele>
        <time>2021-08-30T12:46:18Z</time>
      </trkpt>
      <trkpt lat="44.60779" lon="2.13445">
        <ele>275</ele>
        <time>2021-08-30T12:46:48Z</time>
      </trkpt>
      <trkpt lat="44.60841" lon="2.13404">
        <ele>272</ele>
        <time>2021-08-30T12:47:00Z</time>
      </trkpt>
      <trkpt lat="44.60867" lon="2.13396">
        <ele>271</ele>
        <time>2021-08-30T12:47:04Z</time>
      </trkpt>
      <trkpt lat="44.60911" lon="2.13396">
        <ele>270</ele>
        <time>2021-08-30T12:47:10Z</time>
      </trkpt>
      <trkpt lat="44.60955" lon="2.13411">
        <ele>269</ele>
        <time>2021-08-30T12:47:17Z</time>
      </trkpt>
      <trkpt lat="44.60964" lon="2.13416">
        <ele>269</ele>
        <time>2021-08-30T12:47:19Z</time>
      </trkpt>
      <trkpt lat="44.60977" lon="2.13422">
        <ele>270</ele>
        <time>2021-08-30T12:47:23Z</time>
      </trkpt>
      <trkpt lat="44.60981" lon="2.13417">
        <ele>270</ele>
        <time>2021-08-30T12:47:26Z</time>
      </trkpt>
      <trkpt lat="44.60981" lon="2.13407">
        <ele>270</ele>
        <time>2021-08-30T12:47:28Z</time>
      </trkpt>
      <trkpt lat="44.60983" lon="2.13397">
        <ele>270</ele>
        <time>2021-08-30T12:47:30Z</time>
      </trkpt>
      <trkpt lat="44.61014" lon="2.1337">
        <ele>268</ele>
        <time>2021-08-30T12:47:40Z</time>
      </trkpt>
      <trkpt lat="44.61068" lon="2.13315">
        <ele>270</ele>
        <time>2021-08-30T12:47:59Z</time>
      </trkpt>
      <trkpt lat="44.61072" lon="2.1331">
        <ele>270</ele>
        <time>2021-08-30T12:48:01Z</time>
      </trkpt>
      <trkpt lat="44.61089" lon="2.13291">
        <ele>272</ele>
        <time>2021-08-30T12:48:09Z</time>
      </trkpt>
      <trkpt lat="44.61093" lon="2.13288">
        <ele>272</ele>
        <time>2021-08-30T12:48:11Z</time>
      </trkpt>
      <trkpt lat="44.61155" lon="2.13227">
        <ele>276</ele>
        <time>2021-08-30T12:48:42Z</time>
      </trkpt>
      <trkpt lat="44.61177" lon="2.13188">
        <ele>276</ele>
        <time>2021-08-30T12:48:58Z</time>
      </trkpt>
      <trkpt lat="44.61192" lon="2.13157">
        <ele>277</ele>
        <time>2021-08-30T12:49:08Z</time>
      </trkpt>
      <trkpt lat="44.61197" lon="2.13143">
        <ele>274</ele>
        <time>2021-08-30T12:49:12Z</time>
      </trkpt>
      <trkpt lat="44.61238" lon="2.13034">
        <ele>273</ele>
        <time>2021-08-30T12:49:31Z</time>
      </trkpt>
      <trkpt lat="44.61253" lon="2.13015">
        <ele>273</ele>
        <time>2021-08-30T12:49:35Z</time>
      </trkpt>
      <trkpt lat="44.61268" lon="2.13005">
        <ele>272</ele>
        <time>2021-08-30T12:49:38Z</time>
      </trkpt>
      <trkpt lat="44.61339" lon="2.12967">
        <ele>268</ele>
        <time>2021-08-30T12:49:50Z</time>
      </trkpt>
      <trkpt lat="44.61355" lon="2.12953">
        <ele>267</ele>
        <time>2021-08-30T12:49:53Z</time>
      </trkpt>
      <trkpt lat="44.61459" lon="2.12769">
        <ele>272</ele>
        <time>2021-08-30T12:50:23Z</time>
      </trkpt>
      <trkpt lat="44.61474" lon="2.12741">
        <ele>273</ele>
        <time>2021-08-30T12:50:31Z</time>
      </trkpt>
      <trkpt lat="44.61478" lon="2.12725">
        <ele>273</ele>
        <time>2021-08-30T12:50:35Z</time>
      </trkpt>
      <trkpt lat="44.61479" lon="2.12697">
        <ele>273</ele>
        <time>2021-08-30T12:50:41Z</time>
      </trkpt>
      <trkpt lat="44.61484" lon="2.12666">
        <ele>274</ele>
        <time>2021-08-30T12:50:47Z</time>
      </trkpt>
      <trkpt lat="44.61493" lon="2.12636">
        <ele>275</ele>
        <time>2021-08-30T12:50:53Z</time>
      </trkpt>
      <trkpt lat="44.61568" lon="2.12492">
        <ele>278</ele>
        <time>2021-08-30T12:51:25Z</time>
      </trkpt>
      <trkpt lat="44.61642" lon="2.12348">
        <ele>282</ele>
        <time>2021-08-30T12:51:57Z</time>
      </trkpt>
      <trkpt lat="44.61721" lon="2.12204">
        <ele>283</ele>
        <time>2021-08-30T12:52:29Z</time>
      </trkpt>
      <trkpt lat="44.61778" lon="2.12089">
        <ele>287</ele>
        <time>2021-08-30T12:52:59Z</time>
      </trkpt>
      <trkpt lat="44.61835" lon="2.11983">
        <ele>288</ele>
        <time>2021-08-30T12:53:29Z</time>
      </trkpt>
      <trkpt lat="44.61898" lon="2.11867">
        <ele>290</ele>
        <time>2021-08-30T12:53:59Z</time>
      </trkpt>
      <trkpt lat="44.61964" lon="2.11743">
        <ele>293</ele>
        <time>2021-08-30T12:54:31Z</time>
      </trkpt>
      <trkpt lat="44.6202" lon="2.11634">
        <ele>296</ele>
        <time>2021-08-30T12:55:02Z</time>
      </trkpt>
      <trkpt lat="44.62068" lon="2.11538">
        <ele>303</ele>
        <time>2021-08-30T12:55:34Z</time>
      </trkpt>
      <trkpt lat="44.62105" lon="2.11468">
        <ele>308</ele>
        <time>2021-08-30T12:56:00Z</time>
      </trkpt>
      <trkpt lat="44.62107" lon="2.11456">
        <ele>309</ele>
        <time>2021-08-30T12:56:04Z</time>
      </trkpt>
      <trkpt lat="44.62107" lon="2.11449">
        <ele>309</ele>
        <time>2021-08-30T12:56:06Z</time>
      </trkpt>
      <trkpt lat="44.62097" lon="2.11416">
        <ele>310</ele>
        <time>2021-08-30T12:56:14Z</time>
      </trkpt>
      <trkpt lat="44.6203" lon="2.11299">
        <ele>315</ele>
        <time>2021-08-30T12:56:44Z</time>
      </trkpt>
      <trkpt lat="44.6195" lon="2.11192">
        <ele>320</ele>
        <time>2021-08-30T12:57:16Z</time>
      </trkpt>
      <trkpt lat="44.61885" lon="2.11108">
        <ele>326</ele>
        <time>2021-08-30T12:57:46Z</time>
      </trkpt>
      <trkpt lat="44.61878" lon="2.11096">
        <ele>327</ele>
        <time>2021-08-30T12:57:50Z</time>
      </trkpt>
      <trkpt lat="44.61874" lon="2.11082">
        <ele>327</ele>
        <time>2021-08-30T12:57:54Z</time>
      </trkpt>
      <trkpt lat="44.61875" lon="2.11058">
        <ele>328</ele>
        <time>2021-08-30T12:58:00Z</time>
      </trkpt>
      <trkpt lat="44.61889" lon="2.10943">
        <ele>330</ele>
        <time>2021-08-30T12:58:30Z</time>
      </trkpt>
      <trkpt lat="44.6189" lon="2.10911">
        <ele>332</ele>
        <time>2021-08-30T12:58:38Z</time>
      </trkpt>
      <trkpt lat="44.61887" lon="2.10875">
        <ele>333</ele>
        <time>2021-08-30T12:58:46Z</time>
      </trkpt>
      <trkpt lat="44.61852" lon="2.10733">
        <ele>341</ele>
        <time>2021-08-30T12:59:16Z</time>
      </trkpt>
      <trkpt lat="44.61846" lon="2.10689">
        <ele>342</ele>
        <time>2021-08-30T12:59:26Z</time>
      </trkpt>
      <trkpt lat="44.61845" lon="2.10514">
        <ele>338</ele>
        <time>2021-08-30T12:59:56Z</time>
      </trkpt>
      <trkpt lat="44.61844" lon="2.10459">
        <ele>337</ele>
        <time>2021-08-30T13:00:03Z</time>
      </trkpt>
      <trkpt lat="44.61793" lon="2.10252">
        <ele>338</ele>
        <time>2021-08-30T13:00:33Z</time>
      </trkpt>
      <trkpt lat="44.61743" lon="2.10068">
        <ele>342</ele>
        <time>2021-08-30T13:01:03Z</time>
      </trkpt>
      <trkpt lat="44.61677" lon="2.09924">
        <ele>343</ele>
        <time>2021-08-30T13:01:33Z</time>
      </trkpt>
      <trkpt lat="44.61586" lon="2.09782">
        <ele>343</ele>
        <time>2021-08-30T13:02:03Z</time>
      </trkpt>
      <trkpt lat="44.61499" lon="2.09661">
        <ele>347</ele>
        <time>2021-08-30T13:02:33Z</time>
      </trkpt>
      <trkpt lat="44.61491" lon="2.09643">
        <ele>348</ele>
        <time>2021-08-30T13:02:37Z</time>
      </trkpt>
      <trkpt lat="44.61482" lon="2.09619">
        <ele>350</ele>
        <time>2021-08-30T13:02:43Z</time>
      </trkpt>
      <trkpt lat="44.61477" lon="2.09585">
        <ele>354</ele>
        <time>2021-08-30T13:02:51Z</time>
      </trkpt>
      <trkpt lat="44.61484" lon="2.09451">
        <ele>357</ele>
        <time>2021-08-30T13:03:23Z</time>
      </trkpt>
      <trkpt lat="44.61496" lon="2.09319">
        <ele>359</ele>
        <time>2021-08-30T13:03:55Z</time>
      </trkpt>
      <trkpt lat="44.61504" lon="2.09196">
        <ele>363</ele>
        <time>2021-08-30T13:04:25Z</time>
      </trkpt>
      <trkpt lat="44.61517" lon="2.09056">
        <ele>368</ele>
        <time>2021-08-30T13:04:57Z</time>
      </trkpt>
      <trkpt lat="44.61519" lon="2.09029">
        <ele>370</ele>
        <time>2021-08-30T13:05:03Z</time>
      </trkpt>
      <trkpt lat="44.61516" lon="2.09003">
        <ele>373</ele>
        <time>2021-08-30T13:05:09Z</time>
      </trkpt>
      <trkpt lat="44.61505" lon="2.08973">
        <ele>378</ele>
        <time>2021-08-30T13:05:17Z</time>
      </trkpt>
      <trkpt lat="44.61454" lon="2.08902">
        <ele>381</ele>
        <time>2021-08-30T13:05:41Z</time>
      </trkpt>
      <trkpt lat="44.61447" lon="2.08887">
        <ele>382</ele>
        <time>2021-08-30T13:05:45Z</time>
      </trkpt>
      <trkpt lat="44.61446" lon="2.08879">
        <ele>383</ele>
        <time>2021-08-30T13:05:47Z</time>
      </trkpt>
      <trkpt lat="44.61447" lon="2.08853">
        <ele>384</ele>
        <time>2021-08-30T13:05:53Z</time>
      </trkpt>
      <trkpt lat="44.61484" lon="2.08712">
        <ele>384</ele>
        <time>2021-08-30T13:06:23Z</time>
      </trkpt>
      <trkpt lat="44.61492" lon="2.0868">
        <ele>385</ele>
        <time>2021-08-30T13:06:29Z</time>
      </trkpt>
      <trkpt lat="44.61493" lon="2.08669">
        <ele>385</ele>
        <time>2021-08-30T13:06:31Z</time>
      </trkpt>
      <trkpt lat="44.61489" lon="2.08634">
        <ele>385</ele>
        <time>2021-08-30T13:06:37Z</time>
      </trkpt>
      <trkpt lat="44.61481" lon="2.08605">
        <ele>385</ele>
        <time>2021-08-30T13:06:42Z</time>
      </trkpt>
      <trkpt lat="44.61474" lon="2.08589">
        <ele>386</ele>
        <time>2021-08-30T13:06:45Z</time>
      </trkpt>
      <trkpt lat="44.61451" lon="2.08569">
        <ele>387</ele>
        <time>2021-08-30T13:06:51Z</time>
      </trkpt>
      <trkpt lat="44.61371" lon="2.08535">
        <ele>389</ele>
        <time>2021-08-30T13:07:09Z</time>
      </trkpt>
      <trkpt lat="44.61359" lon="2.08523">
        <ele>389</ele>
        <time>2021-08-30T13:07:12Z</time>
      </trkpt>
      <trkpt lat="44.61346" lon="2.08502">
        <ele>390</ele>
        <time>2021-08-30T13:07:16Z</time>
      </trkpt>
      <trkpt lat="44.61317" lon="2.08423">
        <ele>393</ele>
        <time>2021-08-30T13:07:29Z</time>
      </trkpt>
      <trkpt lat="44.61312" lon="2.08396">
        <ele>394</ele>
        <time>2021-08-30T13:07:33Z</time>
      </trkpt>
      <trkpt lat="44.6131" lon="2.0828">
        <ele>391</ele>
        <time>2021-08-30T13:07:47Z</time>
      </trkpt>
      <trkpt lat="44.61319" lon="2.08057">
        <ele>381</ele>
        <time>2021-08-30T13:08:40Z</time>
      </trkpt>
      <trkpt lat="44.61319" lon="2.0802">
        <ele>376</ele>
        <time>2021-08-30T13:09:11Z</time>
      </trkpt>
      <trkpt lat="44.61311" lon="2.07992">
        <ele>374</ele>
        <time>2021-08-30T13:09:16Z</time>
      </trkpt>
      <trkpt lat="44.61299" lon="2.07968">
        <ele>375</ele>
        <time>2021-08-30T13:09:20Z</time>
      </trkpt>
      <trkpt lat="44.61283" lon="2.07945">
        <ele>376</ele>
        <time>2021-08-30T13:09:24Z</time>
      </trkpt>
      <trkpt lat="44.61259" lon="2.07923">
        <ele>377</ele>
        <time>2021-08-30T13:09:29Z</time>
      </trkpt>
      <trkpt lat="44.61236" lon="2.07915">
        <ele>377</ele>
        <time>2021-08-30T13:09:33Z</time>
      </trkpt>
      <trkpt lat="44.61212" lon="2.07918">
        <ele>377</ele>
        <time>2021-08-30T13:09:37Z</time>
      </trkpt>
      <trkpt lat="44.61128" lon="2.07942">
        <ele>375</ele>
        <time>2021-08-30T13:09:51Z</time>
      </trkpt>
      <trkpt lat="44.61115" lon="2.07939">
        <ele>375</ele>
        <time>2021-08-30T13:09:53Z</time>
      </trkpt>
      <trkpt lat="44.61108" lon="2.07935">
        <ele>375</ele>
        <time>2021-08-30T13:09:54Z</time>
      </trkpt>
      <trkpt lat="44.61096" lon="2.07922">
        <ele>375</ele>
        <time>2021-08-30T13:09:56Z</time>
      </trkpt>
      <trkpt lat="44.60939" lon="2.07654">
        <ele>367</ele>
        <time>2021-08-30T13:10:24Z</time>
      </trkpt>
      <trkpt lat="44.60878" lon="2.07447">
        <ele>361</ele>
        <time>2021-08-30T13:10:40Z</time>
      </trkpt>
      <trkpt lat="44.60864" lon="2.07425">
        <ele>360</ele>
        <time>2021-08-30T13:10:42Z</time>
      </trkpt>
      <trkpt lat="44.60839" lon="2.07407">
        <ele>358</ele>
        <time>2021-08-30T13:10:45Z</time>
      </trkpt>
      <trkpt lat="44.60666" lon="2.07327">
        <ele>351</ele>
        <time>2021-08-30T13:11:07Z</time>
      </trkpt>
      <trkpt lat="44.6065" lon="2.07309">
        <ele>351</ele>
        <time>2021-08-30T13:11:10Z</time>
      </trkpt>
      <trkpt lat="44.60623" lon="2.07253">
        <ele>351</ele>
        <time>2021-08-30T13:11:17Z</time>
      </trkpt>
      <trkpt lat="44.60561" lon="2.07075">
        <ele>345</ele>
        <time>2021-08-30T13:11:38Z</time>
      </trkpt>
      <trkpt lat="44.60559" lon="2.07057">
        <ele>345</ele>
        <time>2021-08-30T13:11:40Z</time>
      </trkpt>
      <trkpt lat="44.6056" lon="2.07027">
        <ele>345</ele>
        <time>2021-08-30T13:11:43Z</time>
      </trkpt>
      <trkpt lat="44.60575" lon="2.06977">
        <ele>344</ele>
        <time>2021-08-30T13:11:48Z</time>
      </trkpt>
      <trkpt lat="44.60617" lon="2.06871">
        <ele>339</ele>
        <time>2021-08-30T13:12:00Z</time>
      </trkpt>
      <trkpt lat="44.60626" lon="2.0679">
        <ele>335</ele>
        <time>2021-08-30T13:12:08Z</time>
      </trkpt>
      <trkpt lat="44.60625" lon="2.06757">
        <ele>332</ele>
        <time>2021-08-30T13:12:11Z</time>
      </trkpt>
      <trkpt lat="44.60615" lon="2.06722">
        <ele>330</ele>
        <time>2021-08-30T13:12:14Z</time>
      </trkpt>
      <trkpt lat="44.60551" lon="2.06554">
        <ele>317</ele>
        <time>2021-08-30T13:12:28Z</time>
      </trkpt>
      <trkpt lat="44.60512" lon="2.06485">
        <ele>311</ele>
        <time>2021-08-30T13:12:34Z</time>
      </trkpt>
      <trkpt lat="44.60488" lon="2.06414">
        <ele>306</ele>
        <time>2021-08-30T13:12:39Z</time>
      </trkpt>
      <trkpt lat="44.60473" lon="2.06315">
        <ele>298</ele>
        <time>2021-08-30T13:12:46Z</time>
      </trkpt>
      <trkpt lat="44.60473" lon="2.0623">
        <ele>291</ele>
        <time>2021-08-30T13:12:52Z</time>
      </trkpt>
      <trkpt lat="44.60491" lon="2.06133">
        <ele>287</ele>
        <time>2021-08-30T13:12:59Z</time>
      </trkpt>
      <trkpt lat="44.60518" lon="2.06014">
        <ele>279</ele>
        <time>2021-08-30T13:13:08Z</time>
      </trkpt>
      <trkpt lat="44.60519" lon="2.05868">
        <ele>268</ele>
        <time>2021-08-30T13:13:18Z</time>
      </trkpt>
      <trkpt lat="44.60575" lon="2.05632">
        <ele>251</ele>
        <time>2021-08-30T13:13:35Z</time>
      </trkpt>
      <trkpt lat="44.60576" lon="2.05605">
        <ele>249</ele>
        <time>2021-08-30T13:13:37Z</time>
      </trkpt>
      <trkpt lat="44.60574" lon="2.0558">
        <ele>248</ele>
        <time>2021-08-30T13:13:39Z</time>
      </trkpt>
      <trkpt lat="44.60567" lon="2.05558">
        <ele>246</ele>
        <time>2021-08-30T13:13:41Z</time>
      </trkpt>
      <trkpt lat="44.60555" lon="2.05538">
        <ele>244</ele>
        <time>2021-08-30T13:13:43Z</time>
      </trkpt>
      <trkpt lat="44.6051" lon="2.05491">
        <ele>240</ele>
        <time>2021-08-30T13:13:49Z</time>
      </trkpt>
      <trkpt lat="44.60485" lon="2.05446">
        <ele>240</ele>
        <time>2021-08-30T13:13:55Z</time>
      </trkpt>
      <trkpt lat="44.6048" lon="2.05431">
        <ele>240</ele>
        <time>2021-08-30T13:13:58Z</time>
      </trkpt>
      <trkpt lat="44.60475" lon="2.05426">
        <ele>239</ele>
        <time>2021-08-30T13:15:21Z</time>
      </trkpt>
      <trkpt lat="44.60458" lon="2.05367">
        <ele>238</ele>
        <time>2021-08-30T13:15:30Z</time>
      </trkpt>
      <trkpt lat="44.60457" lon="2.05358">
        <ele>238</ele>
        <time>2021-08-30T13:15:31Z</time>
      </trkpt>
      <trkpt lat="44.60457" lon="2.05348">
        <ele>238</ele>
        <time>2021-08-30T13:15:32Z</time>
      </trkpt>
      <trkpt lat="44.60458" lon="2.05337">
        <ele>239</ele>
        <time>2021-08-30T13:15:33Z</time>
      </trkpt>
      <trkpt lat="44.6046" lon="2.05328">
        <ele>240</ele>
        <time>2021-08-30T13:15:34Z</time>
      </trkpt>
      <trkpt lat="44.6047" lon="2.05314">
        <ele>243</ele>
        <time>2021-08-30T13:15:36Z</time>
      </trkpt>
      <trkpt lat="44.60481" lon="2.05307">
        <ele>244</ele>
        <time>2021-08-30T13:15:38Z</time>
      </trkpt>
      <trkpt lat="44.60615" lon="2.05269">
        <ele>246</ele>
        <time>2021-08-30T13:16:06Z</time>
      </trkpt>
      <trkpt lat="44.60619" lon="2.05266">
        <ele>245</ele>
        <time>2021-08-30T13:16:07Z</time>
      </trkpt>
      <trkpt lat="44.60654" lon="2.0522">
        <ele>244</ele>
        <time>2021-08-30T13:16:16Z</time>
      </trkpt>
      <trkpt lat="44.60663" lon="2.05213">
        <ele>245</ele>
        <time>2021-08-30T13:16:18Z</time>
      </trkpt>
      <trkpt lat="44.60675" lon="2.05212">
        <ele>245</ele>
        <time>2021-08-30T13:16:20Z</time>
      </trkpt>
      <trkpt lat="44.60736" lon="2.05222">
        <ele>244</ele>
        <time>2021-08-30T13:16:30Z</time>
      </trkpt>
      <trkpt lat="44.60755" lon="2.05218">
        <ele>243</ele>
        <time>2021-08-30T13:16:33Z</time>
      </trkpt>
      <trkpt lat="44.60767" lon="2.05213">
        <ele>242</ele>
        <time>2021-08-30T13:16:35Z</time>
      </trkpt>
      <trkpt lat="44.60777" lon="2.05204">
        <ele>242</ele>
        <time>2021-08-30T13:16:37Z</time>
      </trkpt>
      <trkpt lat="44.60785" lon="2.05192">
        <ele>241</ele>
        <time>2021-08-30T13:16:39Z</time>
      </trkpt>
      <trkpt lat="44.60787" lon="2.05184">
        <ele>241</ele>
        <time>2021-08-30T13:16:40Z</time>
      </trkpt>
      <trkpt lat="44.60789" lon="2.05164">
        <ele>240</ele>
        <time>2021-08-30T13:16:42Z</time>
      </trkpt>
      <trkpt lat="44.60788" lon="2.05152">
        <ele>240</ele>
        <time>2021-08-30T13:16:43Z</time>
      </trkpt>
      <trkpt lat="44.60787" lon="2.05142">
        <ele>241</ele>
        <time>2021-08-30T13:16:44Z</time>
      </trkpt>
      <trkpt lat="44.60784" lon="2.05131">
        <ele>241</ele>
        <time>2021-08-30T13:16:45Z</time>
      </trkpt>
      <trkpt lat="44.60729" lon="2.05067">
        <ele>241</ele>
        <time>2021-08-30T13:16:55Z</time>
      </trkpt>
      <trkpt lat="44.60723" lon="2.05046">
        <ele>240</ele>
        <time>2021-08-30T13:16:57Z</time>
      </trkpt>
      <trkpt lat="44.60723" lon="2.0499">
        <ele>238</ele>
        <time>2021-08-30T13:17:02Z</time>
      </trkpt>
      <trkpt lat="44.60705" lon="2.04915">
        <ele>234</ele>
        <time>2021-08-30T13:17:09Z</time>
      </trkpt>
      <trkpt lat="44.60686" lon="2.04865">
        <ele>230</ele>
        <time>2021-08-30T13:17:14Z</time>
      </trkpt>
      <trkpt lat="44.60684" lon="2.04852">
        <ele>228</ele>
        <time>2021-08-30T13:17:15Z</time>
      </trkpt>
      <trkpt lat="44.60686" lon="2.04825">
        <ele>228</ele>
        <time>2021-08-30T13:17:17Z</time>
      </trkpt>
      <trkpt lat="44.60695" lon="2.04787">
        <ele>227</ele>
        <time>2021-08-30T13:17:20Z</time>
      </trkpt>
      <trkpt lat="44.60701" lon="2.04703">
        <ele>218</ele>
        <time>2021-08-30T13:17:26Z</time>
      </trkpt>
      <trkpt lat="44.60712" lon="2.04661">
        <ele>215</ele>
        <time>2021-08-30T13:17:29Z</time>
      </trkpt>
      <trkpt lat="44.60714" lon="2.04632">
        <ele>213</ele>
        <time>2021-08-30T13:17:31Z</time>
      </trkpt>
      <trkpt lat="44.60707" lon="2.04404">
        <ele>199</ele>
        <time>2021-08-30T13:17:49Z</time>
      </trkpt>
      <trkpt lat="44.60705" lon="2.04395">
        <ele>197</ele>
        <time>2021-08-30T13:17:51Z</time>
      </trkpt>
      <trkpt lat="44.60702" lon="2.04387">
        <ele>197</ele>
        <time>2021-08-30T13:17:53Z</time>
      </trkpt>
      <trkpt lat="44.60692" lon="2.04353">
        <ele>190</ele>
        <time>2021-08-30T13:18:14Z</time>
      </trkpt>
      <trkpt lat="44.60688" lon="2.04341">
        <ele>189</ele>
        <time>2021-08-30T13:18:16Z</time>
      </trkpt>
      <trkpt lat="44.60688" lon="2.04324">
        <ele>189</ele>
        <time>2021-08-30T13:18:18Z</time>
      </trkpt>
      <trkpt lat="44.60692" lon="2.04307">
        <ele>189</ele>
        <time>2021-08-30T13:18:20Z</time>
      </trkpt>
      <trkpt lat="44.60701" lon="2.04291">
        <ele>188</ele>
        <time>2021-08-30T13:18:22Z</time>
      </trkpt>
      <trkpt lat="44.60705" lon="2.04284">
        <ele>186</ele>
        <time>2021-08-30T13:18:23Z</time>
      </trkpt>
      <trkpt lat="44.60709" lon="2.04245">
        <ele>182</ele>
        <time>2021-08-30T13:18:27Z</time>
      </trkpt>
      <trkpt lat="44.60711" lon="2.04237">
        <ele>182</ele>
        <time>2021-08-30T13:18:28Z</time>
      </trkpt>
      <trkpt lat="44.60714" lon="2.04232">
        <ele>183</ele>
        <time>2021-08-30T13:18:29Z</time>
      </trkpt>
      <trkpt lat="44.60718" lon="2.04228">
        <ele>183</ele>
        <time>2021-08-30T13:18:30Z</time>
      </trkpt>
      <trkpt lat="44.60776" lon="2.04205">
        <ele>181</ele>
        <time>2021-08-30T13:18:40Z</time>
      </trkpt>
      <trkpt lat="44.60803" lon="2.04196">
        <ele>182</ele>
        <time>2021-08-30T13:18:46Z</time>
      </trkpt>
      <trkpt lat="44.60808" lon="2.04194">
        <ele>182</ele>
        <time>2021-08-30T13:18:48Z</time>
      </trkpt>
      <trkpt lat="44.60813" lon="2.04194">
        <ele>182</ele>
        <time>2021-08-30T13:18:51Z</time>
      </trkpt>
      <trkpt lat="44.60818" lon="2.04199">
        <ele>183</ele>
        <time>2021-08-30T13:18:54Z</time>
      </trkpt>
      <trkpt lat="44.60823" lon="2.04201">
        <ele>183</ele>
        <time>2021-08-30T13:18:57Z</time>
      </trkpt>
      <trkpt lat="44.60822" lon="2.04188">
        <ele>185</ele>
        <time>2021-08-30T13:19:21Z</time>
      </trkpt>
      <trkpt lat="44.6082" lon="2.04193">
        <ele>189</ele>
        <time>2021-08-30T13:20:59Z</time>
      </trkpt>
      <trkpt lat="44.60822" lon="2.042">
        <ele>189</ele>
        <time>2021-08-30T13:21:03Z</time>
      </trkpt>
      <trkpt lat="44.60827" lon="2.04201">
        <ele>194</ele>
        <time>2021-08-30T13:21:07Z</time>
      </trkpt>
      <trkpt lat="44.60837" lon="2.04196">
        <ele>195</ele>
        <time>2021-08-30T13:21:11Z</time>
      </trkpt>
      <trkpt lat="44.60841" lon="2.0419">
        <ele>195</ele>
        <time>2021-08-30T13:21:14Z</time>
      </trkpt>
      <trkpt lat="44.60846" lon="2.04191">
        <ele>195</ele>
        <time>2021-08-30T13:21:20Z</time>
      </trkpt>
      <trkpt lat="44.60851" lon="2.04193">
        <ele>199</ele>
        <time>2021-08-30T13:22:19Z</time>
      </trkpt>
      <trkpt lat="44.60851" lon="2.04186">
        <ele>199</ele>
        <time>2021-08-30T13:22:25Z</time>
      </trkpt>
      <trkpt lat="44.60842" lon="2.04181">
        <ele>198</ele>
        <time>2021-08-30T13:22:31Z</time>
      </trkpt>
      <trkpt lat="44.60838" lon="2.04178">
        <ele>198</ele>
        <time>2021-08-30T13:22:35Z</time>
      </trkpt>
    </trkseg>
  </trk>
</gpx>